GFSWCAN_700_spd_000.txt.gz
Wind_Speed
50 48 38 30 29 27 25 25 26 26 18 9 9 10 10 12 17 17 25 21 19 19 13 12 8 7 9 12 14 13 6 22 27 20 12 7 7 14 9 10 9 17 11 10 8 3 5 9 7 7 4 4 12 17
51 46 32 30 29 29 26 22 24 25 18 11 9 11 15 19 19 17 20 18 12 14 11 13 10 8 8 11 13 13 10 14 14 17 13 11 7 9 11 6 13 13 16 11 11 5 4 4 5 9 9 7 7 10
50 43 32 29 30 29 25 22 22 24 18 13 11 13 20 17 25 21 21 19 15 13 13 13 10 11 12 12 14 13 11 18 22 30 15 9 7 11 10 13 11 18 13 17 15 13 12 11 9 9 8 7 5 5
49 42 34 31 29 26 24 20 19 22 19 15 14 15 20 19 25 25 24 20 16 12 11 8 8 7 7 8 12 11 11 19 19 27 22 16 13 10 13 11 15 14 13 17 22 15 15 14 11 11 4 3 5 8
47 43 33 30 28 24 22 20 19 21 19 15 15 17 21 23 22 29 24 19 18 15 4 6 6 8 10 7 11 7 13 20 17 26 25 20 22 15 15 18 20 16 14 13 8 8 13 3 14 17 6 4 5 7
45 42 34 28 25 22 22 21 20 20 18 15 15 15 23 27 22 25 23 20 19 17 12 5 5 2 7 7 4 4 11 20 16 16 22 22 23 19 11 23 21 15 14 14 9 6 13 10 7 9 10 10 8 8
42 40 35 30 26 24 23 20 20 21 17 16 15 15 24 31 27 26 19 25 18 14 16 9 8 10 10 8 4 5 7 19 21 13 18 16 14 27 24 24 19 21 16 17 14 12 12 12 13 14 16 15 12 11
39 39 36 32 27 23 21 22 22 21 16 14 12 16 26 32 33 27 17 18 19 17 16 5 6 7 9 11 7 1 2 14 17 12 14 11 9 14 12 10 12 9 10 15 17 13 10 11 11 12 13 14 12 11
37 37 37 35 32 28 26 24 22 17 15 12 10 16 26 31 34 29 25 14 15 23 11 11 12 6 8 10 11 6 3 5 4 8 9 10 15 13 7 11 11 10 9 9 14 14 13 13 11 12 13 13 11 10
35 34 34 36 36 31 27 25 19 15 11 7 4 16 23 24 27 29 23 20 16 24 21 14 15 12 7 11 11 7 4 3 1 8 9 16 25 20 14 8 7 8 10 11 13 13 14 15 13 12 12 10 11 12
34 33 31 32 35 33 28 26 22 15 8 3 17 17 24 25 22 32 12 19 18 17 27 26 19 15 14 14 12 10 4 4 4 6 7 7 23 15 17 19 18 15 12 12 12 12 11 10 8 12 13 10 11 12
32 32 31 31 31 33 31 26 25 16 9 12 22 26 33 27 13 12 14 16 13 19 14 24 25 20 14 14 13 12 6 6 5 5 6 7 14 11 14 17 19 19 21 18 16 15 17 17 14 11 12 11 13 12
31 32 31 30 29 30 30 26 23 17 9 13 15 14 15 18 13 11 15 16 18 18 32 24 27 23 19 16 8 7 7 6 4 6 6 14 13 11 7 7 13 22 23 23 21 18 16 16 15 12 12 14 13 11
31 32 31 30 28 28 30 24 20 15 7 7 5 5 9 10 16 20 27 28 30 20 23 21 26 25 22 18 7 6 7 6 5 7 13 14 12 10 11 13 13 15 21 23 23 19 18 18 15 15 15 13 12 11
29 31 32 29 26 27 27 21 17 10 6 6 4 5 8 9 22 23 13 20 22 20 19 25 30 20 26 10 9 9 7 7 9 7 5 6 7 8 8 11 12 13 18 21 22 20 20 17 15 15 16 16 15 14
28 30 31 32 28 27 23 15 13 10 6 8 5 6 4 12 6 9 16 19 26 25 26 29 25 12 12 10 11 11 7 9 6 1 2 4 6 8 8 12 14 16 19 21 22 22 17 12 14 15 16 18 16 13
26 29 30 31 30 27 20 12 10 5 4 6 10 10 5 4 12 16 16 27 30 30 37 27 15 12 12 13 16 14 21 17 12 10 7 11 12 10 9 11 14 19 23 24 23 20 18 19 18 19 18 15 12 10
25 27 29 30 32 29 17 7 5 4 7 10 13 18 10 11 15 15 22 33 34 34 37 30 24 19 15 18 24 25 23 25 18 14 14 13 12 11 12 13 17 21 25 24 22 21 20 19 20 20 16 13 11 8
24 26 27 29 31 29 18 8 6 5 9 12 15 16 20 15 13 19 23 31 36 40 39 35 28 26 27 27 22 19 16 14 12 13 15 13 12 16 15 15 19 23 25 23 22 21 21 21 19 16 13 11 8 7
22 24 25 27 28 24 12 6 8 8 9 14 14 16 18 26 24 17 21 31 35 42 41 41 39 28 23 25 24 20 16 15 12 15 17 16 16 17 18 19 24 26 26 24 25 23 22 22 18 15 13 10 8 7
20 21 22 24 25 18 10 7 8 9 12 13 13 14 16 23 27 28 21 29 33 44 50 46 40 39 36 30 26 24 18 17 14 18 15 16 18 20 22 24 27 28 25 23 23 24 23 18 16 14 12 10 8 7
21 20 21 22 22 14 5 6 11 13 13 14 13 14 16 19 21 22 22 25 37 41 43 43 38 38 37 34 33 32 31 29 24 20 20 20 20 22 24 26 29 29 25 24 22 21 19 18 16 14 11 9 7 10
22 21 20 21 14 7 6 13 13 12 10 9 13 14 12 16 20 22 17 26 33 40 41 39 35 34 36 34 30 27 24 22 22 26 26 25 24 27 28 29 29 29 28 27 24 21 19 18 16 12 8 7 11 15
22 19 18 7 5 7 12 13 12 13 11 10 9 11 12 14 17 18 22 26 31 36 38 41 39 37 34 32 30 24 19 20 24 25 28 29 28 29 31 34 33 31 28 23 20 20 19 15 10 3 10 18 17 15
19 12 6 9 7 9 10 11 12 11 13 15 14 7 7 8 11 16 20 27 26 27 32 36 35 28 21 21 21 21 20 20 23 28 28 28 30 36 41 40 37 29 24 22 22 20 14 7 10 19 17 15 13 13
8 7 7 6 8 9 10 10 10 14 15 14 8 7 8 8 9 8 14 22 23 24 27 29 28 23 21 19 18 18 18 20 21 24 28 32 38 40 41 39 34 29 28 25 14 11 14 18 14 13 12 12 12 14
11 11 13 14 13 13 12 13 13 12 12 8 11 14 7 5 5 7 11 14 18 21 27 32 31 30 25 20 17 17 19 21 22 26 32 35 33 32 27 27 29 25 20 22 19 16 13 13 11 10 11 11 13 14
13 15 16 13 12 12 11 11 11 8 7 9 11 9 5 4 7 15 16 12 15 20 23 27 27 25 21 18 18 19 24 27 30 36 40 39 35 32 29 26 24 22 21 18 14 12 12 11 9 9 10 12 13 14
14 12 12 13 12 12 10 9 8 8 10 12 14 15 14 17 15 15 12 6 7 12 15 19 22 21 18 19 22 29 32 31 29 26 24 27 29 24 20 18 18 17 15 12 10 10 11 9 8 9 10 11 12 13
12 12 14 12 12 12 11 8 7 8 10 11 13 14 16 17 14 9 4 7 10 12 13 15 17 20 22 25 28 27 24 21 20 19 21 23 22 20 18 15 12 11 10 10 11 9 7 7 8 9 10 10 11 13
15 14 15 14 15 12 10 10 9 9 10 12 12 12 12 12 7 5 8 12 16 20 23 22 21 22 22 22 23 23 25 24 23 21 18 16 14 13 12 12 12 11 10 8 6 5 6 7 8 8 9 10 11 14
15 16 13 12 13 10 10 10 10 9 9 9 10 9 8 5 3 8 13 16 20 22 22 22 21 20 20 21 18 15 14 15 16 17 17 16 14 12 11 9 8 7 6 5 5 5 6 6 7 8 9 11 14 13
16 17 17 15 13 11 11 10 9 8 8 6 5 5 3 2 3 10 16 18 19 20 20 19 18 17 17 14 14 15 16 15 15 14 14 14 12 10 9 8 7 6 5 5 5 5 6 7 8 9 11 13 11 10

GFSWCAN_700_spd_003.txt.gz
Wind_Speed
45 48 49 42 32 29 28 27 24 21 22 17 8 5 14 10 14 15 20 21 20 23 12 16 15 12 14 9 10 12 10 10 20 21 19 8 8 7 7 7 5 10 5 4 4 2 2 5 12 12 5 4 16 19
44 45 46 44 34 29 28 25 25 18 19 16 9 7 14 12 17 23 24 15 14 16 15 16 12 13 10 7 9 10 10 8 16 19 18 8 7 5 9 4 12 9 9 4 6 1 4 7 6 6 7 8 8 18
42 44 44 43 37 30 26 24 21 18 19 15 12 9 18 17 17 18 25 20 15 14 13 12 9 10 9 10 12 12 9 14 17 33 16 9 7 8 6 11 9 11 9 10 8 9 5 7 8 11 7 6 9 14
41 42 43 42 36 32 26 22 21 19 19 17 13 9 18 22 22 23 26 22 21 8 11 5 10 9 8 8 7 9 8 12 23 18 28 15 12 9 12 10 9 10 6 10 16 13 4 10 12 11 8 6 7 9
40 41 41 41 37 31 28 25 23 20 19 19 14 9 16 24 26 26 24 22 19 12 4 5 9 8 10 10 8 11 9 14 18 21 23 23 22 15 15 17 18 14 12 7 4 1 11 9 11 12 7 4 4 6
39 40 41 41 39 33 27 26 24 20 20 20 15 11 17 25 26 30 25 19 16 17 12 5 5 4 4 7 6 9 6 15 18 6 25 28 22 20 12 21 23 16 14 10 7 4 15 9 6 15 12 5 4 6
38 39 39 39 39 38 32 27 24 24 22 18 14 11 19 27 28 32 29 28 25 20 18 10 7 9 12 7 6 5 10 7 16 10 12 21 21 17 26 31 15 11 16 15 13 10 10 17 11 9 10 9 8 8
36 38 38 37 37 38 35 31 27 23 19 15 13 10 21 33 30 30 26 21 25 22 18 6 6 7 6 9 8 3 8 9 16 16 11 17 19 15 16 21 21 19 19 21 13 17 10 10 12 12 12 11 11 11
35 36 37 35 35 36 35 31 28 26 21 15 7 8 22 32 32 26 23 19 25 22 10 11 12 5 6 9 10 4 2 0 3 17 10 12 18 12 3 6 9 10 8 11 17 19 13 11 11 10 11 12 11 11
33 35 36 34 34 35 34 32 28 27 23 14 4 12 16 31 36 23 23 16 19 27 23 23 15 12 6 6 7 5 4 3 2 6 8 14 24 16 9 12 14 12 11 10 12 14 14 14 12 11 11 11 11 10
31 33 35 34 33 34 32 32 29 25 21 8 9 12 18 30 31 18 12 22 19 18 25 31 28 15 10 7 9 7 2 3 3 5 8 7 18 14 19 16 12 9 10 12 14 14 12 8 2 11 13 14 12 11
29 32 35 34 34 33 32 30 26 25 23 11 12 19 25 29 12 10 11 12 13 22 14 27 31 21 16 14 10 6 5 5 5 6 5 7 12 14 13 17 20 20 17 15 14 13 13 14 12 9 9 10 11 12
27 30 33 34 34 33 33 28 22 22 17 4 10 16 18 14 11 13 17 21 17 16 28 25 27 22 17 15 9 6 7 6 5 6 6 8 6 10 10 16 20 20 22 23 18 15 13 14 16 12 10 12 12 11
25 28 31 33 34 34 34 24 19 18 13 2 2 4 4 3 5 7 13 18 25 20 11 21 21 24 20 16 8 6 7 5 5 6 7 7 6 6 10 12 12 15 21 22 21 19 17 15 16 16 14 12 11 9
23 26 28 30 32 34 34 21 15 14 8 4 1 2 4 5 8 12 12 15 12 17 12 21 24 22 19 11 9 8 7 6 8 4 4 5 4 5 10 14 15 15 16 19 21 21 18 16 17 14 14 15 13 11
22 24 26 27 28 32 34 20 13 12 3 5 3 3 8 7 7 8 14 15 20 23 21 25 20 10 12 9 9 10 7 7 3 3 5 7 7 6 6 11 15 17 18 19 21 20 17 18 16 14 14 14 14 14
21 24 26 26 27 29 33 23 10 9 1 3 7 12 11 10 7 8 14 23 24 28 32 24 16 13 11 12 17 15 19 12 8 11 10 9 13 11 8 9 13 16 18 19 19 20 20 20 16 14 13 14 15 12
19 22 24 26 27 27 29 22 8 6 6 8 11 14 18 21 16 13 9 19 31 35 37 23 16 21 16 16 21 25 24 20 15 16 17 16 15 13 10 10 13 16 19 20 20 21 21 13 15 16 16 15 13 10
19 22 23 24 26 26 25 15 13 7 12 13 12 15 20 20 22 21 11 17 33 40 42 36 16 27 30 21 17 12 10 13 12 9 10 11 13 14 11 12 14 17 20 21 22 19 15 18 17 17 16 14 12 11
20 21 22 22 22 23 18 12 17 10 10 17 18 17 18 21 23 22 24 15 29 40 42 42 42 22 15 22 26 23 20 17 15 16 18 17 17 15 13 15 19 22 23 25 23 23 23 22 21 20 17 14 12 10
19 20 21 21 20 19 16 12 13 12 18 17 17 20 19 18 20 24 23 27 22 37 47 45 37 37 34 26 20 14 16 17 17 19 18 17 14 13 17 20 23 22 23 25 24 24 22 20 19 18 15 14 12 10
19 20 21 20 20 22 13 10 13 19 22 18 16 18 21 19 19 22 24 23 25 29 42 48 42 44 38 34 31 31 28 26 27 27 24 21 16 16 18 23 26 26 26 24 21 23 22 21 20 18 17 14 11 7
20 20 22 20 19 9 8 11 15 17 14 17 17 19 17 16 17 17 18 22 26 29 33 40 45 38 38 41 35 33 32 33 30 26 24 25 21 19 18 24 28 26 24 26 26 24 22 21 20 19 16 12 8 4
21 20 18 7 7 7 12 12 15 14 16 15 18 21 22 20 18 19 20 21 23 24 31 34 37 44 43 41 41 39 31 27 24 19 22 25 26 22 21 26 30 32 29 27 27 26 23 21 19 17 14 9 4 12
18 12 7 9 10 8 8 12 14 14 14 16 20 19 14 15 18 19 21 20 17 19 25 27 33 34 36 36 33 32 30 25 21 20 21 23 25 26 30 31 37 37 35 31 28 24 21 20 19 16 8 6 17 17
7 7 7 7 10 11 10 12 12 16 17 16 12 13 16 20 15 9 11 10 13 16 18 22 24 27 31 33 32 30 25 24 23 24 25 29 30 33 34 40 43 43 38 30 22 22 23 22 15 13 17 18 15 14
10 10 12 15 18 17 16 16 16 16 16 15 15 15 14 7 8 8 11 18 19 17 17 19 20 23 28 31 30 27 24 21 18 19 20 24 32 37 41 43 43 37 34 33 32 27 19 18 16 16 15 14 13 13
12 10 10 12 15 15 16 16 16 13 9 10 12 14 9 9 20 27 29 27 24 17 16 18 20 22 28 29 27 25 23 22 20 19 22 26 29 32 35 37 38 34 28 27 22 18 16 15 14 13 13 13 12 12
12 9 10 11 11 13 15 15 14 15 14 14 16 18 22 23 25 25 27 27 21 14 11 12 15 18 21 23 23 22 20 20 23 26 27 32 36 38 36 30 29 27 22 21 18 17 18 16 13 11 12 12 11 9
13 11 11 12 13 14 14 14 14 14 14 14 17 19 21 21 22 22 22 19 11 7 7 8 11 15 19 20 19 20 22 24 26 26 30 33 34 32 32 27 25 22 19 19 18 16 13 10 11 12 11 9 7 7
14 13 14 14 15 14 15 14 15 15 15 15 17 19 20 17 17 15 11 8 5 7 11 14 16 18 20 21 23 25 27 27 26 23 22 26 27 25 24 24 23 22 20 17 14 11 11 12 11 9 7 6 6 8
13 14 14 15 14 13 14 13 14 15 15 14 15 16 16 13 11 8 4 6 12 14 16 18 20 23 24 24 25 27 29 31 31 28 26 26 25 26 24 21 19 17 15 13 13 13 11 9 8 6 5 6 8 10
15 13 13 14 15 16 13 13 14 15 15 14 14 13 13 10 10 4 3 9 14 15 19 22 23 24 24 23 23 23 24 25 25 25 25 22 19 18 18 17 16 15 15 14 12 11 8 6 4 5 6 7 9 10

GFSWCAN_700_spd_006.txt.gz
Wind_Speed
38 40 40 42 41 41 33 26 23 23 16 14 8 8 12 13 10 18 13 16 18 22 15 23 17 14 12 17 14 11 12 9 10 14 13 10 11 10 8 9 4 5 4 4 4 3 2 4 1 3 9 8 10 11
37 38 39 40 41 40 36 25 22 21 19 15 11 7 13 13 15 18 20 20 16 15 11 13 15 17 17 15 13 14 10 12 7 13 10 11 8 6 10 5 8 5 9 2 4 2 2 4 3 5 4 5 6 15
36 37 37 39 40 40 37 28 22 20 20 17 13 8 13 18 20 20 17 16 18 15 16 14 12 17 16 16 13 11 15 12 14 14 10 12 7 8 6 8 10 6 9 8 5 4 5 4 4 4 1 4 5 13
35 36 37 38 39 40 40 31 24 20 19 16 14 11 13 23 23 24 26 19 17 13 10 6 12 13 13 13 11 12 11 12 12 17 17 15 13 10 10 8 5 6 7 6 8 9 8 7 6 7 1 2 5 10
34 35 36 37 38 38 40 37 30 22 20 19 16 13 12 24 24 28 24 24 18 13 7 8 8 11 12 13 12 10 10 10 14 15 19 30 21 14 14 17 22 13 11 9 5 7 12 8 9 6 5 4 5 5
33 34 35 36 37 36 37 37 32 25 21 21 20 14 17 23 28 25 26 24 21 19 9 4 8 10 11 9 7 8 7 12 13 15 15 17 28 25 13 16 20 18 13 11 9 4 12 9 12 12 8 3 4 4
33 34 35 35 37 35 34 34 31 26 23 22 18 16 19 26 32 30 26 28 22 18 14 5 8 10 13 8 6 5 7 14 10 19 9 25 27 21 28 34 27 16 12 14 13 9 9 14 8 12 15 9 4 3
31 33 35 36 37 36 34 33 30 25 24 22 18 16 19 27 31 29 26 19 22 19 13 6 7 7 4 5 8 4 6 6 7 15 7 8 16 21 25 18 17 21 22 13 13 13 12 10 15 10 10 9 7 8
29 31 34 35 37 37 35 33 29 22 26 21 15 11 15 25 27 29 21 22 22 22 12 11 12 3 3 6 8 6 4 6 6 10 16 10 17 17 5 9 7 7 13 16 20 16 14 11 12 12 10 10 10 9
26 29 32 34 36 38 36 34 28 21 26 19 8 7 13 23 33 24 19 19 21 28 23 23 17 14 7 3 2 4 4 4 4 5 9 19 28 19 17 10 7 7 7 5 13 19 16 12 9 10 10 11 12 12
24 27 30 32 34 36 37 35 25 21 25 11 3 8 14 33 30 16 14 18 18 14 22 31 27 18 10 6 4 3 2 4 3 4 6 6 14 10 13 15 12 10 10 10 13 15 15 12 4 11 13 16 16 15
23 26 29 31 33 34 37 36 24 24 23 12 7 7 17 19 9 7 15 10 9 12 11 19 24 26 17 11 6 4 4 4 4 5 5 6 9 10 12 17 16 14 10 11 12 13 13 15 14 12 11 11 12 13
21 24 27 30 32 33 35 36 22 22 18 6 9 11 12 8 6 6 9 7 8 7 12 14 13 18 19 14 7 5 5 6 5 6 6 6 6 6 15 15 20 24 22 17 13 13 13 14 16 14 13 14 13 14
20 22 25 27 30 32 33 35 22 17 13 2 3 3 2 1 3 3 2 6 8 7 4 4 16 19 18 13 8 5 7 5 5 6 5 5 5 7 11 12 16 19 20 22 20 16 15 14 16 18 16 13 12 11
18 20 24 25 27 29 30 34 22 11 9 3 0 2 3 7 8 5 1 9 12 14 11 13 17 16 17 8 8 8 5 6 7 4 1 3 3 3 8 12 13 13 16 20 21 19 17 15 17 17 17 16 15 13
17 18 21 23 24 26 28 30 20 7 6 5 3 2 3 7 6 5 4 11 16 15 14 20 15 7 11 8 10 12 7 7 4 6 4 4 5 6 5 7 13 14 15 17 19 19 18 18 17 18 17 17 15 14
17 18 20 22 22 23 25 24 21 7 2 2 10 10 11 11 7 5 3 14 16 20 28 17 12 10 10 11 16 16 23 20 7 3 6 7 7 9 8 7 8 12 15 17 18 18 19 19 21 20 15 15 14 14
18 18 19 21 21 22 21 20 21 7 6 6 7 12 13 15 17 14 9 10 20 24 34 25 18 20 12 16 22 23 26 26 23 15 15 14 14 13 9 7 8 10 14 16 17 19 21 22 22 19 15 13 13 14
18 17 18 21 20 20 21 15 19 13 9 10 10 14 16 16 17 17 16 18 14 27 37 38 19 26 33 22 15 14 15 12 13 14 12 9 7 9 10 9 9 12 14 18 20 20 21 20 16 15 15 16 15 12
18 17 18 20 18 19 16 11 17 13 13 17 14 13 18 21 19 18 17 18 22 16 27 29 41 31 16 25 31 20 16 12 10 11 11 13 14 15 14 12 11 16 20 20 21 22 23 22 21 19 18 17 14 12
18 18 19 20 18 16 16 14 14 10 17 15 19 19 19 18 22 21 18 18 20 25 26 31 34 38 34 14 17 25 27 24 16 14 13 14 15 16 13 12 15 20 22 22 24 26 23 20 20 21 19 17 15 14
18 19 19 19 19 20 20 18 12 13 17 18 20 22 22 21 18 18 18 17 21 25 27 28 30 28 34 39 33 23 20 19 21 21 17 16 18 20 16 13 17 24 25 27 24 20 21 22 20 20 18 16 15 13
19 20 21 20 19 12 12 13 13 14 14 18 21 23 21 21 21 19 17 14 14 17 25 29 31 29 29 30 40 39 34 30 28 28 27 25 22 21 21 17 17 25 28 29 26 23 23 23 22 20 19 18 15 13
19 19 18 9 9 9 12 12 15 14 17 17 19 23 21 22 21 20 20 21 20 19 21 25 27 31 31 32 35 28 34 40 36 32 26 25 23 22 23 21 21 27 31 30 28 27 26 24 22 21 20 18 16 12
16 13 8 11 11 11 15 17 15 15 17 18 20 20 15 16 20 24 22 21 20 22 23 24 24 26 25 26 27 32 37 35 33 34 31 25 22 21 25 23 24 31 36 35 34 32 29 25 22 22 21 20 13 9
8 8 10 9 12 13 13 14 14 15 17 19 14 13 17 20 19 13 19 18 15 19 20 20 23 23 25 23 24 25 25 27 33 33 28 26 24 21 24 26 30 38 41 39 34 32 28 25 24 24 21 16 15 16
12 13 17 20 19 16 15 17 18 17 18 16 16 15 12 6 8 11 12 22 26 26 26 24 22 22 25 24 24 25 26 24 26 27 26 26 27 24 23 29 35 41 42 39 31 29 27 26 26 23 21 18 15 13
17 22 19 15 14 15 19 19 18 17 11 11 12 12 8 11 21 27 28 29 27 25 26 26 24 22 23 25 25 26 26 25 25 25 26 26 26 26 27 29 33 40 40 36 33 31 30 29 26 22 15 14 12 12
21 18 17 15 14 16 18 17 16 15 15 16 18 18 21 22 25 27 26 24 23 23 24 26 23 21 22 23 24 26 27 24 23 25 26 24 24 27 30 32 37 39 37 38 33 28 27 26 22 18 15 13 12 10
23 19 19 15 15 15 15 15 15 14 16 17 19 21 22 24 25 24 24 24 20 18 21 21 18 17 18 19 21 23 23 23 23 25 23 22 22 26 31 34 35 36 33 31 30 27 22 19 18 16 14 12 10 9
21 19 19 17 16 14 14 15 15 16 18 18 19 20 22 23 21 22 22 18 14 13 14 14 13 13 16 18 19 19 19 21 22 22 20 22 27 31 32 31 31 31 29 26 25 20 19 18 16 14 12 10 9 8
18 20 17 16 17 14 15 15 15 16 17 17 18 19 19 20 21 20 15 11 6 5 5 4 7 10 15 18 20 22 24 27 30 28 28 28 29 31 32 33 32 30 25 20 21 21 19 16 14 13 11 9 8 8
17 18 18 17 16 14 12 13 14 15 15 16 17 18 19 16 16 15 9 4 1 2 4 9 13 14 15 18 19 19 23 26 29 29 29 30 31 29 29 27 25 24 24 23 20 18 16 15 13 11 9 9 8 7

GFSWCAN_700_spd_009.txt.gz
Wind_Speed
29 32 34 38 41 43 44 45 43 32 22 17 14 11 9 9 10 15 12 8 9 12 16 21 18 22 20 15 13 10 8 6 7 10 9 14 12 10 9 10 6 3 4 4 4 5 5 11 8 9 13 14 7 10
29 31 32 36 39 42 42 43 44 38 25 19 15 13 11 14 15 21 15 18 15 15 13 17 17 17 17 15 12 12 10 10 5 6 10 8 9 6 8 4 5 5 7 2 4 5 9 7 8 11 13 11 4 9
27 30 32 35 38 41 41 41 41 42 30 20 17 15 14 17 20 25 22 16 14 16 13 17 16 13 15 15 13 13 9 12 17 13 16 13 9 9 7 5 8 6 7 8 10 6 6 6 5 5 9 11 5 11
26 28 31 33 36 39 40 40 38 40 34 25 19 17 17 18 24 24 26 21 15 14 13 15 16 15 13 18 15 15 12 14 18 15 16 12 15 9 10 9 7 4 4 6 9 9 10 7 4 1 4 7 7 8
26 27 30 32 35 38 39 39 38 36 31 25 24 20 18 21 26 25 23 20 21 18 13 14 13 13 14 13 13 13 13 13 10 16 16 18 21 19 18 16 18 11 13 10 9 9 6 4 5 3 1 3 6 8
25 26 29 31 34 36 38 39 37 34 27 23 23 23 16 20 26 26 27 29 25 18 8 8 11 11 13 14 13 14 13 9 14 15 18 19 21 23 11 21 21 18 10 16 13 8 5 6 7 7 5 4 4 6
24 25 29 31 34 35 37 39 38 32 24 22 25 19 15 17 28 32 22 30 29 22 13 7 6 10 12 12 11 12 8 10 13 13 19 18 16 17 29 37 27 18 21 14 13 10 6 9 6 10 7 3 2 2
24 24 28 30 34 35 36 39 37 28 20 24 26 15 10 15 28 32 18 23 29 21 18 5 5 6 7 7 13 12 6 9 9 10 10 14 13 22 26 27 19 18 19 19 15 14 12 11 12 8 10 10 5 4
23 23 26 29 33 36 36 39 37 24 21 29 20 9 3 10 23 30 20 18 24 17 10 8 9 1 3 5 7 6 7 8 7 9 12 15 14 16 5 1 8 12 13 17 19 17 15 13 11 13 9 9 8 6
21 22 24 28 31 34 36 39 36 24 28 24 13 2 4 14 25 26 21 15 23 23 10 18 12 10 4 5 3 4 5 6 4 5 8 12 27 24 17 13 6 1 3 7 16 21 18 15 11 13 11 8 10 7
18 21 22 25 29 32 35 38 38 26 29 14 4 5 5 22 30 17 11 17 13 11 15 25 22 13 8 5 4 4 4 5 4 4 5 6 10 5 9 14 12 9 6 4 7 15 15 13 9 10 9 15 16 15
18 19 20 23 25 29 32 36 36 25 22 12 9 7 11 16 8 4 8 12 8 11 7 8 12 19 19 10 4 5 7 5 5 5 5 5 4 6 8 11 12 13 10 9 9 13 18 18 14 14 14 16 18 18
18 18 19 22 23 25 29 33 32 18 11 9 10 9 7 6 1 3 5 7 8 4 6 8 9 11 16 15 6 6 5 6 5 5 5 6 9 9 7 12 17 15 14 11 10 11 12 15 16 15 14 17 17 16
17 17 18 21 22 23 25 29 28 13 7 5 6 5 5 4 6 6 3 9 13 9 2 9 10 10 13 12 7 5 7 6 5 6 5 8 8 7 5 10 13 21 20 15 12 12 12 13 16 16 18 15 15 15
17 16 16 19 20 21 22 24 25 12 5 3 2 2 5 5 6 2 2 7 11 8 7 14 17 11 11 7 6 7 5 6 6 4 2 1 4 4 2 7 10 13 19 22 20 18 15 15 16 17 19 18 17 16
18 15 16 17 19 18 18 20 22 10 1 3 2 4 3 4 3 2 4 7 14 17 16 18 9 7 10 7 8 9 6 6 4 3 2 2 4 5 4 3 5 10 12 16 20 20 18 16 16 19 19 20 19 16
17 15 14 16 17 18 16 17 17 7 3 3 6 9 8 6 3 3 4 8 13 16 20 19 10 10 9 9 14 16 26 18 12 8 2 3 7 7 7 5 5 6 10 15 19 20 20 19 20 21 21 21 18 16
16 16 15 16 16 17 16 13 11 5 8 6 9 10 12 14 13 11 9 11 11 18 25 23 13 20 12 12 17 16 15 18 22 21 18 15 14 14 9 7 8 8 10 14 18 20 20 20 21 22 23 17 15 15
15 16 15 17 16 15 16 13 7 8 6 8 10 9 11 15 18 16 15 15 16 16 21 27 18 20 30 23 13 10 14 14 12 14 19 19 14 10 7 6 7 9 11 15 19 19 20 21 22 24 22 18 15 15
17 16 15 17 16 14 11 7 14 7 7 11 12 11 13 13 14 18 21 21 21 23 26 30 32 26 16 24 30 32 26 15 15 14 12 10 10 10 11 10 9 10 12 17 20 21 23 24 24 22 19 18 18 17
17 17 17 17 15 14 12 11 11 9 13 11 13 18 20 18 17 18 19 22 24 27 30 34 38 34 32 26 21 22 24 27 23 19 18 18 19 19 20 18 11 10 13 18 22 24 24 22 23 23 21 21 21 19
17 17 17 17 17 17 17 20 17 15 12 15 15 19 23 20 20 20 20 19 23 25 26 30 32 35 35 29 35 28 27 30 27 22 21 20 17 16 16 14 11 11 14 21 23 22 23 26 23 22 23 22 20 17
17 16 17 16 17 11 13 17 15 14 12 16 18 21 20 23 24 22 17 18 18 17 20 21 25 29 32 33 31 31 30 28 30 29 24 22 19 18 18 17 16 14 16 24 26 25 25 27 26 25 22 22 20 18
17 15 14 9 10 9 12 12 12 14 17 18 20 22 22 23 23 23 26 22 19 19 21 24 26 28 28 29 36 34 33 30 33 35 32 28 27 22 20 20 19 19 21 26 31 30 29 29 28 26 23 21 20 19
12 10 8 11 11 12 15 16 15 16 19 19 21 21 20 19 22 27 29 17 13 15 15 17 20 24 26 28 30 34 38 35 30 31 34 37 32 25 22 21 20 23 26 32 36 37 33 31 31 25 23 22 20 19
8 9 10 9 11 12 12 12 13 14 16 18 15 15 20 21 23 14 18 17 15 19 21 23 23 22 23 24 27 30 33 36 33 34 30 26 25 25 24 24 22 26 31 34 37 41 38 35 31 28 27 25 23 20
13 11 13 17 18 16 15 16 15 17 19 21 22 21 17 8 8 8 12 21 28 30 30 29 28 25 24 24 23 27 29 31 31 31 32 30 28 25 24 25 23 27 33 37 42 42 38 36 33 29 26 27 25 23
17 20 18 17 18 18 21 20 19 22 21 20 18 17 11 11 19 24 27 28 29 28 27 27 26 26 25 25 23 23 28 29 31 31 32 32 31 28 26 27 25 26 28 34 42 40 35 32 28 29 30 27 24 19
24 22 17 16 16 19 20 19 20 21 21 21 22 22 26 25 24 25 27 29 30 31 31 30 28 24 25 25 23 20 25 30 29 30 30 27 25 25 25 27 28 30 31 36 37 32 34 32 30 27 27 23 17 14
25 23 23 21 20 21 21 19 18 17 18 20 23 24 24 24 23 23 26 29 32 33 29 26 25 22 22 22 21 20 21 27 28 29 28 26 22 21 21 24 30 32 36 42 42 41 37 31 31 30 25 20 16 13
20 20 21 22 21 19 18 18 18 18 19 21 22 22 22 25 22 21 24 28 29 25 21 20 19 18 17 16 15 17 19 24 27 26 25 26 22 20 21 26 31 36 40 36 30 27 29 31 30 27 23 18 14 12
17 19 20 20 18 16 18 19 19 18 18 18 18 17 19 23 22 21 21 25 20 16 16 14 12 11 9 8 9 13 16 21 24 24 26 26 25 25 28 31 32 32 31 30 32 31 29 25 22 21 18 15 13 11
15 16 18 19 19 19 17 17 16 18 18 17 17 17 19 18 16 15 19 17 11 11 10 8 8 7 4 5 9 13 18 22 26 30 32 32 32 32 34 35 34 34 34 33 29 25 21 22 22 19 16 14 12 10

GFSWCAN_700_spd_012.txt.gz
Wind_Speed
23 23 25 27 31 32 34 35 36 39 41 36 21 11 11 15 20 16 19 12 9 14 12 13 17 15 17 14 7 7 6 6 5 11 6 7 7 6 7 10 7 5 6 7 5 5 4 12 9 11 13 11 7 8
23 23 24 26 29 32 32 34 34 37 39 38 28 15 15 17 21 23 18 17 11 11 10 18 17 19 18 20 15 11 12 7 4 3 6 6 7 6 7 4 7 7 10 4 6 6 13 8 7 9 12 8 6 11
24 23 24 26 28 32 32 32 34 35 37 37 30 19 16 18 24 28 23 17 17 18 16 15 23 20 19 18 16 12 11 11 11 12 10 10 10 9 7 10 12 9 8 9 7 7 10 7 5 5 9 8 6 9
23 22 24 26 28 31 33 32 33 35 37 34 26 18 16 16 23 26 29 21 20 15 14 16 18 20 16 16 15 12 12 12 13 15 17 12 13 10 13 12 12 7 5 5 9 7 12 5 3 2 4 5 5 4
23 22 23 25 27 30 32 32 34 36 36 31 20 15 20 12 21 25 34 22 21 17 10 13 17 17 14 14 15 15 12 12 13 15 13 19 18 21 19 21 26 14 13 12 9 11 10 5 4 3 1 4 6 7
23 22 22 23 26 29 31 32 34 37 33 24 16 21 23 13 16 22 26 26 24 23 8 12 12 11 12 13 14 13 12 14 14 13 20 20 17 14 12 23 23 18 14 10 11 13 8 4 4 5 5 6 7 8
23 23 21 22 24 27 30 32 35 37 28 20 23 28 18 10 15 28 28 29 26 18 10 7 7 13 13 12 13 13 13 13 12 17 18 16 18 14 26 34 19 19 16 18 16 11 10 6 5 8 6 6 6 6
22 22 22 22 24 26 29 32 36 37 27 24 27 22 12 7 19 27 28 21 23 18 14 5 4 8 10 10 11 10 10 9 13 17 18 14 11 16 24 20 13 14 20 22 17 14 15 11 10 8 10 7 4 3
21 20 22 22 24 26 28 32 36 37 30 30 19 10 2 9 21 26 23 22 28 21 10 8 6 2 7 4 4 4 7 11 15 17 18 13 19 17 4 2 4 8 13 17 17 20 18 15 10 11 10 8 6 4
19 18 20 20 23 25 27 31 36 34 31 20 10 9 5 14 24 29 16 17 23 15 11 13 11 5 3 1 1 3 4 6 9 11 10 15 25 15 22 14 8 4 5 6 12 20 18 15 13 12 12 10 8 7
21 18 20 18 20 22 24 29 34 26 20 16 12 10 9 19 30 15 9 10 10 12 12 12 11 9 3 4 2 2 3 5 5 5 5 7 7 5 5 21 24 14 8 5 8 17 20 16 11 13 16 13 14 13
21 16 18 16 18 20 21 25 29 21 15 18 16 18 16 13 7 1 6 8 7 10 5 11 14 17 14 9 4 4 5 5 5 7 6 5 4 9 7 7 9 15 13 8 6 8 20 19 17 16 15 11 14 17
20 16 17 14 15 17 18 21 25 17 9 11 12 10 7 5 4 2 2 9 8 9 11 10 7 11 14 15 7 6 5 7 6 6 6 6 7 9 6 8 12 14 13 9 9 7 11 15 15 15 16 16 18 18
19 15 16 13 13 15 14 17 20 15 4 6 6 5 4 3 3 4 6 13 14 9 7 14 12 8 8 10 8 5 7 6 5 6 10 11 10 8 5 5 8 15 12 12 10 10 11 13 16 16 16 15 17 17
19 16 15 13 12 13 13 14 15 14 2 2 4 3 4 6 7 5 5 13 16 11 7 12 14 8 8 6 6 7 5 5 6 4 6 4 6 7 4 4 6 11 16 16 13 11 11 12 14 15 16 19 18 17
20 15 14 12 12 12 12 12 12 12 1 6 5 5 7 6 5 4 4 8 13 11 9 15 9 7 8 6 7 8 5 6 2 4 3 1 5 7 8 6 2 8 12 17 20 18 15 14 15 17 18 21 21 19
21 14 13 11 12 11 10 10 11 8 2 4 6 11 8 7 4 4 6 7 11 13 14 11 8 9 7 9 11 11 9 10 6 5 6 5 5 7 11 9 6 5 8 13 17 20 18 18 19 20 22 22 23 23
20 14 13 11 12 12 10 8 8 5 4 2 4 8 13 14 13 13 10 9 10 14 17 23 14 16 12 13 14 16 17 15 16 17 19 17 17 17 17 15 10 7 7 10 15 19 20 21 21 22 23 23 23 21
21 14 13 12 11 11 11 8 5 5 7 7 3 2 2 6 10 14 17 17 16 16 17 23 19 25 26 25 19 17 17 19 16 16 18 20 19 18 18 16 14 10 9 10 13 19 21 21 21 22 24 23 21 17
22 17 14 13 12 10 8 6 8 10 8 8 8 6 5 6 9 12 13 14 17 23 25 28 32 32 29 24 25 29 31 28 26 19 17 20 17 13 12 10 8 8 10 10 13 18 21 23 25 26 25 23 21 18
22 17 15 14 12 11 10 8 8 7 9 13 14 11 11 12 15 15 15 17 20 22 25 30 33 35 35 34 34 41 35 30 34 38 34 25 20 17 14 14 15 17 15 13 14 21 24 23 23 25 25 24 23 21
22 19 16 14 12 13 14 17 15 15 14 17 15 15 15 16 17 17 19 19 22 20 21 23 27 32 36 38 38 34 34 39 40 31 29 30 28 25 20 17 18 18 17 16 16 22 22 24 25 24 27 27 24 23
21 18 15 13 11 10 12 15 16 17 14 13 12 15 15 18 20 18 15 18 21 21 22 22 25 28 30 33 35 36 36 35 36 41 33 37 35 31 24 21 20 17 18 18 21 26 26 25 26 30 29 26 24 23
19 17 14 8 11 12 14 15 14 13 13 15 16 17 19 20 22 22 23 23 22 21 21 23 25 25 26 28 32 33 33 37 38 36 39 37 38 32 30 27 23 20 18 21 23 29 31 29 30 31 29 26 24 22
15 13 10 13 13 13 15 16 16 18 18 16 17 18 19 19 20 23 24 18 16 16 17 19 22 25 26 25 24 25 29 33 36 41 41 34 41 35 34 32 26 22 22 23 26 31 36 35 32 33 31 29 25 24
13 12 11 12 14 13 12 12 13 15 15 15 12 14 17 21 20 13 22 12 16 22 25 28 31 31 30 32 31 27 27 28 31 37 37 40 35 35 35 33 27 25 23 23 29 33 39 39 36 38 34 32 29 26
15 10 15 19 13 11 13 15 15 15 14 13 19 21 17 7 7 7 14 24 28 29 30 31 32 32 32 28 31 32 28 27 28 30 34 36 37 34 35 35 32 28 26 24 27 34 41 44 45 39 36 32 30 29
18 19 20 15 16 17 18 20 20 21 18 17 17 15 10 9 18 27 27 29 30 30 31 32 33 35 35 33 32 30 29 27 26 27 30 34 33 33 36 36 33 33 31 28 27 34 40 44 38 37 34 33 33 32
24 23 18 17 17 18 19 19 19 20 19 19 21 21 24 25 25 25 27 29 29 31 33 34 35 35 29 27 26 27 27 26 25 26 27 31 31 27 32 37 35 31 29 28 27 30 37 38 39 38 36 33 29 25
26 22 19 19 19 20 20 18 17 16 18 20 21 22 23 24 23 24 26 27 29 32 34 35 31 28 26 26 24 25 25 23 23 24 25 29 30 30 31 34 33 33 32 31 31 36 42 41 39 38 33 27 27 25
24 19 18 18 20 18 18 17 17 18 19 19 19 21 22 23 21 20 23 25 25 28 29 27 28 26 23 21 19 19 20 21 21 23 23 26 27 29 30 29 29 32 33 35 36 39 42 41 37 31 32 31 28 21
17 19 18 18 16 14 15 15 17 18 19 18 19 19 20 22 22 22 20 21 23 23 22 22 21 21 21 17 13 14 15 17 19 20 22 24 25 28 30 28 30 33 36 41 41 38 35 32 34 34 30 27 22 20
17 17 16 16 13 13 12 14 15 18 18 18 18 19 20 20 19 20 18 19 18 16 16 16 17 17 14 12 10 10 10 13 15 17 20 21 23 27 28 27 31 37 41 38 36 34 34 34 32 29 26 23 21 17

GFSWCAN_700_spd_015.txt.gz
Wind_Speed
17 18 19 20 20 23 27 26 28 30 31 34 33 27 16 18 19 20 17 17 14 17 18 18 19 20 21 14 9 4 4 6 4 7 5 5 4 3 6 7 5 6 6 7 8 6 7 11 16 8 11 9 1 3
17 17 19 20 20 22 26 26 27 31 34 36 34 29 22 17 25 26 24 22 19 15 12 20 18 19 18 17 16 12 9 4 2 3 3 5 7 6 5 5 7 6 11 4 8 5 12 14 10 10 11 9 5 4
17 18 19 19 21 23 26 28 28 31 34 37 37 28 21 15 22 27 29 25 21 13 14 16 19 21 19 19 17 14 11 11 10 10 11 8 9 12 10 9 10 10 12 12 9 5 13 16 11 8 9 6 8 8
17 19 19 19 21 24 26 29 29 31 35 38 36 23 14 13 17 24 27 31 23 16 16 10 17 20 20 16 17 15 15 11 8 12 14 14 14 10 12 13 14 9 8 7 10 9 9 13 8 7 6 3 6 6
18 19 19 19 20 24 26 29 31 33 36 39 33 17 14 17 20 18 25 34 24 20 13 11 13 16 17 14 14 15 15 14 13 14 17 18 20 17 20 25 24 20 13 13 7 13 14 13 8 6 4 2 3 4
21 19 19 19 20 24 26 28 31 35 38 41 31 22 21 22 17 13 22 35 22 25 5 12 12 14 16 15 15 13 13 14 14 20 19 22 16 17 13 16 20 16 15 18 16 13 12 9 7 5 3 2 3 6
23 20 19 18 19 24 26 28 31 36 41 40 31 26 22 17 13 17 22 24 21 20 10 9 7 14 14 15 14 14 15 15 17 19 22 20 19 18 26 32 16 11 10 17 19 16 13 9 8 7 6 4 4 5
21 19 18 16 18 22 25 27 31 37 41 34 26 15 9 8 8 20 18 23 21 20 14 6 5 8 12 11 10 11 11 12 15 17 21 22 21 17 18 15 11 14 15 21 23 22 18 14 11 10 11 8 7 7
19 16 18 15 17 21 22 25 30 36 35 28 18 9 4 3 12 26 16 23 24 12 9 8 5 4 9 7 6 3 8 9 12 17 19 15 19 16 3 5 5 8 11 14 17 18 17 17 15 14 12 12 9 7
15 15 16 15 18 20 20 23 28 33 27 19 12 6 5 8 18 25 12 16 21 11 11 9 9 5 8 6 4 4 4 6 7 10 10 11 17 9 9 18 14 10 8 10 13 16 17 19 17 13 13 14 11 10
16 15 14 13 15 17 17 19 24 26 19 16 10 12 16 20 21 7 7 7 7 9 12 11 11 8 6 3 4 2 3 4 4 5 5 6 7 11 12 10 17 19 11 8 6 6 16 18 17 14 14 14 12 11
14 16 13 13 15 15 14 16 20 20 10 13 17 17 15 7 5 4 6 5 6 6 6 12 12 13 9 5 3 3 4 5 5 6 5 5 7 10 15 12 9 11 23 15 9 8 14 19 16 15 14 15 11 11
15 16 12 12 14 13 11 13 15 16 2 7 5 3 3 3 3 5 6 7 7 12 11 9 12 16 17 11 6 4 4 6 6 5 5 5 10 16 16 12 8 9 14 14 10 8 8 14 17 14 16 14 9 15
16 15 12 13 12 11 10 11 13 12 2 4 3 3 2 3 4 5 9 13 12 14 13 11 9 8 7 7 6 4 5 5 4 5 3 8 9 12 13 9 6 9 11 11 9 8 9 8 9 11 14 16 13 15
17 17 13 14 12 10 8 9 11 10 3 6 5 5 4 4 6 6 7 12 17 10 6 11 13 8 8 6 5 6 4 5 5 2 5 4 6 10 13 10 5 4 11 10 11 9 8 10 13 15 16 17 17 18
19 18 14 16 14 11 8 8 9 9 6 7 7 5 8 7 5 5 6 10 13 14 6 12 9 6 7 5 6 7 4 5 4 5 5 2 3 6 11 13 11 5 7 13 14 13 12 11 12 14 16 18 19 19
23 18 17 16 15 12 8 9 9 9 5 5 6 11 11 11 9 8 7 7 9 12 13 10 7 7 7 8 10 10 11 10 6 6 8 9 9 9 7 8 11 10 7 7 13 18 18 16 15 16 18 18 20 22
21 20 19 18 16 12 11 10 8 6 8 7 6 9 15 15 13 12 11 10 10 11 15 22 12 15 11 13 17 18 18 19 19 18 18 19 21 21 20 18 17 14 11 8 9 14 18 20 19 18 19 20 22 24
20 19 22 21 14 12 12 10 10 7 9 9 8 5 6 10 14 18 18 19 18 16 16 21 17 21 29 28 22 21 22 24 24 23 24 21 18 18 19 22 25 21 18 14 11 13 17 19 19 19 20 22 24 25
20 20 25 21 16 13 10 9 10 11 10 10 13 10 9 7 7 9 10 13 15 21 25 27 30 30 27 26 28 32 36 36 34 30 27 23 21 20 19 20 20 17 14 13 12 12 16 18 20 22 23 24 26 24
20 20 25 23 18 15 11 9 10 9 10 11 11 13 14 13 11 13 14 16 17 20 21 23 25 30 36 39 40 41 40 42 40 35 36 40 36 31 23 20 22 20 16 15 13 13 16 19 21 22 25 26 26 22
21 23 24 23 18 14 14 16 14 15 16 17 15 15 16 15 15 16 19 20 23 19 17 20 22 24 27 31 34 37 39 42 42 43 43 43 40 32 31 32 30 27 25 21 19 19 18 21 24 24 25 26 28 25
22 22 23 22 15 12 13 17 18 19 16 17 14 13 15 16 17 19 18 17 18 20 23 24 24 24 25 26 28 30 33 35 36 37 39 41 40 42 36 35 34 33 29 29 25 22 22 24 27 26 28 28 26 27
20 21 21 13 16 12 16 15 17 17 15 15 14 15 16 18 18 22 26 22 19 21 20 20 20 20 22 23 25 27 30 32 32 32 34 36 39 41 40 40 40 36 33 30 31 26 23 25 30 30 29 29 28 30
19 14 11 13 15 17 19 19 19 17 16 15 15 16 13 15 19 24 29 15 13 18 15 16 20 21 23 24 27 29 31 32 34 32 29 34 36 37 39 40 39 43 38 35 32 29 26 27 33 33 32 30 33 31
16 13 11 12 17 16 15 13 13 15 15 15 12 13 14 15 18 14 20 12 10 19 24 23 24 25 26 30 32 32 33 34 34 33 30 32 33 35 35 38 37 35 42 38 35 32 29 28 33 38 34 38 36 30
15 10 18 22 17 15 16 15 12 12 11 11 17 17 15 8 8 8 8 17 26 28 27 26 28 29 31 34 33 34 36 38 38 35 34 33 32 32 33 35 37 34 35 38 39 35 32 31 33 39 41 40 37 32
17 17 21 16 18 18 17 18 16 15 17 20 21 18 10 6 14 23 24 26 29 28 26 28 31 33 34 34 37 37 34 34 35 35 33 32 31 30 30 33 36 35 32 33 38 37 33 31 35 38 41 40 37 34
25 22 19 19 19 19 21 22 21 22 21 20 20 21 23 23 20 22 24 26 26 25 27 30 33 34 36 37 36 36 35 33 31 29 28 29 29 27 29 31 33 36 33 31 36 37 34 32 34 35 39 37 37 36
24 20 20 19 19 21 20 18 17 16 18 19 21 22 22 19 19 21 23 24 24 26 29 30 32 34 34 34 33 32 32 32 28 25 25 28 28 25 28 28 31 32 29 30 30 36 37 34 34 37 39 41 40 35
26 26 24 22 20 18 18 18 19 21 22 21 21 21 21 21 19 18 21 25 24 25 25 28 29 31 32 32 32 30 25 26 25 22 24 26 25 24 25 25 27 27 26 25 28 35 37 34 38 42 42 37 30 26
23 23 21 20 19 16 17 19 20 21 20 19 18 19 20 21 20 24 24 21 20 22 24 23 24 26 30 30 28 24 21 20 20 21 22 21 22 22 23 23 24 26 26 25 26 30 35 40 38 36 32 30 31 29
20 19 19 19 18 17 15 16 16 17 16 15 16 16 17 17 20 23 17 15 17 18 18 18 21 24 26 27 25 21 17 14 15 16 16 16 19 21 21 22 22 25 26 26 28 35 35 34 34 34 34 32 28 25

GFSWCAN_700_spd_018.txt.gz
Wind_Speed
24 20 20 18 17 17 18 20 22 23 24 25 25 26 26 28 25 22 26 24 22 23 19 22 22 18 17 16 7 4 3 3 3 5 4 4 3 3 5 6 4 6 8 7 10 6 8 8 15 10 15 15 15 8
27 22 18 18 19 18 17 21 22 24 26 28 30 28 28 26 29 26 31 30 29 25 19 23 26 26 21 18 15 12 6 3 3 3 5 4 4 5 7 4 13 8 10 5 9 6 7 16 18 17 15 17 12 6
26 26 21 16 18 17 18 21 23 24 28 31 33 31 30 26 26 25 21 31 26 25 20 20 21 23 23 23 21 15 11 9 8 9 8 6 6 8 8 9 13 10 12 18 13 5 8 13 14 12 11 14 9 7
29 28 25 19 17 17 19 22 23 25 29 33 35 34 30 22 21 21 19 21 30 23 21 11 16 20 21 23 23 19 14 10 10 9 10 10 10 10 11 14 17 15 13 8 14 8 6 8 15 11 10 10 5 6
24 25 25 22 18 19 19 21 23 26 30 35 38 36 30 24 24 24 23 19 28 27 11 12 12 21 22 23 18 17 14 14 10 11 13 14 13 18 21 21 26 20 24 19 12 9 11 14 13 9 7 8 4 5
22 23 23 22 19 19 21 21 25 28 32 37 38 34 32 27 24 25 22 17 28 26 11 12 11 14 18 21 15 13 13 12 13 14 15 18 18 18 14 19 23 11 12 17 18 21 15 14 11 8 6 5 4 3
24 22 20 20 19 18 20 20 24 29 34 38 35 33 25 17 15 17 12 9 27 21 10 10 10 15 18 18 16 13 14 13 14 14 19 19 18 20 27 32 23 14 17 19 22 22 20 17 13 9 7 5 4 3
20 20 16 17 18 18 19 19 22 28 34 34 31 26 18 10 5 6 15 12 19 19 11 7 7 10 15 15 13 12 12 11 13 14 16 17 18 21 20 12 8 7 18 21 21 20 21 19 15 13 9 9 6 4
20 19 15 18 17 15 18 17 21 26 31 30 24 17 13 6 6 14 13 17 16 8 7 7 7 9 13 11 10 7 7 5 7 11 13 11 15 12 13 11 10 8 9 13 17 19 23 22 18 16 12 14 10 8
17 16 17 19 17 15 15 16 18 23 25 23 14 8 8 15 18 19 12 11 12 8 10 14 9 6 13 9 8 5 4 6 5 6 8 8 6 8 11 12 13 15 14 10 10 11 17 19 16 17 14 14 15 11
14 15 17 18 17 13 11 12 15 18 16 12 14 17 25 17 12 8 6 5 4 5 7 9 10 10 11 10 9 6 3 3 3 2 4 4 3 6 13 16 16 12 15 13 8 6 8 11 16 18 15 12 13 13
13 14 17 18 16 14 11 11 11 13 7 5 11 16 4 3 4 4 5 6 4 5 8 13 13 11 9 9 4 3 3 4 4 4 4 3 3 11 15 14 14 10 12 15 10 8 7 8 14 13 14 13 17 14
13 16 17 17 16 14 11 11 9 9 4 9 3 1 3 2 2 5 6 6 5 10 10 13 14 15 12 8 4 3 4 4 4 5 3 1 8 12 14 12 8 7 7 8 9 11 13 22 20 19 15 17 19 13
13 17 17 16 15 12 11 11 9 7 5 11 7 5 3 3 4 5 9 11 10 13 11 8 10 10 10 8 6 4 5 4 3 3 2 4 6 9 14 13 7 1 7 4 5 7 5 13 9 16 14 13 8 7
16 17 16 17 15 15 12 13 11 8 7 9 7 6 7 5 4 5 9 12 12 10 8 12 12 8 9 4 4 5 4 4 4 2 3 4 4 6 12 16 13 3 2 7 5 5 5 4 7 6 4 9 9 10
19 19 17 18 16 16 12 14 13 11 9 9 9 7 7 8 6 5 7 11 11 12 9 11 9 6 8 6 7 7 4 4 4 3 4 4 6 7 10 12 15 13 4 7 6 7 8 7 8 8 9 10 14 15
22 22 17 18 17 18 13 14 14 14 6 7 7 12 10 11 10 7 6 4 8 13 13 9 7 8 7 7 8 7 8 6 5 7 9 12 12 13 14 15 15 15 14 9 8 14 15 14 13 12 12 14 15 16
25 20 17 19 18 20 14 14 12 9 9 11 10 8 13 15 14 13 10 9 8 9 16 17 11 12 7 9 15 15 15 18 17 17 19 18 17 17 17 16 18 20 20 19 16 13 12 15 16 15 14 16 18 20
22 21 18 19 20 22 18 17 15 12 15 12 11 9 9 14 17 17 15 15 14 14 14 19 14 18 24 26 19 18 20 23 24 23 23 25 24 25 24 19 17 16 16 18 20 19 16 15 14 16 16 17 19 21
22 19 18 19 20 23 18 13 13 12 14 12 13 13 11 8 9 11 12 14 17 20 24 27 28 27 26 23 24 26 29 32 35 35 32 32 32 30 28 25 21 19 19 17 15 16 17 16 15 17 18 19 20 23
22 21 19 20 22 26 24 11 13 11 13 17 14 13 15 13 13 14 12 14 15 16 17 20 22 25 30 33 35 36 37 39 41 43 44 41 38 39 39 39 36 26 23 20 19 16 15 15 16 17 17 21 24 25
22 20 18 24 23 24 25 21 16 17 15 15 12 13 16 18 18 18 18 18 20 18 18 17 20 22 24 26 29 32 33 35 36 37 38 40 41 42 43 42 39 36 37 33 26 25 21 20 19 18 19 21 23 27
22 22 24 25 22 16 16 21 22 22 17 18 19 17 21 22 21 20 21 20 16 16 21 22 22 23 25 26 26 28 29 30 30 31 31 32 32 33 34 37 41 41 36 34 37 32 28 25 23 22 23 26 26 28
24 23 25 15 15 15 18 18 20 22 22 22 21 18 16 17 17 19 24 23 17 20 22 21 19 21 22 22 23 24 26 28 29 28 30 31 32 31 32 31 33 35 38 36 36 35 32 30 26 25 26 28 30 25
25 20 14 15 15 18 20 20 19 17 18 17 17 16 12 13 15 21 25 22 15 14 15 14 15 21 24 25 25 25 27 29 30 30 29 33 34 33 33 33 30 32 33 35 37 36 37 34 30 29 30 30 28 27
25 17 11 12 19 17 17 17 19 20 21 19 13 15 16 14 15 11 20 18 14 10 15 21 24 24 22 22 22 24 28 33 34 34 32 35 35 36 35 34 33 28 30 33 32 38 35 37 35 32 33 32 33 30
20 12 21 21 18 17 19 19 17 14 12 11 14 15 12 8 8 10 6 13 17 22 23 24 24 22 21 22 25 29 33 36 38 37 36 34 33 33 33 33 34 28 29 31 34 34 34 33 36 35 34 34 38 34
24 24 19 14 22 21 16 14 15 15 15 15 17 14 8 7 7 12 21 24 23 23 23 24 25 26 26 27 30 34 37 38 38 38 38 36 34 33 31 32 31 29 28 31 32 34 32 31 33 35 34 35 37 38
28 22 20 20 19 17 19 20 22 22 20 20 21 19 21 21 20 22 24 24 22 22 23 26 26 28 27 30 34 35 37 38 39 39 37 34 30 29 31 30 27 27 27 28 30 32 31 30 32 35 36 34 36 34
28 26 25 22 19 18 20 20 19 16 16 17 19 21 22 22 21 23 23 22 22 24 28 29 26 26 29 31 31 32 35 37 38 39 36 30 26 26 26 24 24 24 25 25 26 28 29 28 33 34 34 35 37 38
30 28 24 21 21 20 18 17 18 19 20 21 21 23 23 23 19 18 18 20 23 28 27 23 23 26 27 28 31 34 34 34 36 35 31 25 22 21 21 21 22 22 21 23 23 27 26 26 29 29 34 39 39 40
26 25 24 25 24 20 18 18 18 21 21 20 20 21 21 21 19 16 13 19 22 19 18 19 21 22 25 29 33 36 37 35 31 28 25 20 18 19 20 20 19 19 20 20 22 22 21 24 27 32 39 40 37 32
28 24 21 21 20 18 15 16 18 20 18 17 16 16 18 19 17 13 16 19 16 15 17 19 19 21 25 29 32 33 34 29 23 20 19 15 14 15 16 15 16 16 16 19 19 20 23 28 35 37 35 33 32 31

GFSWCAN_700_spd_021.txt.gz
Wind_Speed
43 36 29 21 16 17 20 18 16 17 17 16 19 21 20 21 22 27 24 18 23 27 20 24 23 20 21 17 12 7 8 10 8 9 7 7 6 5 5 7 5 9 10 9 12 7 9 2 14 13 20 18 19 19
31 30 22 22 19 17 17 18 19 19 18 19 21 25 25 26 25 25 27 24 22 30 22 31 31 26 21 22 16 12 8 7 7 8 8 6 6 6 6 4 7 9 11 6 10 5 3 11 16 17 19 16 16 14
29 21 20 21 21 23 20 15 21 21 20 22 25 28 29 33 32 26 21 22 20 23 29 32 33 31 27 24 22 16 15 10 8 9 8 9 5 5 5 7 12 13 14 18 14 9 2 10 14 13 18 13 14 7
24 18 18 20 22 22 20 15 20 21 23 25 29 31 33 34 31 28 22 21 17 18 23 17 29 32 34 27 24 22 19 13 11 9 10 10 7 9 10 10 17 17 16 14 19 17 15 8 11 18 13 10 10 6
17 14 16 18 21 21 20 17 19 22 24 27 31 34 34 33 30 25 22 20 18 15 13 27 26 24 25 26 28 24 22 16 13 11 12 12 13 14 17 20 20 10 15 24 25 12 10 11 13 14 11 9 7 6
13 14 14 16 17 18 17 18 18 23 25 28 32 33 32 29 17 18 18 15 17 20 25 9 19 24 24 25 25 24 21 16 15 13 14 14 14 12 11 17 24 17 7 9 19 22 24 21 17 14 12 9 6 4
10 10 13 16 19 16 16 17 16 22 26 30 32 30 25 21 10 12 12 3 5 8 20 8 16 22 22 23 24 20 16 16 14 14 16 16 15 14 21 25 15 10 17 15 19 21 22 20 19 15 12 9 6 6
10 9 10 16 15 14 15 15 17 21 25 30 29 22 17 12 6 0 5 11 10 15 13 1 14 21 22 22 22 19 16 15 14 14 14 11 11 10 8 12 7 6 9 17 21 24 23 20 19 17 14 11 10 7
8 8 11 14 13 14 15 15 16 19 23 25 19 11 11 13 13 12 10 12 9 6 3 7 15 17 20 20 19 15 11 8 8 8 7 6 7 5 10 10 9 13 12 11 20 23 23 21 21 20 19 14 13 12
9 9 12 12 12 13 15 14 14 15 19 14 9 15 14 18 21 18 11 5 3 2 4 10 10 12 21 15 14 10 9 9 5 7 5 7 3 4 6 9 15 13 13 14 14 11 11 12 16 18 16 15 16 14
11 12 15 14 14 14 13 10 10 12 13 3 10 11 11 12 12 9 4 2 2 3 9 12 8 18 18 14 16 9 6 6 5 5 7 5 7 10 11 17 16 15 12 9 13 10 8 8 10 16 17 15 15 13
12 14 15 13 14 14 12 10 9 9 9 6 9 3 8 2 1 2 5 4 4 3 11 13 12 13 15 14 7 8 5 6 4 7 5 4 5 8 13 16 13 7 11 16 14 13 6 5 4 9 14 17 15 14
13 14 16 15 15 14 14 11 9 8 8 9 12 7 5 4 4 5 5 6 6 10 11 14 13 13 12 8 4 5 4 4 3 4 3 4 3 8 12 12 9 3 14 6 14 13 12 9 13 14 19 18 15 18
13 15 16 15 15 15 14 13 9 9 9 7 12 7 6 5 6 6 9 9 8 11 11 12 13 11 11 9 5 3 5 4 4 4 5 3 1 4 11 15 12 1 13 5 4 1 4 3 14 7 18 19 17 16
11 15 16 15 16 16 14 15 10 10 9 7 6 7 10 9 6 7 8 10 9 11 10 10 11 8 10 6 6 6 4 4 5 5 5 3 1 3 7 11 16 12 4 10 3 3 3 7 8 10 9 9 10 10
11 17 15 16 17 17 16 16 16 10 12 9 10 9 9 10 8 5 5 9 11 11 11 14 10 5 8 5 6 7 4 5 7 9 3 2 2 6 10 12 13 13 13 9 9 4 5 7 4 5 4 2 5 10
15 17 16 19 19 18 17 18 20 12 6 7 9 12 16 13 10 9 6 9 13 15 14 10 8 8 6 6 8 7 8 6 10 9 7 6 9 11 13 13 14 14 13 12 10 8 10 13 12 9 7 8 8 12
19 16 17 21 20 18 18 15 19 9 10 13 14 12 11 13 14 13 9 8 10 17 20 16 10 12 7 7 13 13 11 11 12 14 15 15 15 16 15 15 14 14 14 13 13 14 12 11 10 14 15 14 14 14
19 19 20 20 19 18 18 16 19 11 13 13 13 12 13 10 13 15 14 12 10 10 16 22 12 17 22 24 20 19 18 19 19 19 20 22 24 25 24 24 23 23 19 17 17 17 16 13 12 12 14 16 16 17
21 22 21 20 21 18 17 13 16 17 19 17 17 14 13 12 10 13 17 19 19 20 21 23 25 23 22 21 22 22 21 23 26 29 31 31 32 32 33 34 34 32 28 23 19 17 16 15 14 14 14 15 16 17
30 27 24 21 21 19 18 15 14 13 18 19 18 15 15 15 16 13 13 14 17 19 18 17 17 20 23 25 28 29 30 31 32 34 36 36 37 39 39 40 40 39 37 35 31 27 21 19 17 15 14 15 17 19
32 27 23 21 21 21 23 22 18 20 21 17 14 12 13 14 15 18 19 22 25 20 17 18 20 22 23 24 24 24 25 27 28 29 31 32 32 32 33 34 34 34 35 37 38 36 33 30 25 21 19 18 19 20
33 26 23 24 21 19 18 19 20 25 24 19 19 20 19 20 21 21 23 25 23 17 14 18 21 21 20 21 22 23 23 23 23 23 24 24 25 26 26 25 27 28 30 30 34 35 35 34 31 28 26 23 24 24
32 27 27 15 16 17 19 18 20 21 25 25 24 21 17 18 20 20 22 21 16 16 19 21 24 24 20 20 20 22 25 26 27 27 28 28 27 27 30 29 29 28 28 27 30 31 34 35 34 31 30 29 27 28
32 23 18 20 19 19 22 23 22 22 22 20 18 15 12 13 15 20 23 19 17 20 21 19 18 16 17 21 23 26 27 26 25 23 23 30 32 32 32 33 32 31 32 30 29 30 30 34 34 31 30 30 30 27
31 21 13 14 19 22 22 21 22 25 24 20 12 12 15 18 19 11 18 16 15 13 10 11 16 19 19 21 20 22 23 24 26 25 24 31 34 37 34 31 27 25 31 34 32 30 30 31 33 31 29 29 31 29
26 18 26 27 18 17 22 22 23 19 16 13 15 16 15 8 9 12 11 11 10 14 18 18 19 19 19 21 22 23 25 26 28 30 32 33 32 34 35 34 30 28 30 31 31 31 30 29 31 29 31 29 30 31
38 36 27 16 21 23 21 20 20 19 14 14 16 12 7 7 9 10 10 18 23 24 23 21 21 22 24 25 24 24 25 28 32 34 33 32 33 35 36 35 32 31 30 30 31 31 30 29 30 31 28 30 30 32
38 30 26 26 22 20 26 25 19 16 15 14 15 15 18 20 18 21 23 23 24 24 24 24 24 25 28 27 23 24 28 31 33 33 34 34 33 33 38 34 31 29 29 30 29 29 28 27 28 32 30 29 31 32
37 31 27 24 25 26 22 18 17 17 18 20 21 21 21 19 20 22 23 25 24 24 25 24 25 29 26 21 22 25 29 32 35 38 38 37 37 35 33 31 27 24 25 25 24 26 25 27 28 32 30 29 30 32
32 28 25 26 28 26 21 19 18 18 19 20 21 21 21 22 20 21 23 22 22 23 22 25 26 22 20 23 25 24 27 33 36 38 40 38 34 29 26 23 20 18 18 20 21 22 23 24 24 25 27 26 29 33
24 23 26 28 26 22 19 18 18 20 20 20 20 20 20 21 21 17 13 17 18 18 21 21 20 21 22 24 25 28 31 34 37 40 39 35 27 21 19 17 16 16 17 18 18 19 20 21 22 23 23 27 34 42
29 28 26 22 21 22 21 18 18 20 20 19 18 18 19 19 18 16 14 15 16 18 19 18 18 20 21 21 24 28 31 34 36 36 32 24 17 14 13 13 13 15 16 16 17 18 18 19 21 22 25 33 38 36

GFSWCAN_700_spd_024.txt.gz
Wind_Speed
27 32 34 30 27 20 22 19 13 16 16 16 17 18 19 21 23 21 26 29 25 26 19 28 30 26 24 20 17 13 15 16 14 12 11 7 7 10 7 9 8 13 11 10 13 7 10 5 6 10 15 18 19 17
30 29 24 26 21 18 18 19 18 15 16 18 20 21 22 21 24 28 29 31 34 35 25 27 37 35 30 28 25 18 15 9 13 11 10 9 8 9 10 6 13 10 11 5 10 4 6 11 18 14 17 20 17 16
19 18 22 19 15 12 16 19 21 16 16 20 22 25 27 28 30 33 32 30 33 37 36 33 32 35 35 34 28 26 19 13 12 11 8 9 7 9 9 12 12 13 15 18 15 11 10 9 12 15 15 19 14 13
17 19 17 12 13 14 17 19 19 19 18 20 22 26 30 34 35 33 31 25 26 30 34 27 24 49 42 33 31 27 21 20 13 11 11 10 8 8 10 11 13 13 16 17 22 24 20 17 14 10 13 13 13 10
18 17 14 12 12 15 18 19 19 20 20 21 24 28 33 35 32 30 23 15 15 22 21 20 24 45 42 35 29 28 26 18 18 12 11 9 11 12 13 17 15 4 8 13 22 23 23 19 17 11 12 12 12 10
16 16 12 13 13 15 17 19 17 19 18 22 26 32 34 30 26 20 15 11 12 15 21 21 19 33 33 38 30 28 25 22 17 13 11 14 14 10 10 11 17 12 13 16 22 20 27 26 21 16 15 12 11 9
16 13 10 11 12 15 17 13 14 15 17 21 27 30 26 19 13 11 6 3 7 5 9 7 4 28 33 37 33 28 26 21 18 17 17 16 13 13 20 23 13 9 11 13 24 21 22 21 21 21 19 14 11 9
13 10 10 11 14 16 14 13 12 12 17 21 23 15 9 12 10 7 7 5 3 3 5 7 1 31 27 30 29 27 24 19 18 16 15 13 13 11 10 6 13 15 13 8 10 21 20 21 20 20 18 16 13 13
10 10 10 12 14 13 11 12 10 11 15 17 9 3 7 11 16 18 15 9 4 2 5 6 8 24 24 24 23 24 21 21 15 15 14 10 11 10 9 7 6 8 12 12 14 21 19 20 22 22 23 19 18 17
8 8 11 12 12 12 10 9 8 9 12 9 1 1 5 8 11 14 10 4 6 8 8 11 11 19 22 26 22 20 17 12 8 9 8 13 15 16 15 14 15 15 14 17 15 15 20 20 18 19 19 20 19 18
8 10 11 13 13 10 9 7 6 8 10 6 6 3 0 8 4 4 2 3 4 5 7 10 7 21 18 22 21 10 11 7 5 7 8 6 7 15 14 15 20 19 13 12 11 11 14 12 11 11 13 17 17 17
9 12 11 13 13 12 11 8 7 9 8 8 12 7 8 8 4 3 1 2 2 1 8 9 14 14 15 12 13 7 6 7 4 8 6 5 10 7 7 12 15 13 10 12 20 14 14 12 10 7 5 11 17 18
10 12 12 13 13 12 11 8 8 11 10 10 12 9 7 5 5 3 3 3 3 3 12 12 12 14 14 10 5 7 5 5 5 6 5 7 6 2 4 10 12 5 10 19 12 13 15 13 13 16 19 15 20 22
12 11 12 13 12 12 12 9 9 13 9 9 6 7 6 6 6 7 10 7 7 6 8 12 12 9 9 8 4 3 6 5 5 6 7 11 6 4 2 9 14 9 9 17 2 5 9 9 7 13 16 20 22 23
12 12 11 11 13 13 13 11 10 13 12 8 6 6 12 13 9 8 10 10 9 9 9 7 13 11 8 5 5 6 5 6 7 8 11 10 8 6 2 6 8 9 10 13 15 1 3 5 8 11 2 11 18 21
12 16 9 11 13 14 15 14 13 13 17 11 9 9 8 9 10 10 8 8 13 13 13 12 10 6 8 6 6 7 5 6 7 12 11 9 7 4 2 5 7 8 8 9 10 5 6 11 12 8 4 7 5 11
15 15 11 13 15 15 17 16 15 15 14 11 11 11 13 16 16 10 8 11 15 14 14 11 8 8 6 6 8 8 10 5 8 13 11 10 7 6 8 8 8 8 9 10 9 8 7 7 7 11 10 6 3 8
15 13 13 13 17 18 19 17 16 12 14 20 20 14 12 14 11 13 10 10 15 20 19 14 12 13 7 7 12 13 10 9 9 11 12 13 14 15 15 15 16 17 16 15 15 14 12 10 9 9 12 14 13 12
16 13 14 16 18 19 19 21 15 14 17 18 20 20 12 12 12 14 17 15 13 14 25 23 12 18 23 21 14 16 14 12 12 15 18 19 21 22 24 25 27 28 27 25 22 19 17 15 13 13 13 15 17 17
15 18 15 21 20 20 18 13 17 16 13 15 20 20 19 16 14 14 17 19 19 19 20 25 27 23 17 15 16 18 20 20 20 22 24 27 28 30 32 33 33 32 33 33 32 29 25 22 19 16 15 16 17 19
17 16 27 25 25 22 21 16 16 13 15 15 17 16 19 18 14 16 16 18 23 28 27 25 22 23 24 25 26 26 26 26 26 26 27 29 31 32 33 33 33 33 32 32 33 33 33 31 28 25 20 18 19 20
21 20 21 29 28 24 25 25 22 22 21 23 21 18 20 21 20 18 20 22 22 19 18 16 16 18 20 22 22 23 24 25 26 26 26 26 27 27 27 27 26 25 26 27 29 28 29 31 33 32 29 25 21 22
23 26 25 34 28 22 22 23 20 21 21 24 22 19 21 21 19 17 20 22 21 18 18 19 21 20 20 21 19 20 23 23 22 22 23 24 25 26 25 24 24 23 22 24 27 27 28 29 31 33 33 31 29 28
27 26 36 30 22 21 25 20 20 20 22 23 24 23 22 20 20 23 28 26 18 11 13 17 19 19 20 23 23 20 20 21 22 24 26 25 23 22 23 23 24 26 28 26 25 26 28 29 29 30 33 32 31 29
23 29 33 21 27 28 29 28 25 24 26 24 22 19 16 15 15 21 23 19 17 14 15 17 18 20 19 18 18 21 24 24 24 22 23 27 26 24 24 27 29 31 32 31 30 28 27 28 29 28 30 34 32 30
32 28 19 25 32 32 30 27 29 27 26 26 18 15 14 16 17 11 14 13 14 13 13 12 12 12 16 20 21 22 23 25 26 26 24 28 29 31 32 33 30 25 31 34 31 28 27 27 28 29 28 29 33 31
31 18 31 39 32 23 20 22 24 23 21 19 20 19 16 9 8 11 10 11 10 8 7 11 16 18 18 19 21 22 24 26 28 28 27 27 28 31 33 34 30 27 29 31 33 33 30 28 28 28 29 29 31 33
30 37 42 36 31 29 27 25 24 23 22 22 19 12 6 8 7 7 9 9 11 16 19 21 21 20 19 19 21 23 28 30 29 26 25 25 25 28 33 35 33 33 32 32 32 33 33 31 30 28 29 29 29 33
33 38 42 40 31 23 21 23 26 27 21 16 15 17 18 17 16 17 18 19 22 24 24 25 23 22 21 21 23 28 29 28 27 28 27 26 28 31 37 39 38 37 38 36 34 32 32 31 30 28 29 30 30 31
46 39 34 38 38 35 32 29 26 22 20 24 20 18 19 20 21 21 20 21 23 25 26 25 23 22 22 25 27 26 26 28 29 30 31 32 35 37 39 41 41 39 36 32 30 30 30 28 28 29 29 29 29 31
36 37 41 38 33 31 26 24 23 19 18 19 18 19 20 22 20 21 22 23 25 25 22 21 21 22 25 26 24 24 25 28 30 32 35 37 39 40 42 41 38 33 27 25 23 22 23 24 24 23 24 24 25 28
37 37 35 37 32 27 26 26 24 24 23 22 21 20 20 21 21 20 16 19 19 18 18 19 21 23 23 23 23 25 25 26 29 32 36 38 40 40 33 27 23 20 18 17 17 17 18 18 19 19 21 23 25 24
26 27 25 23 24 24 23 22 20 21 21 22 22 20 20 21 21 20 15 15 15 15 16 18 21 21 19 20 22 24 25 28 31 34 36 37 34 25 19 15 13 12 13 14 15 16 16 15 17 18 20 22 23 23

GFSWCAN_700_spd_027.txt.gz
Wind_Speed
30 28 25 26 26 22 22 18 15 18 21 16 14 18 20 21 24 23 23 27 29 32 22 21 26 33 32 28 24 17 17 22 17 15 12 9 9 12 9 9 9 12 12 11 12 7 10 4 6 5 12 13 15 17
22 19 19 20 20 20 15 13 14 16 19 20 17 17 20 23 26 28 28 32 35 38 36 31 26 32 38 29 29 24 21 10 16 12 14 10 10 9 13 7 16 12 13 7 11 5 6 6 10 11 14 14 17 14
15 15 18 20 21 15 11 11 12 14 18 20 16 15 20 24 28 33 33 35 40 44 47 44 35 32 42 42 30 33 25 17 14 17 11 11 7 10 11 16 13 14 13 17 16 14 16 18 10 13 12 12 14 13
14 17 19 20 18 13 12 13 15 17 19 21 21 19 22 28 31 35 37 33 33 33 43 41 34 26 42 48 46 33 21 24 17 17 14 11 10 9 10 12 13 14 15 17 23 24 21 21 19 19 15 15 13 11
15 18 19 20 17 14 13 15 16 17 18 19 19 20 27 31 34 33 29 24 22 22 32 36 24 19 34 52 47 32 33 23 21 18 12 10 11 11 13 16 17 16 17 20 21 20 24 23 18 16 17 15 13 12
18 18 19 19 15 15 16 17 18 17 15 17 18 23 28 29 24 20 12 8 10 15 24 29 11 12 25 44 47 34 31 22 23 19 16 12 10 12 9 11 10 13 18 21 24 26 24 23 24 24 22 21 17 14
16 17 18 17 15 16 16 17 15 11 15 15 20 23 19 16 11 6 5 4 6 8 12 18 13 6 25 43 31 33 24 21 18 17 14 13 13 15 17 22 15 18 15 14 16 20 18 20 19 20 22 22 18 15
15 15 15 15 16 17 18 15 11 11 14 16 19 14 11 12 6 1 5 4 7 10 13 12 12 13 20 26 27 28 27 24 19 17 19 15 15 14 15 15 13 13 15 14 15 19 17 16 18 18 18 19 17 16
15 14 13 13 14 15 15 13 10 10 11 14 14 8 9 8 6 3 5 7 10 8 9 7 5 14 22 30 30 26 21 23 21 17 19 13 15 11 14 15 14 10 9 10 12 16 18 20 19 19 20 19 19 20
16 12 11 11 11 12 10 11 9 9 10 12 10 5 5 6 12 10 6 7 9 12 13 21 15 14 29 25 25 21 17 20 8 19 12 18 21 19 20 21 17 16 17 19 15 14 19 21 22 24 21 19 19 20
13 9 11 11 11 12 10 10 8 9 10 11 8 6 6 10 15 9 5 6 6 6 8 11 11 14 20 23 20 20 12 7 6 7 12 8 12 17 20 18 16 20 20 16 11 11 13 14 14 12 13 17 19 19
10 11 12 12 12 12 12 11 8 9 10 11 11 10 11 10 6 5 4 2 3 3 3 3 9 14 13 21 12 9 8 8 5 9 8 6 15 13 8 8 13 14 8 9 16 22 22 16 14 12 10 9 9 15
13 16 14 11 10 11 12 12 9 9 10 11 11 5 5 6 6 4 3 3 2 2 3 3 4 15 8 6 5 5 6 5 4 8 6 13 10 10 5 2 8 7 6 16 24 12 7 14 14 13 12 18 19 17
15 14 14 10 9 10 10 11 9 10 12 9 6 6 6 5 6 6 6 7 7 6 7 10 4 3 7 6 3 3 5 5 5 7 9 10 14 12 8 2 4 8 11 15 23 8 5 6 8 12 16 22 28 24
14 13 13 10 11 10 10 12 11 10 11 10 6 6 9 12 12 10 8 9 10 8 9 10 12 8 6 4 4 4 4 5 7 8 8 15 14 12 7 2 4 4 5 8 15 16 12 9 11 15 14 13 10 18
19 16 9 11 10 10 12 13 13 13 13 12 11 9 10 12 13 14 12 10 12 11 10 9 7 5 8 5 6 6 5 6 5 6 12 14 12 10 7 3 2 3 6 6 8 9 6 9 9 13 15 17 8 7
23 17 11 14 14 13 14 15 17 15 7 7 10 13 22 16 12 14 14 7 11 14 16 10 7 8 6 6 7 8 13 8 6 8 15 13 12 10 8 6 7 7 8 9 10 10 11 11 11 9 7 12 11 8
19 15 11 13 14 15 16 17 18 14 14 17 17 19 21 20 13 13 12 11 15 17 20 17 14 13 8 8 10 12 10 10 9 12 15 14 13 12 13 14 16 16 16 17 17 18 18 16 13 12 11 12 10 8
18 17 18 15 12 17 18 21 17 16 21 19 17 20 18 17 16 12 12 15 17 21 23 25 14 21 26 23 17 16 16 14 10 8 12 15 17 20 21 23 24 25 26 26 26 25 23 21 19 18 16 14 15 17
23 24 21 19 16 15 20 19 22 20 17 17 16 19 20 18 19 17 14 16 21 22 25 30 34 24 11 12 14 15 16 18 18 18 20 22 24 26 28 29 30 31 32 34 34 32 29 28 27 24 21 19 18 18
24 22 24 24 18 21 24 24 21 16 18 21 21 21 23 19 17 18 15 17 21 28 30 30 26 22 22 23 24 26 26 26 26 25 25 25 26 26 27 27 28 28 28 28 28 29 29 28 26 26 26 25 24 21
23 19 20 22 17 25 29 30 29 29 27 28 25 22 23 23 20 16 20 25 25 23 20 14 14 19 20 20 20 18 21 22 23 22 22 22 23 24 26 26 26 26 27 28 28 26 26 27 26 26 25 27 27 27
23 21 20 19 22 26 29 29 27 26 24 27 27 24 21 24 22 20 22 23 25 18 14 16 20 22 24 25 22 20 21 21 21 23 24 24 24 24 25 26 27 27 25 25 27 27 26 26 27 26 25 26 27 30
22 21 19 15 20 25 30 28 29 28 27 26 26 27 26 25 25 27 28 24 17 21 19 18 22 22 23 23 21 23 24 23 20 19 21 22 23 23 23 23 24 25 26 24 25 26 25 26 27 26 26 26 26 28
18 15 11 18 23 30 36 39 37 33 31 29 29 28 28 29 26 28 27 18 13 13 14 17 20 18 19 21 22 22 19 18 20 19 21 22 23 23 23 25 25 27 31 32 31 29 27 25 25 25 25 27 27 27
17 13 16 16 27 32 34 31 32 31 30 29 28 27 27 24 22 14 18 9 8 9 12 13 15 15 15 15 16 19 20 21 21 20 20 24 27 29 28 28 27 24 31 34 33 31 29 27 26 27 26 26 28 29
25 22 20 28 33 36 32 31 30 29 23 21 24 24 20 11 10 12 11 6 10 9 6 6 6 9 13 16 17 19 20 21 22 23 25 27 29 29 29 30 29 29 29 30 31 32 32 31 30 30 29 28 27 28
37 37 37 36 30 31 34 31 26 25 26 24 24 24 11 7 7 6 6 7 7 8 10 15 17 17 17 18 18 19 20 21 24 27 28 27 25 27 30 32 32 32 32 32 32 33 35 36 34 33 31 30 30 29
42 41 38 38 33 34 37 37 32 30 25 23 26 27 29 26 21 16 14 14 15 19 21 22 21 20 20 20 19 20 21 24 27 28 27 24 25 28 32 34 36 37 38 38 39 39 38 39 37 35 34 32 31 30
45 42 41 40 38 39 38 35 33 30 28 34 32 28 24 22 18 18 20 21 22 23 23 24 23 23 22 21 21 22 25 27 27 28 28 28 28 28 31 34 38 41 43 44 43 43 41 39 36 34 33 31 30 28
38 39 37 36 39 33 29 29 31 35 33 28 26 24 20 18 18 20 23 24 24 25 26 25 23 22 21 21 22 25 27 26 27 29 31 30 30 33 36 39 41 43 43 39 34 30 28 28 26 24 24 24 25 26
30 32 36 37 35 31 29 28 29 31 34 31 29 28 25 24 24 21 16 19 22 22 20 18 18 18 20 21 24 24 24 25 28 29 30 32 34 37 39 40 40 36 30 24 19 17 17 16 15 15 17 20 22 23
26 29 27 31 31 30 30 31 33 31 29 27 25 23 22 24 25 23 19 18 20 19 16 15 15 17 19 21 21 22 23 24 26 28 31 33 36 37 37 34 27 22 17 14 12 11 11 11 11 13 15 16 17 19

GFSWCAN_700_spd_030.txt.gz
Wind_Speed
22 23 20 18 19 21 21 24 22 17 11 11 17 21 22 25 19 17 18 21 23 25 22 24 23 21 25 29 26 20 18 21 18 17 13 11 11 12 10 10 9 12 12 11 11 7 10 5 9 5 4 9 11 12
20 16 15 16 20 22 24 19 15 12 11 12 15 18 21 21 18 22 22 25 32 35 32 34 33 27 26 31 30 29 23 13 19 14 16 10 11 9 13 7 17 11 12 7 10 5 5 7 8 7 7 10 10 14
16 14 18 15 22 22 21 16 12 12 14 16 17 19 20 21 20 22 26 29 34 41 45 37 27 29 41 37 39 37 32 24 18 22 15 15 9 11 11 16 14 16 14 20 14 13 14 14 17 14 13 12 11 15
18 15 17 20 22 21 18 15 14 16 19 19 18 18 21 21 21 28 31 31 29 31 32 12 16 22 28 35 47 48 33 32 22 19 20 18 14 11 11 14 13 16 16 18 23 22 21 21 19 19 18 18 15 14
19 17 18 19 21 21 19 17 17 18 19 20 18 21 18 22 27 30 26 20 18 17 25 22 18 15 28 33 45 49 41 29 33 22 22 21 19 14 14 16 19 15 18 20 25 24 24 22 22 24 22 19 18 16
19 19 20 21 21 22 19 18 18 18 16 16 19 18 22 26 23 20 9 6 8 12 21 29 21 11 19 17 29 46 41 37 26 24 23 19 15 11 9 13 12 12 13 13 20 24 27 25 22 22 25 26 21 19
19 19 19 21 22 20 19 18 19 18 18 16 16 19 20 15 15 8 6 10 13 14 19 19 12 10 10 16 23 40 45 37 26 21 28 20 14 13 18 23 17 16 19 19 19 19 15 11 14 16 19 20 22 20
22 22 20 19 19 18 18 19 17 15 17 17 14 17 11 12 10 9 11 12 16 15 11 12 16 10 7 10 23 39 37 35 20 16 20 17 14 14 14 17 14 14 14 16 18 18 16 15 16 14 17 17 18 17
22 22 20 17 16 15 16 17 16 16 16 16 14 13 7 5 11 13 14 14 13 10 8 12 13 6 5 18 25 21 21 27 11 16 15 13 16 13 9 12 13 14 13 10 12 17 22 21 19 17 18 18 20 19
20 21 18 14 13 13 15 14 15 15 16 11 13 9 7 6 11 16 12 8 10 11 12 17 11 5 3 8 15 10 18 11 5 12 7 18 25 22 20 21 20 21 17 16 18 17 19 19 19 19 20 21 18 19
15 17 13 13 12 12 13 14 15 14 14 11 11 9 9 11 14 8 3 4 7 6 8 10 11 4 6 10 14 8 7 6 4 6 13 7 20 19 18 20 21 17 14 18 15 11 14 16 15 16 16 18 19 19
11 11 15 16 14 12 13 13 14 14 15 12 11 13 9 8 5 3 2 1 2 4 7 4 3 1 12 9 6 11 6 7 3 7 7 8 19 13 10 8 3 8 13 8 15 19 21 19 22 18 15 14 13 14
11 13 15 15 15 13 12 13 15 13 14 15 10 7 4 5 5 3 0 1 2 3 5 3 4 8 9 18 6 6 6 5 4 7 5 13 14 13 10 5 1 3 2 8 22 14 10 9 8 13 12 12 14 17
17 12 13 12 12 12 13 13 14 15 13 12 6 5 4 4 4 4 5 6 8 7 8 9 7 2 4 7 4 3 5 5 4 6 8 8 9 13 12 7 2 1 4 8 17 20 12 3 3 5 1 9 15 22
18 18 13 9 10 10 11 12 14 15 14 10 6 4 6 6 10 12 11 12 13 12 11 9 10 6 3 3 4 5 4 5 6 7 9 8 11 15 11 6 3 2 3 4 6 11 10 17 16 14 15 15 18 17
20 21 14 11 12 10 11 13 15 16 16 7 6 8 10 13 12 13 14 15 11 11 10 9 6 4 5 4 5 5 4 5 3 7 7 10 15 13 11 8 5 4 1 3 6 9 11 12 11 9 8 15 22 21
16 19 20 17 14 14 13 15 18 18 7 8 14 15 17 17 19 21 17 15 12 11 12 7 6 7 5 6 7 7 8 9 10 10 6 15 13 13 12 11 9 8 8 9 10 13 14 15 14 14 14 10 8 10
15 16 19 18 15 16 14 14 16 13 15 20 18 15 17 18 19 21 18 14 12 14 16 16 9 12 7 7 10 8 7 8 8 7 8 14 13 13 13 12 12 14 16 18 20 20 21 20 19 17 16 15 13 12
16 17 17 19 19 18 17 21 12 16 21 17 17 16 18 20 18 18 20 17 13 18 20 22 13 19 24 20 12 13 14 16 16 8 3 8 11 14 16 19 21 23 24 25 26 27 28 28 26 24 22 20 18 16
15 15 17 18 21 19 19 15 19 21 20 19 19 22 22 22 23 19 16 22 20 19 25 29 30 26 8 11 13 13 13 12 12 12 14 16 19 21 24 26 28 29 29 28 28 27 27 26 25 23 23 23 23 22
15 16 19 18 21 20 21 24 26 17 18 26 26 28 24 23 22 22 17 17 27 29 26 23 25 26 24 26 28 29 28 26 25 24 23 22 22 23 24 24 25 25 26 26 25 25 25 24 23 22 22 22 22 24
15 13 12 14 17 20 24 28 30 32 29 30 27 24 26 25 25 24 27 23 25 29 28 19 16 17 22 23 25 28 27 25 22 22 22 20 20 21 23 23 24 25 25 25 25 24 24 23 23 24 23 23 23 23
18 14 14 15 13 19 24 28 30 30 25 29 29 29 27 31 31 32 26 25 21 14 16 24 18 19 19 20 21 22 22 22 21 21 21 22 23 21 21 22 23 24 25 26 26 25 25 24 24 24 24 24 24 24
16 16 15 11 15 15 23 27 31 31 29 27 32 33 31 32 34 35 36 24 15 15 16 17 19 18 19 21 23 24 24 26 24 23 23 22 21 22 23 24 24 24 24 24 25 25 24 24 25 25 24 24 24 25
17 16 12 15 17 18 23 27 31 34 34 32 31 29 31 31 30 34 32 16 13 12 15 17 20 25 23 20 19 19 21 21 22 24 23 22 23 22 22 24 24 26 26 25 25 24 25 24 24 23 23 22 23 25
16 12 17 23 26 27 27 28 31 28 25 23 23 24 29 27 28 20 22 14 11 8 7 9 14 16 19 19 19 18 20 20 20 21 22 23 22 23 23 24 24 23 28 27 27 27 26 27 26 26 25 25 25 25
24 22 23 28 29 29 28 29 30 29 26 24 26 26 22 12 10 12 13 10 8 8 7 5 6 7 7 8 12 15 18 20 20 19 21 22 23 25 28 28 26 24 25 27 29 29 28 28 29 29 29 28 28 29
34 34 34 34 34 33 30 31 34 33 29 29 30 26 14 13 20 24 26 17 13 5 6 8 12 15 16 17 17 18 19 19 20 20 21 22 25 28 29 28 28 29 30 30 30 30 31 32 33 34 34 32 31 33
41 40 37 36 32 34 38 42 43 41 34 28 29 32 34 32 31 33 26 22 21 16 14 17 20 18 16 18 19 21 21 21 22 22 23 24 25 26 28 29 31 32 32 32 32 34 36 37 38 39 40 39 37 36
38 35 38 39 39 41 39 39 40 35 31 26 30 33 34 32 30 29 27 24 23 24 23 23 24 24 24 23 23 22 22 22 22 25 26 25 25 26 28 29 30 32 33 34 36 38 40 43 44 42 39 36 34 34
31 32 35 37 38 35 34 37 36 35 33 34 34 34 34 35 32 29 25 22 22 23 25 24 25 25 25 25 24 23 22 24 25 26 26 26 26 28 29 31 34 36 37 39 39 40 40 37 33 29 26 24 24 25
35 36 36 33 29 29 28 31 30 30 30 27 28 29 30 34 36 30 23 21 22 24 23 22 21 20 21 20 21 21 23 25 25 25 25 26 28 30 32 35 38 39 40 40 37 30 24 21 20 19 17 17 17 19
28 25 27 28 28 27 28 28 27 28 27 28 27 28 32 34 33 27 19 17 20 21 22 22 21 18 17 18 19 21 21 21 22 24 26 28 31 33 36 37 39 38 33 27 21 16 12 10 10 10 10 11 12 14

GFSWCAN_700_spd_033.txt.gz
Wind_Speed
23 24 20 17 15 17 21 26 26 18 12 10 11 12 14 17 17 17 22 20 19 19 18 19 20 21 20 20 23 21 18 23 20 18 15 12 12 13 11 10 9 14 12 11 13 8 10 10 11 11 7 2 3 5
23 24 22 16 17 17 24 25 23 15 12 13 14 15 14 17 20 20 18 17 22 25 20 19 23 27 25 23 28 30 28 17 21 15 17 13 14 10 15 8 16 12 13 7 10 3 4 8 10 10 8 5 5 5
22 20 23 22 18 20 22 22 20 15 16 18 19 17 16 17 19 24 22 21 24 31 31 17 14 17 28 39 36 38 34 28 24 26 18 17 12 15 15 17 15 18 16 18 12 13 10 11 12 16 11 11 12 10
20 20 21 21 19 21 21 22 20 17 19 20 21 18 18 19 19 21 25 25 24 27 25 8 14 17 20 24 35 45 40 32 26 30 28 20 17 14 14 14 14 16 15 18 22 19 14 15 19 19 19 21 19 15
19 19 19 19 21 21 24 24 21 20 19 20 19 18 18 17 21 19 19 16 10 12 20 16 14 13 21 30 33 37 44 44 38 24 30 27 24 17 14 16 18 16 17 18 21 18 16 18 19 23 24 25 24 22
19 16 18 18 20 23 25 23 22 21 20 19 20 19 15 19 16 14 7 8 10 15 20 19 17 14 22 22 22 23 33 49 47 34 16 27 24 21 12 21 19 16 18 19 19 17 18 21 22 23 24 25 26 27
18 17 19 20 20 22 20 20 20 21 21 19 16 16 16 12 10 8 8 11 14 16 17 13 8 14 12 9 12 18 27 44 52 30 33 15 22 20 22 22 15 12 11 13 18 21 21 17 16 11 15 16 20 22
15 16 19 19 20 21 19 18 21 22 19 18 16 12 15 7 6 8 11 13 14 15 11 8 9 14 13 6 1 10 23 35 13 22 22 24 21 20 18 17 12 12 14 16 15 15 15 11 15 16 18 16 18 19
15 16 15 18 20 19 17 17 20 21 21 16 13 12 11 6 7 13 17 9 8 9 8 11 13 11 9 8 7 11 9 27 4 19 22 22 27 17 11 10 8 8 10 11 11 13 18 21 21 20 18 20 18 20
14 15 14 16 16 16 15 17 19 20 21 17 12 11 8 8 11 15 11 5 5 7 10 17 11 4 4 7 12 15 21 14 8 16 11 14 18 23 18 17 15 14 15 14 15 18 20 19 16 16 18 17 19 19
15 11 11 12 14 17 16 17 18 21 21 19 15 8 12 14 13 8 3 4 4 4 8 15 14 4 9 3 5 3 4 6 3 6 11 7 16 15 12 14 18 17 16 13 14 13 16 20 21 20 19 16 17 20
16 15 11 12 12 13 15 15 16 20 20 19 17 14 10 9 3 2 3 3 3 3 8 10 13 5 2 2 1 1 1 5 4 6 7 6 11 6 7 7 8 8 7 4 6 17 22 21 19 18 22 18 14 14
16 16 16 15 12 12 13 14 16 19 21 19 12 5 4 3 3 3 2 2 4 7 9 10 9 6 4 8 2 4 4 3 3 5 4 7 9 9 8 8 7 3 4 2 9 18 18 10 8 5 5 13 15 15
14 17 16 15 14 12 12 14 15 17 20 17 8 4 3 4 6 8 10 10 11 14 13 13 11 7 3 6 4 3 4 4 4 5 6 7 7 9 10 11 7 6 4 0 6 15 17 17 13 12 12 10 6 10
13 15 17 18 18 15 14 14 15 16 18 15 7 4 4 6 11 15 15 14 16 17 15 12 10 7 6 3 5 4 4 4 5 5 5 7 8 10 12 11 7 6 3 3 1 8 11 15 16 16 13 12 14 18
11 13 15 17 20 20 17 17 17 17 15 8 6 13 15 15 16 18 18 21 19 16 11 7 5 4 5 4 5 5 3 4 3 6 9 7 7 15 13 11 9 6 5 4 4 7 8 9 9 10 11 12 10 12
10 10 12 12 13 16 18 21 21 18 7 7 13 14 14 16 17 18 19 19 19 16 10 7 4 5 4 4 6 6 4 5 10 11 10 4 13 14 14 12 11 9 9 9 10 13 15 17 17 17 16 16 14 13
15 13 13 14 12 13 14 15 20 20 16 15 14 14 15 19 18 19 19 16 17 16 13 14 10 10 6 5 6 4 3 4 4 8 7 7 13 13 13 13 13 13 13 15 17 19 21 22 23 23 22 21 19 17
16 15 13 13 12 13 15 20 17 19 24 19 18 14 17 20 19 18 19 19 17 18 17 18 13 16 21 22 14 9 8 11 14 11 4 2 7 10 12 14 16 18 20 23 25 26 26 25 24 23 22 21 21 20
18 17 14 15 18 15 14 17 24 25 26 24 20 19 22 20 19 18 18 19 19 19 25 29 26 26 14 9 11 13 13 11 9 8 8 9 12 14 17 19 21 23 25 26 27 26 25 24 23 21 19 18 18 19
20 18 14 16 17 19 20 19 22 19 23 25 26 27 24 20 21 20 21 21 26 24 24 25 27 24 22 24 25 25 23 20 19 20 20 19 20 20 20 20 21 21 21 22 22 22 22 22 22 23 22 21 20 19
25 18 16 17 18 19 22 24 24 28 27 30 29 26 24 25 23 25 27 25 26 23 17 15 17 24 20 18 22 25 26 25 23 22 22 21 19 19 20 20 21 22 21 20 20 21 21 21 21 20 20 21 21 21
23 19 19 21 18 21 22 21 19 23 25 27 28 27 22 27 28 26 24 28 23 15 14 17 18 19 25 21 21 21 22 22 21 20 21 20 20 20 22 24 23 22 22 23 22 22 21 21 21 21 21 22 22 23
21 20 22 16 18 18 24 23 23 25 27 24 24 24 22 22 25 27 28 23 16 16 16 18 19 19 22 23 19 18 20 22 24 24 23 24 23 24 24 23 23 24 23 21 22 23 23 24 24 23 23 22 21 21
19 18 18 22 23 24 28 25 23 25 26 25 22 20 18 19 26 28 22 19 18 15 13 12 15 19 20 22 20 18 17 17 18 20 21 21 23 24 23 22 22 24 24 23 24 24 24 23 22 21 21 21 20 20
18 15 17 21 24 26 26 23 23 24 23 21 14 16 21 22 23 15 12 21 27 22 17 17 14 11 12 13 15 16 15 15 16 17 20 22 23 23 23 23 23 26 28 26 24 23 24 24 24 24 23 24 24 24
29 20 22 27 30 26 22 24 24 25 26 20 18 18 17 8 11 8 15 26 31 28 20 11 7 5 4 4 5 8 10 13 16 19 22 24 25 24 25 25 25 26 27 26 25 25 25 26 27 28 28 27 28 29
31 33 33 33 32 30 28 27 28 30 26 21 23 22 12 14 17 21 27 29 29 30 22 17 14 14 13 13 13 13 14 16 18 20 20 21 23 24 25 26 27 27 27 27 28 28 29 29 29 30 31 31 31 34
37 38 37 35 31 28 29 31 32 34 33 32 35 38 41 42 41 34 30 28 26 29 26 21 21 22 20 16 17 18 18 19 21 22 22 21 22 25 27 27 28 28 29 29 30 31 31 32 32 33 34 36 36 36
43 37 35 36 35 34 28 28 28 29 31 34 37 40 42 43 37 30 30 29 27 26 30 27 25 26 25 23 23 25 25 24 23 23 23 22 24 26 27 28 28 30 31 32 31 32 34 36 37 38 38 38 38 37
31 30 30 30 29 26 28 31 34 34 34 35 37 40 40 40 38 33 30 29 27 25 28 28 24 23 24 25 26 27 27 26 25 24 24 25 26 26 27 29 30 31 32 33 35 36 38 39 39 38 36 31 28 25
34 34 33 32 29 29 28 29 30 31 33 33 33 32 33 32 33 30 28 26 22 18 21 23 22 23 23 22 22 23 22 22 21 23 24 24 25 27 29 30 32 34 36 38 40 40 37 32 27 21 18 17 16 15
39 39 38 35 36 34 32 31 32 29 28 29 28 27 27 28 30 28 25 21 17 18 21 23 24 25 25 23 20 18 19 20 21 21 23 24 26 28 30 32 35 37 36 33 29 24 19 15 11 10 8 7 9 10

GFSWCAN_700_spd_036.txt.gz
Wind_Speed
14 18 20 21 21 22 21 22 24 23 18 14 15 16 17 16 16 14 11 13 21 24 19 17 18 19 19 18 21 21 18 23 19 18 15 13 11 12 11 10 10 15 12 12 13 8 10 13 17 11 9 10 9 9
15 18 19 20 18 17 20 22 22 21 19 18 19 19 16 17 17 19 19 19 17 16 20 23 22 19 19 19 24 25 25 17 22 17 21 13 14 10 16 8 19 13 14 9 12 7 6 8 16 16 14 10 7 7
16 14 16 18 18 17 17 19 21 19 17 19 21 20 20 17 15 16 22 23 22 21 14 16 20 26 29 31 34 34 30 26 27 30 22 20 15 18 17 21 15 20 16 15 13 12 9 9 12 13 14 13 10 10
9 15 17 16 16 17 18 20 21 20 19 20 20 22 18 19 15 15 18 21 21 22 14 4 5 11 15 19 24 30 35 39 36 29 34 27 21 18 19 19 16 20 16 20 22 18 12 14 18 18 19 20 21 19
9 15 17 16 18 18 18 20 21 19 19 21 22 19 15 15 18 17 17 12 7 9 14 10 5 6 11 14 18 23 26 36 45 43 25 31 29 22 21 20 23 20 18 19 19 14 14 18 21 24 24 26 27 25
12 16 18 17 18 19 21 22 20 19 19 21 18 15 13 14 14 12 6 6 11 15 16 7 4 7 11 14 19 24 26 34 40 49 43 11 32 29 18 25 24 18 16 18 21 18 17 18 18 20 23 25 27 27
16 18 16 16 17 16 18 18 19 20 20 19 17 15 9 11 9 6 8 13 14 15 12 2 6 12 15 12 11 10 14 20 32 42 50 26 21 32 27 23 17 10 10 13 17 16 16 18 21 19 19 18 19 20
16 19 17 12 14 16 16 17 19 20 20 20 16 15 10 8 6 8 13 16 10 10 7 6 7 12 15 14 6 5 9 15 23 18 39 35 13 33 25 24 21 18 18 18 17 17 18 14 11 13 17 20 20 18
19 18 13 13 12 16 18 16 17 19 20 19 16 12 9 6 6 12 14 11 5 5 5 12 15 7 13 10 6 6 6 8 12 14 23 23 22 15 16 17 13 13 12 10 11 11 13 14 17 20 21 21 21 20
16 19 17 14 13 14 15 16 17 20 22 19 15 13 6 9 11 13 11 4 4 2 7 13 17 18 4 5 8 0 0 18 8 18 17 25 22 28 21 16 13 11 10 11 11 14 16 19 20 17 15 17 17 19
12 14 14 13 14 13 14 17 19 20 23 22 17 11 10 11 13 5 3 3 4 3 8 14 17 18 6 7 9 6 10 5 0 12 10 8 17 22 22 23 22 22 18 15 12 12 16 20 22 23 24 23 21 16
10 10 12 13 12 14 14 15 18 20 23 25 19 11 7 6 5 4 3 4 4 4 10 14 15 13 5 2 4 4 3 3 1 7 7 5 11 11 18 20 17 16 14 9 4 7 14 17 15 13 13 17 22 20
9 11 11 11 12 15 16 17 18 20 22 22 16 9 6 5 6 6 9 5 9 11 16 19 16 13 6 5 5 3 3 2 3 5 4 6 5 9 11 12 10 9 9 13 2 8 14 11 8 7 7 5 8 14
11 13 11 11 11 12 14 16 19 21 23 16 12 8 7 5 7 8 9 12 15 19 20 20 13 8 7 5 4 3 3 3 4 4 5 5 5 7 9 11 11 10 11 9 2 5 7 13 15 16 14 13 14 13
9 11 13 12 12 11 12 13 16 19 21 12 7 7 13 15 16 17 18 17 17 16 21 18 12 7 8 5 3 4 3 3 4 3 4 5 6 6 10 12 11 11 8 9 5 4 6 11 14 13 15 16 14 12
8 9 10 9 11 14 14 16 18 19 16 8 7 13 13 11 13 16 18 18 19 18 16 16 8 5 5 4 4 4 3 2 2 6 9 10 6 9 13 12 12 13 11 9 7 6 6 9 12 13 13 13 14 14
13 12 12 12 10 12 11 10 14 17 14 9 9 12 13 13 15 16 18 19 18 15 13 7 6 5 5 5 4 5 5 7 8 8 10 7 3 14 15 14 14 13 11 10 9 10 12 13 15 17 18 18 17 17
13 15 15 15 13 16 16 16 14 14 16 17 15 13 12 13 16 18 17 18 18 16 13 12 13 15 7 5 7 9 6 5 1 6 8 6 11 14 15 14 14 13 13 13 14 15 17 20 22 23 22 22 21 19
15 15 16 17 17 17 18 19 15 16 21 21 20 17 15 13 17 16 17 17 17 17 17 14 10 15 16 19 22 20 12 8 8 11 11 6 5 11 13 14 15 16 18 19 20 21 23 24 24 23 22 20 19 19
14 12 14 21 21 19 18 18 22 22 21 24 24 19 16 20 16 14 17 20 21 23 24 24 21 20 22 16 14 17 20 21 15 13 10 8 7 9 11 13 16 18 20 22 24 24 25 24 23 22 21 19 18 17
19 21 24 28 25 24 24 20 21 18 20 24 24 24 26 22 18 16 18 20 22 22 21 23 19 16 18 24 26 20 23 20 17 16 15 14 15 16 17 18 19 19 20 21 22 22 22 22 22 21 20 20 19 18
27 24 23 22 26 26 28 28 25 26 22 25 18 17 18 19 15 15 19 18 18 18 23 24 20 20 22 22 23 21 22 27 28 26 23 24 22 20 20 20 19 18 18 19 19 20 20 21 20 20 21 21 21 20
25 25 24 26 29 27 27 28 25 24 20 25 22 19 20 22 17 14 16 19 15 18 19 19 19 20 22 22 22 25 23 22 22 24 25 24 22 20 20 20 20 20 21 20 20 21 21 21 21 21 21 21 21 21
25 23 22 23 25 22 28 28 27 21 20 24 25 20 19 18 17 17 16 10 14 19 21 23 24 21 18 18 20 25 25 21 19 19 19 19 21 22 23 23 22 22 22 21 22 21 21 22 23 23 23 23 22 21
24 22 21 23 22 26 35 36 32 25 24 26 24 18 13 12 17 20 6 6 13 21 25 26 24 24 19 13 15 18 18 17 16 17 19 20 21 22 21 22 23 23 23 22 23 23 23 23 23 23 23 23 23 23
27 25 27 28 31 33 35 27 21 21 21 20 15 12 16 16 18 10 8 9 14 22 26 26 16 18 15 11 8 7 12 15 15 14 15 15 18 20 21 22 23 23 25 24 24 24 25 25 24 24 24 25 26 25
33 33 35 37 35 25 19 20 21 22 20 18 17 13 13 9 11 11 10 14 19 25 26 24 23 12 13 12 7 5 6 8 11 13 15 16 18 20 22 23 23 23 24 24 25 27 27 27 27 28 28 29 29 29
39 41 39 34 28 28 29 28 26 27 24 22 22 21 13 15 15 13 19 30 34 32 26 25 23 22 20 20 19 16 11 11 13 14 16 18 20 22 24 25 24 23 25 27 28 28 28 29 30 31 31 31 31 33
42 41 35 30 29 30 31 30 31 31 31 31 31 33 36 36 38 38 40 38 39 36 28 24 24 27 22 23 25 24 21 18 18 19 20 22 23 24 25 25 25 27 28 29 29 30 30 31 32 33 33 33 33 34
42 37 31 30 30 30 28 30 29 27 27 28 30 35 40 43 43 43 45 45 44 43 36 29 28 30 28 27 22 23 23 24 24 25 25 26 26 26 26 27 29 30 29 30 31 32 34 34 35 36 36 37 37 38
37 33 29 28 28 24 22 22 24 25 28 31 32 38 46 50 51 50 47 43 42 41 35 30 28 28 30 26 22 21 21 24 26 26 27 27 26 26 27 29 29 30 31 32 32 33 35 36 38 40 40 40 39 37
31 32 32 33 31 30 30 29 29 31 33 34 37 40 42 45 48 44 36 35 32 28 25 26 27 27 28 25 23 22 22 24 26 26 24 24 25 27 28 29 30 32 33 32 34 35 37 37 34 31 28 25 20 16
31 32 34 35 33 31 29 34 36 36 33 35 35 36 35 37 40 36 26 15 16 18 22 27 28 28 27 23 24 25 24 22 20 21 23 24 25 27 28 30 32 33 34 35 35 34 30 25 22 19 14 11 11 12

GFSWCAN_700_spd_039.txt.gz
Wind_Speed
14 12 17 21 20 18 20 22 22 22 22 19 17 18 18 18 17 15 15 14 14 12 15 23 18 16 16 14 16 20 15 19 16 17 11 10 12 11 10 8 9 15 10 10 13 7 9 8 14 10 10 7 13 13
13 12 15 18 18 16 18 20 23 22 21 20 20 19 18 18 17 17 15 15 18 19 16 18 25 26 20 18 20 20 20 11 20 15 18 12 13 11 12 9 16 12 13 10 11 7 12 9 17 22 14 8 10 12
12 12 14 16 15 14 18 21 22 22 22 23 22 20 18 16 17 17 18 18 20 19 13 15 19 20 26 25 26 27 23 26 24 26 24 17 14 14 15 17 14 18 18 18 13 12 13 10 11 17 15 15 12 10
11 11 11 14 14 15 20 21 21 21 21 23 23 19 16 15 16 17 19 19 17 16 10 4 7 13 11 16 22 24 26 31 35 31 29 36 27 21 17 19 16 15 16 19 22 20 13 15 15 12 13 16 16 17
12 11 9 11 12 16 20 21 20 20 20 21 21 17 14 13 13 18 17 11 8 7 10 10 10 9 7 8 12 15 20 26 31 41 43 29 36 24 25 24 26 25 22 20 17 12 11 12 17 16 19 22 22 24
11 12 9 7 16 17 18 20 20 19 20 20 20 16 14 9 14 14 10 8 13 12 10 1 4 2 6 9 11 19 24 27 32 36 46 51 21 28 21 29 25 25 21 17 20 19 17 16 16 18 21 23 24 26
6 9 9 15 16 14 16 16 16 18 19 20 19 16 12 11 10 9 9 15 15 10 7 2 0 7 9 11 13 16 18 21 23 31 37 39 48 29 23 22 18 23 25 23 22 22 22 21 21 18 21 23 23 22
7 9 15 17 15 13 15 15 16 17 19 19 18 15 9 11 8 9 13 16 13 9 5 6 6 8 12 16 14 14 11 13 17 18 19 26 37 46 10 29 25 20 16 15 15 16 18 17 19 19 16 16 17 20
8 13 17 18 19 17 16 16 17 17 19 22 20 16 11 7 8 11 14 14 7 4 4 8 16 11 16 15 16 15 12 6 8 14 17 10 18 23 18 12 16 16 18 17 15 16 18 19 17 18 18 20 20 20
5 9 16 18 18 18 17 15 16 16 18 21 22 18 9 10 13 15 9 5 4 3 5 11 18 20 17 12 10 11 8 7 7 1 6 12 21 34 17 11 15 15 12 10 9 11 14 17 18 19 21 21 20 18
2 5 10 13 14 14 15 17 19 20 21 22 21 16 14 11 7 5 4 4 6 4 9 16 21 23 18 10 12 8 7 7 4 3 7 6 16 28 16 22 16 13 13 12 11 13 14 15 17 21 23 25 25 25
1 3 7 9 11 11 14 15 18 21 24 22 19 15 11 9 7 7 7 6 7 6 15 20 22 20 17 9 6 7 6 3 4 5 4 3 12 16 17 23 23 23 21 19 15 7 9 10 14 14 11 12 15 16
2 3 5 6 8 10 13 13 17 19 22 22 16 13 8 8 9 8 12 9 12 14 16 20 24 15 8 6 6 5 3 3 3 4 3 6 5 5 11 14 19 19 17 14 13 3 5 8 9 9 8 7 8 7
4 4 5 8 9 11 12 11 12 16 21 17 11 7 9 7 10 16 17 18 20 21 21 20 21 13 11 8 5 4 4 3 3 3 3 7 6 6 7 10 12 13 13 17 11 5 2 7 8 12 14 14 16 12
6 5 6 7 9 10 12 15 16 18 19 12 6 5 10 12 14 17 19 20 21 20 20 19 16 14 9 7 5 4 3 3 3 3 7 9 9 8 10 13 14 13 15 18 13 6 1 4 7 10 13 12 12 12
6 5 7 9 10 10 10 11 13 14 13 9 5 11 13 13 13 15 17 19 21 22 20 14 9 6 5 6 4 4 3 2 4 4 8 12 9 5 10 13 14 15 15 16 14 8 4 5 8 14 14 16 17 16
9 9 10 12 14 13 11 13 14 16 13 7 12 14 16 16 15 16 17 18 19 20 20 12 5 5 8 6 5 4 4 7 9 11 10 10 11 7 12 13 15 16 15 15 13 11 9 10 13 17 20 21 20 20
13 13 13 14 15 14 15 18 18 18 17 17 15 16 17 17 17 17 20 19 18 18 19 15 14 15 10 10 12 13 17 14 8 3 6 10 4 8 14 14 14 14 14 14 12 12 15 18 20 22 24 24 23 22
17 16 15 15 14 12 14 22 24 24 25 24 23 19 20 18 15 17 23 21 19 19 21 18 10 15 19 15 17 20 22 18 17 12 10 9 8 9 14 15 15 15 15 16 17 19 21 23 24 25 25 23 23 22
21 18 16 15 13 13 19 23 29 31 29 27 24 21 20 19 19 20 21 22 22 22 24 25 23 23 23 23 25 28 21 20 17 19 19 16 12 9 9 10 12 14 16 18 20 22 23 24 24 24 23 22 21 20
22 19 18 15 16 20 24 23 26 24 29 29 28 22 21 16 17 20 22 20 22 22 21 19 22 23 24 25 28 28 29 26 24 21 18 17 17 16 14 15 17 18 19 20 20 20 21 22 22 22 21 20 20 19
23 23 20 19 19 22 27 29 31 34 32 34 33 26 22 21 19 19 19 16 15 12 14 15 18 22 23 23 25 26 24 26 34 29 26 26 25 23 24 23 22 22 22 21 21 21 21 21 21 21 21 21 21 20
25 22 21 22 22 25 27 28 28 32 30 30 30 25 23 23 21 18 18 12 7 6 10 15 19 22 22 20 23 22 23 24 29 29 24 24 26 27 26 24 24 23 22 21 22 22 22 22 22 22 21 21 21 21
28 25 25 25 26 24 26 31 34 36 34 30 28 25 25 22 20 20 20 14 9 9 11 16 22 22 21 21 19 19 20 20 21 25 24 23 22 23 24 24 23 23 23 24 23 23 22 22 22 22 22 22 23 22
28 28 28 23 25 29 35 33 31 32 32 27 28 27 25 23 19 22 22 11 15 13 12 17 19 20 22 22 21 17 17 18 19 20 16 17 19 22 24 24 24 24 23 23 24 23 23 24 24 23 23 24 23 23
27 22 22 24 27 30 31 30 27 27 23 19 24 23 23 18 19 19 17 13 20 21 19 18 22 22 18 20 22 20 16 10 11 15 14 14 15 17 18 19 20 21 23 25 25 25 25 25 24 25 25 25 25 25
36 33 28 27 31 31 30 30 27 26 22 23 23 20 20 14 15 18 15 16 24 25 24 24 28 29 25 20 20 22 20 16 11 9 11 14 15 17 19 20 21 22 23 25 25 25 25 25 26 27 27 28 29 29
39 41 38 37 36 35 32 32 29 23 20 23 23 24 24 21 21 16 15 21 25 30 32 35 35 31 30 28 24 23 22 22 22 20 17 15 16 18 20 22 23 24 25 25 25 25 27 28 29 30 30 30 31 32
39 42 39 39 36 33 33 34 33 31 29 31 34 36 37 37 38 39 39 40 41 41 40 39 38 37 35 32 30 28 28 28 26 25 23 22 21 22 25 25 27 28 28 27 27 28 29 30 31 31 32 32 33 34
42 41 37 37 35 37 39 33 27 25 27 29 32 35 39 40 38 36 39 41 43 44 46 46 46 44 40 34 31 30 29 30 30 28 26 25 25 27 28 30 31 30 30 29 30 31 31 31 31 33 34 35 35 36
36 34 36 37 36 30 26 26 28 31 32 32 32 34 37 39 44 45 46 45 46 45 46 47 45 41 39 35 32 31 28 26 28 27 26 27 27 28 29 30 30 29 29 30 30 31 32 33 34 35 37 38 39 40
23 26 28 26 24 25 28 30 32 33 33 34 34 36 38 41 47 51 47 47 48 47 41 36 39 39 37 32 29 30 28 27 26 26 27 29 31 30 28 28 29 29 30 31 32 32 34 35 36 38 38 36 33 29
24 22 22 26 30 28 30 32 34 35 34 34 34 35 37 40 45 44 43 31 24 22 24 28 31 29 26 25 26 28 28 26 25 28 28 26 26 26 27 27 29 30 31 32 34 35 36 37 35 32 28 24 22 19

GFSWCAN_700_spd_042.txt.gz
Wind_Speed
5 8 11 13 15 17 19 21 23 23 24 23 23 24 23 22 20 16 15 16 16 13 13 12 22 18 14 12 13 17 13 11 13 13 8 12 11 11 10 9 10 14 13 11 14 7 9 7 7 10 7 5 5 8
5 7 11 14 14 15 14 18 20 20 21 23 25 25 24 21 18 15 14 16 19 18 17 18 15 19 23 19 16 14 13 11 13 10 11 8 11 8 15 8 16 12 15 8 11 7 9 8 9 16 12 7 6 10
5 7 11 14 15 13 12 16 19 19 21 22 24 26 24 20 16 16 17 17 20 20 12 8 11 12 16 21 21 14 15 19 16 19 19 18 17 12 18 19 16 16 15 19 16 15 18 14 11 9 14 16 15 10
5 5 8 12 13 11 12 14 17 18 20 23 25 26 23 17 16 15 17 17 13 17 10 6 5 5 7 9 15 22 25 26 28 30 31 32 27 14 19 21 18 22 15 22 23 21 16 13 12 11 9 13 12 12
6 7 9 9 8 9 10 13 16 18 20 22 25 25 22 19 14 17 17 14 15 13 12 10 6 3 2 2 4 8 11 16 20 26 33 41 39 32 37 32 34 28 25 21 17 13 12 10 10 13 12 15 15 16
8 7 9 9 8 10 12 14 15 17 19 21 23 23 23 18 15 14 11 16 20 15 9 2 4 6 6 6 5 8 14 19 24 27 30 34 40 32 11 32 37 32 30 24 20 19 17 16 12 12 15 16 18 20
7 5 8 8 8 9 12 16 18 20 22 23 24 23 21 15 15 11 12 18 17 12 6 4 3 5 7 8 10 10 14 14 15 21 28 29 30 28 33 37 9 17 28 27 25 20 18 19 19 18 19 19 18 21
8 7 9 11 13 15 17 18 18 18 19 22 23 23 20 15 11 11 15 18 14 8 7 7 6 7 14 16 13 15 18 17 14 15 21 20 17 25 30 36 17 17 24 19 20 19 18 18 17 18 18 19 19 16
9 8 10 9 8 10 15 16 18 20 22 24 24 22 18 14 13 14 15 13 10 4 4 8 16 14 21 20 18 16 20 17 9 15 13 9 14 22 31 35 4 10 19 17 16 17 17 19 19 19 20 18 18 19
9 10 8 4 4 10 14 16 19 22 25 27 25 24 19 18 15 12 8 8 7 6 9 15 20 25 20 19 13 12 12 8 8 4 6 11 17 11 14 20 22 7 13 12 13 13 13 14 15 16 17 20 20 21
10 7 3 1 4 10 12 15 16 20 22 26 23 21 22 18 17 12 13 10 12 8 12 19 24 28 20 15 13 7 8 8 5 4 4 5 5 6 10 28 8 5 11 11 10 7 9 12 13 15 17 20 22 23
9 7 5 3 3 5 7 11 14 18 22 24 23 18 21 17 11 9 12 12 9 8 22 24 23 25 18 9 6 6 7 5 4 9 4 8 10 3 13 21 18 14 11 11 9 10 7 8 8 10 10 11 13 14
9 7 4 2 3 3 6 8 11 15 18 20 18 13 11 11 11 9 13 11 17 22 25 24 24 21 12 7 7 6 4 5 8 3 4 6 14 11 6 9 12 17 18 17 13 9 3 3 6 6 7 9 10 10
9 6 4 4 3 3 4 7 9 12 13 12 10 6 8 6 9 15 17 17 18 22 26 26 20 15 15 9 5 5 5 6 3 3 3 10 13 10 6 4 7 13 16 15 16 12 6 5 6 8 8 10 13 14
11 8 5 5 3 4 6 8 9 10 9 10 5 4 9 12 14 16 18 20 22 22 24 26 20 13 10 6 5 6 4 3 3 4 10 12 14 11 6 4 6 8 11 13 19 13 10 6 5 2 4 8 12 14
11 9 9 7 5 5 6 7 8 12 14 12 5 11 11 13 14 16 19 21 21 23 23 23 16 7 7 6 5 4 5 3 8 14 14 15 12 12 6 6 9 10 13 19 21 17 12 10 7 5 7 12 16 17
11 10 9 8 7 7 9 12 13 14 12 9 12 13 13 16 16 18 20 21 23 23 22 20 8 5 13 9 6 4 6 20 18 19 12 10 9 7 7 10 11 15 16 18 19 18 14 11 10 11 15 19 21 21
15 13 11 11 10 11 14 14 15 17 17 17 15 17 18 16 16 18 20 20 23 23 20 18 21 22 8 11 18 25 29 29 27 27 20 12 10 7 8 13 14 12 13 14 14 14 13 10 13 17 19 22 23 23
18 16 15 14 14 16 19 20 18 20 23 26 22 20 19 18 17 17 19 22 24 26 25 23 12 18 21 23 26 26 28 30 27 19 17 14 16 12 9 12 14 11 11 12 13 13 14 17 19 20 21 22 22 21
21 20 19 17 17 18 19 20 21 23 25 25 20 21 20 18 19 18 18 19 22 26 29 29 26 23 24 25 25 25 25 25 25 25 22 19 17 16 14 12 12 13 13 12 13 15 18 20 20 20 20 20 20 20
24 21 21 19 17 21 23 22 23 18 27 32 30 28 27 25 24 22 20 22 23 25 25 22 20 21 21 23 25 27 26 25 24 24 23 24 22 19 19 20 17 14 14 15 17 18 20 20 20 20 20 20 19 19
22 23 22 20 23 25 29 28 26 30 29 28 26 27 27 24 23 21 22 23 25 19 18 16 15 16 17 18 20 23 25 25 24 22 22 25 30 27 26 25 21 20 21 20 21 21 20 21 21 22 22 22 22 21
28 26 23 25 26 30 28 25 25 28 23 28 32 30 25 26 27 24 22 23 18 17 17 14 13 15 17 19 20 22 24 23 21 20 21 21 22 23 23 25 26 25 24 24 23 22 22 23 23 23 23 23 22 22
29 27 29 32 33 29 27 28 29 29 30 32 29 30 29 25 25 27 29 25 16 16 22 18 13 13 16 20 22 24 24 24 21 19 20 21 20 22 23 23 24 24 24 24 23 24 25 24 24 24 24 24 23 22
30 28 26 26 25 24 29 32 31 29 33 32 31 29 28 28 29 33 35 29 19 19 27 25 23 21 19 21 22 24 26 25 24 23 18 19 19 17 19 19 19 21 22 23 24 26 26 25 25 25 26 25 24 23
20 15 20 17 18 21 23 25 29 30 29 29 30 27 33 31 29 25 20 15 16 22 28 28 27 26 26 24 27 27 26 26 25 21 21 15 14 12 12 14 14 16 19 20 22 23 25 27 27 27 25 25 24 24
31 21 16 19 21 24 25 28 27 28 32 32 34 34 30 28 25 25 18 15 17 25 29 31 32 32 31 31 31 34 29 28 28 25 22 21 18 17 18 18 19 19 19 21 23 25 26 27 27 26 25 25 26 26
31 32 32 30 32 33 32 33 34 35 35 31 27 27 26 24 24 21 22 18 13 22 29 33 34 34 35 38 40 38 35 33 32 31 26 22 23 23 22 21 20 21 21 22 25 27 27 27 27 27 27 27 28 28
34 33 32 35 35 34 35 36 37 39 36 34 33 31 31 30 31 33 33 33 36 37 40 41 42 40 40 38 39 39 38 36 35 33 29 26 23 23 25 28 27 26 26 28 29 30 31 30 29 28 29 29 29 29
36 33 34 35 34 33 33 32 29 28 28 29 30 33 36 38 35 32 35 38 39 39 40 40 39 40 40 40 42 41 39 37 34 34 32 27 25 25 26 26 26 27 29 30 31 32 30 29 29 30 30 29 30 31
29 30 32 35 37 35 27 27 27 27 28 30 32 38 43 44 44 42 42 43 43 42 42 42 42 42 42 43 45 46 43 39 36 33 31 28 27 26 26 27 27 29 31 31 30 29 29 29 29 29 31 32 34 36
22 24 25 29 30 27 28 29 29 29 32 34 37 39 39 41 47 48 42 45 46 44 42 42 46 45 44 43 45 46 48 46 40 31 27 26 27 28 29 31 32 29 28 28 28 28 29 30 31 33 34 35 35 35
27 26 24 24 24 24 28 27 32 37 38 41 43 40 37 38 40 36 34 29 28 32 34 31 33 38 38 36 37 38 34 29 25 24 25 26 26 28 29 28 27 27 27 28 29 30 31 32 33 34 33 32 30 28

GFSWCAN_700_spd_045.txt.gz
Wind_Speed
7 4 5 5 7 8 10 13 15 18 21 22 24 26 27 28 25 19 16 16 15 12 12 10 10 17 15 11 14 16 13 13 13 12 8 10 10 12 14 12 7 11 13 11 16 7 10 4 6 8 6 4 1 1
10 10 3 2 5 7 8 10 13 16 18 21 23 25 27 28 24 21 19 18 18 15 11 14 13 12 17 19 12 12 13 9 9 11 10 7 8 7 13 10 15 13 17 8 11 6 5 5 7 8 10 5 3 3
15 10 7 1 4 6 8 10 12 13 15 18 22 25 27 26 23 20 21 20 18 17 6 4 4 7 11 17 21 16 14 15 14 15 17 15 13 12 18 17 19 16 15 17 11 15 16 15 11 10 8 10 8 5
16 12 8 4 1 5 7 9 10 13 14 17 21 24 25 24 19 18 17 16 20 15 5 8 6 5 1 5 13 21 17 16 19 22 25 26 24 19 24 25 24 18 19 24 25 23 17 14 11 9 11 10 13 11
17 13 10 5 1 4 6 8 11 13 16 18 21 24 25 24 16 16 14 17 21 15 9 10 13 12 11 8 6 3 6 10 15 20 25 30 34 37 41 36 35 29 24 22 25 16 13 11 13 14 14 11 11 12
17 14 10 6 5 6 9 15 15 15 18 21 22 22 23 21 16 14 14 17 20 13 6 6 11 11 10 8 6 3 3 7 12 17 20 26 29 27 24 40 43 41 33 30 29 26 22 16 12 9 10 12 14 17
18 15 11 7 6 8 10 11 11 14 17 20 24 23 22 19 16 14 14 18 14 9 6 5 6 11 14 13 10 8 9 11 14 16 18 21 20 23 34 45 33 24 28 32 30 27 24 20 17 13 14 15 17 18
19 15 12 11 9 7 7 9 10 13 15 18 24 25 23 21 17 14 12 14 10 7 9 11 7 7 18 17 17 12 14 15 16 15 21 17 20 23 32 34 31 37 19 27 26 22 23 22 20 20 19 19 20 18
20 17 14 11 7 4 6 6 12 16 17 16 21 23 23 24 23 18 14 15 12 11 8 14 21 15 25 20 18 17 15 13 10 14 15 15 14 18 25 14 7 21 18 26 26 28 17 18 17 17 18 18 18 20
22 19 15 10 5 3 4 6 11 15 19 16 18 19 21 20 20 20 17 15 14 14 19 24 21 24 24 21 15 16 10 8 9 8 12 13 17 24 9 3 4 25 8 9 5 12 15 15 14 14 15 16 18 19
21 20 15 10 8 6 4 6 8 12 15 16 16 19 16 17 21 14 13 10 11 9 17 24 23 22 21 17 14 6 7 7 6 6 7 5 9 16 12 5 6 10 11 8 9 9 8 8 10 13 14 16 18 19
22 19 15 12 11 6 3 1 5 8 10 14 14 12 16 14 11 8 9 10 8 10 23 27 27 24 16 14 6 5 6 5 5 9 5 5 18 18 8 11 15 14 2 11 14 11 5 6 6 5 4 5 7 10
21 18 15 13 9 6 3 4 6 9 10 10 10 9 6 8 10 9 10 11 12 19 23 25 29 24 11 8 8 6 5 6 10 5 3 7 18 18 14 5 10 11 12 11 15 6 7 6 5 6 8 8 8 7
21 18 16 12 10 7 5 4 5 7 7 8 6 5 5 4 7 10 13 16 18 20 23 25 26 23 14 8 5 6 6 6 4 3 7 19 19 16 9 8 6 6 9 14 13 10 15 13 10 7 3 1 3 6
22 19 17 15 13 10 6 3 2 4 5 6 3 2 8 10 11 13 14 16 18 19 22 25 25 18 11 6 5 7 5 3 6 21 27 22 19 13 11 5 5 6 9 12 14 16 13 13 9 6 3 3 6 10
21 18 17 16 15 12 9 9 9 8 8 6 3 5 9 9 11 14 15 17 18 20 21 23 18 8 6 10 9 6 9 9 25 27 26 24 20 15 11 8 6 9 10 12 15 21 18 15 12 10 9 8 11 15
20 18 17 16 15 13 11 11 10 10 5 4 7 11 12 13 13 15 16 17 19 20 19 19 7 5 12 9 7 14 18 28 29 28 25 21 20 15 13 14 12 11 13 13 15 23 22 17 15 14 13 15 18 19
19 17 15 14 13 12 11 12 12 9 10 12 9 14 16 19 18 17 18 18 20 21 22 18 20 19 11 12 20 27 32 29 28 26 21 19 14 15 16 14 14 12 7 8 9 11 13 15 14 13 14 16 19 20
17 15 13 12 12 13 16 19 15 16 18 19 19 19 18 18 18 18 19 20 22 22 23 23 12 21 22 22 28 29 29 30 30 25 19 19 20 17 15 14 11 7 8 11 12 12 12 10 10 12 15 17 18 19
18 18 16 16 16 18 19 20 22 20 20 21 20 23 28 28 23 19 22 25 26 24 24 26 25 25 23 24 25 27 27 26 28 28 22 18 21 23 19 17 17 14 13 14 16 16 12 9 12 14 15 16 16 17
22 21 20 20 19 20 22 20 20 18 20 23 29 30 31 24 23 22 22 24 27 31 27 27 26 22 21 19 20 22 22 24 26 28 27 24 20 22 23 22 20 18 20 20 15 12 12 13 15 16 16 17 18 18
22 22 21 20 20 22 27 28 26 27 28 32 29 29 29 30 29 25 25 25 27 26 22 19 20 19 15 15 16 18 19 20 22 23 24 25 21 20 21 24 26 23 22 20 18 17 17 17 18 19 19 20 20 21
25 24 22 22 26 29 28 24 23 27 27 30 32 33 31 31 30 31 28 30 30 22 19 21 22 20 17 15 14 18 19 19 21 22 23 21 20 20 19 20 23 23 22 21 23 22 22 21 22 22 22 22 22 22
25 24 26 29 27 21 18 21 26 27 29 30 31 31 31 30 30 30 35 36 31 28 24 20 24 23 18 14 11 16 20 22 25 26 27 25 20 18 19 20 23 22 22 23 22 21 22 22 22 22 23 23 24 24
27 24 25 21 20 22 27 28 28 27 29 28 26 28 29 28 30 36 39 34 28 24 20 20 28 28 26 24 21 22 24 25 29 31 28 26 24 21 19 17 16 17 19 20 19 20 21 22 22 23 23 24 25 25
21 13 15 15 17 20 22 23 22 21 19 20 23 23 28 30 34 30 36 25 14 14 16 19 28 32 31 30 29 27 26 28 30 33 31 30 27 25 22 18 16 14 16 16 17 18 19 20 21 22 23 24 25 25
23 19 12 13 15 16 16 19 20 24 27 29 28 29 27 24 29 29 10 11 13 15 14 19 27 30 32 33 34 34 32 32 36 37 34 31 29 26 25 23 21 20 22 22 22 22 22 23 23 24 24 25 25 26
24 27 26 24 26 27 27 27 27 28 29 27 25 28 18 21 30 29 26 22 22 21 22 26 31 34 36 36 36 35 34 38 39 37 34 31 30 27 25 25 24 23 24 24 24 23 23 24 25 27 28 28 28 28
24 26 25 26 25 26 28 28 28 26 24 23 27 32 35 33 34 33 29 28 28 30 34 37 39 40 41 40 37 37 34 33 36 36 35 32 30 25 25 27 27 26 24 24 26 27 28 28 30 31 31 30 29 29
26 24 25 26 26 25 25 26 26 24 26 29 33 36 38 36 31 31 32 33 36 39 40 41 40 38 35 32 34 34 34 34 35 36 36 35 34 31 27 26 26 27 25 24 25 25 28 30 31 31 30 29 28 29
30 31 28 25 27 25 21 20 24 27 30 32 34 36 39 39 39 40 43 45 46 41 39 37 33 31 33 35 36 38 38 37 36 37 37 37 38 36 34 28 26 25 28 28 28 30 32 31 30 29 29 29 30 31
14 16 18 24 25 24 26 25 24 27 29 32 35 37 41 45 49 51 39 31 31 29 25 25 27 28 29 32 34 39 42 40 40 38 39 39 35 32 26 24 26 27 27 28 28 28 28 28 29 30 30 31 32 33
22 22 23 26 28 25 18 22 29 33 38 41 43 44 43 38 36 21 16 15 17 21 25 28 31 33 31 30 34 36 32 29 31 33 31 29 27 23 24 25 25 26 26 26 26 27 28 29 30 31 32 33 33 33

GFSWCAN_700_spd_048.txt.gz
Wind_Speed
23 18 10 6 5 8 9 12 12 14 15 17 19 21 23 23 21 18 17 15 13 9 10 10 9 9 18 12 18 12 13 16 14 12 7 7 7 10 10 10 6 9 11 11 13 7 10 5 7 8 6 8 7 7
24 19 11 7 8 4 6 8 11 13 15 17 18 19 21 22 17 15 17 19 15 10 9 7 9 10 11 20 15 17 13 11 12 12 12 8 9 7 12 9 13 13 18 7 11 6 5 5 5 7 6 7 6 4
27 17 14 9 6 4 4 5 10 13 13 15 17 18 18 19 14 15 15 20 20 11 9 7 5 3 9 13 23 17 15 14 14 14 16 13 10 13 17 18 19 19 17 20 18 14 17 17 14 10 11 8 6 4
24 20 14 10 8 3 1 6 8 10 12 15 16 16 15 15 14 13 16 20 18 8 12 11 9 7 4 3 11 24 17 14 16 17 16 18 20 17 24 25 24 20 21 25 29 28 24 19 16 10 11 10 10 14
25 21 17 13 8 6 4 6 6 7 11 15 17 15 12 12 11 11 14 18 15 12 15 16 16 16 15 13 9 5 21 19 19 21 23 25 27 28 35 38 40 32 32 28 29 22 19 14 12 15 17 15 13 12
26 22 20 14 12 9 7 6 4 5 8 13 13 12 10 10 12 11 13 16 12 7 8 9 14 17 16 10 6 4 1 5 8 11 14 16 14 16 16 28 29 27 28 42 38 31 26 17 19 14 10 11 14 14
28 26 22 17 15 12 8 5 4 5 8 11 12 14 14 12 12 12 10 11 10 7 4 4 6 9 19 12 10 5 6 8 11 14 14 14 15 22 29 33 27 26 25 32 44 40 33 17 21 19 15 15 15 15
30 28 24 21 18 14 12 10 9 8 7 9 12 15 17 19 19 15 14 13 11 11 11 10 8 7 16 19 15 8 7 7 9 8 11 13 15 18 13 30 24 24 29 38 30 32 32 29 23 21 19 18 19 21
33 30 26 24 19 17 15 13 13 13 9 9 10 13 18 18 18 16 15 18 19 20 13 15 18 11 17 20 15 13 9 7 6 8 9 12 11 8 26 23 14 14 18 26 17 24 29 33 21 19 20 22 20 20
35 31 30 25 20 18 11 9 9 10 12 16 10 11 17 16 16 12 13 11 9 15 21 24 22 22 18 17 15 13 6 6 6 5 10 7 6 23 21 21 12 7 8 9 11 14 21 17 16 17 19 21 22 22
35 34 31 26 20 16 13 9 5 4 7 11 11 12 9 12 12 11 10 6 12 10 18 23 24 26 19 14 13 5 6 6 4 4 6 4 6 22 22 12 16 17 17 13 2 12 15 11 13 14 16 17 18 18
37 34 30 25 21 17 13 10 4 0 4 6 9 7 10 9 8 8 9 9 8 11 21 25 26 28 20 13 6 5 4 4 4 6 4 2 26 23 22 16 12 11 8 3 9 11 10 11 11 12 11 10 10 8
35 33 29 26 24 19 14 10 6 4 4 3 7 6 3 5 7 6 8 9 10 17 21 24 26 26 17 11 6 4 4 6 6 4 1 25 24 23 21 16 10 10 9 6 7 11 10 11 11 10 9 7 5 3
32 30 28 26 24 19 14 11 8 6 5 3 3 1 2 2 4 7 10 13 15 17 19 21 22 20 18 10 5 6 6 7 2 10 15 27 27 25 20 18 15 9 7 9 8 16 14 15 14 13 9 5 3 0
26 29 27 25 22 18 15 11 9 5 3 2 1 2 1 6 8 10 11 14 16 18 18 20 21 16 11 5 5 8 6 7 10 16 26 27 26 24 20 17 17 16 10 9 12 16 15 17 18 14 9 6 5 4
34 30 26 24 20 19 17 14 12 9 6 4 4 6 6 10 11 14 16 18 19 19 19 19 15 7 5 9 7 4 8 10 23 28 26 27 26 22 20 19 17 17 16 12 9 10 14 18 19 15 12 11 10 10
29 25 23 21 20 19 16 14 12 10 5 5 7 9 14 14 16 20 22 22 23 22 18 16 7 4 9 7 7 9 13 25 30 28 26 26 25 22 18 18 18 16 13 10 9 9 9 13 18 17 15 16 16 15
26 24 21 19 18 16 15 14 13 10 9 11 14 15 16 17 19 20 22 23 24 24 20 18 19 21 14 13 18 23 29 33 29 27 27 25 26 25 21 19 16 15 10 9 8 8 9 11 14 15 15 21 18 16
22 19 18 18 16 15 14 14 13 13 14 13 15 18 20 22 23 25 26 25 25 23 22 27 13 15 20 23 28 29 29 28 28 25 26 26 26 26 25 22 18 16 13 12 11 12 13 13 13 14 10 9 11 14
22 18 17 16 15 14 14 13 15 16 16 14 17 20 20 25 27 26 23 23 25 26 30 33 35 31 27 29 31 28 22 23 24 24 24 25 25 24 25 24 21 19 18 15 15 16 16 16 16 12 9 10 13 14
19 17 14 14 15 17 19 17 15 12 13 18 25 27 29 27 25 25 25 23 25 26 29 28 27 26 28 28 24 22 18 18 20 23 24 25 23 21 20 21 22 21 22 19 16 14 16 16 13 11 11 11 14 17
20 21 20 19 18 20 23 21 19 23 25 30 30 28 31 30 30 28 28 29 30 26 29 26 20 20 21 20 20 19 16 14 15 15 18 21 23 20 17 19 22 21 22 24 22 19 17 15 14 13 14 16 17 18
21 20 18 18 20 22 19 19 20 29 31 31 29 32 30 30 32 32 31 30 36 36 32 31 27 21 22 21 21 19 15 9 10 15 18 21 23 24 20 17 18 20 21 22 26 22 19 20 20 20 20 20 20 20
18 19 18 17 22 18 21 25 32 30 26 28 29 28 29 29 29 31 34 36 30 29 27 24 24 21 21 22 23 20 16 14 15 18 24 24 24 26 25 22 20 19 20 21 22 20 21 21 21 21 21 21 21 22
20 17 17 20 20 22 28 31 26 24 25 24 24 22 24 25 26 28 32 29 24 22 18 15 15 20 19 25 25 24 21 21 25 28 24 27 27 27 27 24 20 20 19 18 18 18 19 20 20 21 21 21 22 22
17 12 13 17 24 26 25 23 20 18 17 16 21 21 24 26 29 28 29 18 13 19 20 22 20 20 24 29 30 30 30 31 33 34 30 31 30 30 29 27 22 15 20 18 18 18 18 19 19 20 19 21 22 22
21 18 16 20 20 17 17 16 17 18 20 23 26 25 23 23 29 22 19 20 25 30 22 19 13 16 21 29 33 35 33 32 32 34 34 31 32 32 30 28 25 21 22 19 18 20 23 25 25 25 25 25 25 25
22 24 23 21 21 20 21 22 23 24 24 24 21 23 19 23 30 33 33 34 35 34 30 26 30 32 34 36 36 36 32 34 36 38 39 36 34 31 30 29 27 25 24 23 22 22 22 23 24 25 25 25 26 28
20 20 19 20 21 22 22 24 26 24 21 22 26 31 36 37 38 37 38 40 38 34 29 28 28 28 32 32 32 31 31 32 34 37 36 35 31 29 30 30 28 26 25 26 26 25 24 25 26 26 27 27 29 31
19 17 18 18 19 19 18 18 19 19 22 26 30 34 39 41 37 35 36 37 39 38 39 42 43 44 42 38 36 34 33 34 37 39 39 38 35 34 33 32 30 28 27 28 27 27 26 26 28 27 28 30 32 33
13 16 19 17 16 16 18 20 21 24 29 32 32 35 38 39 42 43 43 43 45 43 45 47 46 43 42 41 40 41 40 38 39 40 41 41 40 37 36 35 32 29 29 27 26 27 29 31 31 31 31 31 31 31
10 14 15 16 17 18 20 22 26 30 29 29 32 34 38 40 42 28 18 22 22 24 26 28 30 30 30 31 33 34 35 35 36 37 38 39 38 37 37 35 31 29 27 25 25 28 30 31 31 30 30 30 31 32
17 16 15 20 22 20 17 18 23 29 32 35 35 36 39 42 29 23 22 18 19 22 24 26 29 30 32 33 33 33 33 33 34 35 36 34 32 32 32 31 29 26 24 25 26 27 28 28 29 29 30 31 33 33

GFSWCAN_700_spd_051.txt.gz
Wind_Speed
30 30 28 23 16 9 6 9 7 9 11 13 16 17 17 17 14 12 14 17 14 10 5 5 8 10 13 15 15 17 14 17 14 13 8 9 6 8 7 8 5 8 9 9 10 8 10 4 5 8 8 12 11 11
34 33 28 22 17 7 8 5 5 8 11 13 15 16 14 14 12 11 13 17 13 11 9 5 3 7 9 14 16 18 14 12 15 11 11 9 9 7 11 5 10 10 14 5 11 6 6 7 5 9 9 10 11 10
37 35 30 24 15 10 7 1 2 6 9 11 15 16 13 12 11 11 14 16 13 12 11 11 8 3 4 9 14 17 17 16 14 15 14 11 11 10 13 14 16 16 15 20 20 19 14 9 14 17 15 14 11 7
41 38 30 24 16 12 9 7 3 5 8 11 14 14 11 9 8 9 13 13 13 19 19 18 19 18 13 2 8 17 17 15 17 15 15 16 15 14 18 20 22 21 22 24 29 31 31 26 21 17 18 15 14 12
44 36 32 23 17 16 11 10 6 6 6 10 14 14 9 6 5 7 10 11 14 13 14 14 17 20 13 13 10 4 16 18 13 13 15 19 22 24 29 29 29 22 19 29 36 33 30 26 15 11 12 14 17 15
44 39 32 23 19 18 16 13 9 6 7 9 12 11 8 5 5 5 9 8 8 9 10 7 11 17 21 14 10 4 1 13 22 23 19 19 17 14 12 16 18 23 27 28 31 37 45 35 30 18 15 12 14 16
44 39 31 26 22 22 19 14 11 8 8 9 11 10 9 9 9 9 10 9 8 6 5 5 7 11 13 17 12 6 5 9 12 14 16 15 13 12 18 20 18 27 24 26 36 41 41 43 35 27 18 15 17 16
46 37 33 28 26 25 21 16 13 12 10 9 9 11 13 13 14 16 17 14 9 11 9 12 9 8 12 14 12 6 7 9 10 10 7 7 10 9 5 21 27 26 26 23 23 32 39 37 41 30 25 16 20 19
43 39 35 31 30 28 24 19 17 13 10 11 11 13 14 15 15 16 15 17 22 23 16 17 22 13 20 14 11 8 5 5 5 5 5 5 1 1 22 28 26 20 19 23 21 17 20 24 27 36 24 21 21 21
43 41 37 36 34 31 26 23 20 16 13 12 11 13 16 16 13 9 12 13 12 18 22 24 23 25 21 17 13 10 4 3 3 3 5 2 1 12 24 26 28 22 22 22 20 23 17 32 27 28 18 25 21 22
44 43 41 38 37 32 26 22 18 14 11 8 7 7 6 8 10 10 8 5 11 8 19 24 26 27 23 19 14 6 5 4 2 2 3 1 9 23 21 23 24 22 18 14 13 11 7 11 15 22 28 17 18 21
47 46 42 40 37 30 26 21 16 12 8 4 5 3 4 5 5 5 7 8 6 9 17 23 27 29 23 21 8 7 6 5 3 3 2 3 21 22 20 21 21 21 14 8 6 5 1 9 10 11 13 15 15 17
49 46 43 39 34 29 25 20 15 11 7 3 1 1 1 2 4 4 5 6 8 15 21 24 26 27 24 17 8 6 4 4 9 3 5 22 25 23 23 21 20 19 18 11 10 10 7 10 11 12 13 12 11 9
49 47 42 37 32 29 24 19 15 10 6 4 3 4 3 2 2 5 7 10 12 14 18 23 24 25 22 14 8 6 6 8 4 10 16 23 25 28 27 25 24 21 17 16 13 13 16 13 15 18 20 16 9 7
49 44 39 36 33 29 24 19 14 10 8 6 5 5 8 4 5 7 9 11 15 19 21 23 25 24 17 7 5 8 5 5 6 11 25 23 22 23 25 26 25 24 21 16 14 12 13 15 16 19 16 10 10 8
46 41 35 33 30 26 22 18 14 12 11 7 6 6 8 7 8 11 13 16 18 20 22 23 23 14 10 5 10 8 5 7 16 28 32 30 25 24 23 24 25 24 23 18 10 10 10 14 17 22 19 15 12 10
40 31 30 31 27 24 21 18 15 13 7 6 6 6 8 11 13 14 17 19 19 20 20 18 9 8 11 12 9 12 15 22 29 33 33 31 30 27 25 23 25 23 22 20 15 9 7 7 9 15 22 18 14 14
35 28 30 30 26 22 20 17 14 11 10 10 8 9 12 15 17 18 20 21 21 21 23 21 23 24 17 22 30 28 28 34 34 34 32 29 29 27 27 25 23 22 21 22 19 15 10 8 9 11 13 19 20 18
33 30 26 23 20 19 18 15 14 11 11 9 10 11 14 17 19 19 23 25 23 22 22 25 15 25 29 32 29 33 38 37 36 32 27 27 27 29 26 26 23 21 20 20 20 16 14 14 13 12 14 18 16 13
32 27 23 20 17 16 15 13 13 13 11 10 12 13 18 21 21 23 24 24 24 24 26 30 33 31 32 32 31 33 32 33 31 28 23 23 25 25 25 24 22 20 19 18 20 18 16 16 16 15 15 14 13 13
31 25 20 19 16 17 15 11 10 10 12 15 17 19 22 24 24 23 25 27 29 27 31 31 29 30 30 29 29 32 30 25 23 23 22 17 15 16 18 20 21 18 17 17 19 21 18 17 17 16 15 13 13 12
24 21 19 21 20 15 16 17 15 16 19 22 23 24 27 25 25 27 27 28 29 29 31 30 28 29 31 32 31 32 27 23 22 19 12 10 12 14 17 20 20 18 17 18 19 20 22 21 19 17 16 15 14 13
23 19 19 21 21 19 13 17 16 19 21 26 25 26 21 22 26 26 27 29 32 27 24 24 29 34 37 35 32 32 23 23 21 15 15 14 16 21 21 24 25 23 18 16 16 17 19 24 22 20 19 19 19 20
21 20 22 17 17 13 14 16 21 24 25 25 25 24 23 23 26 29 32 28 21 20 22 25 25 30 31 30 29 27 24 27 17 13 12 15 20 23 25 25 26 27 24 20 15 13 15 19 20 19 21 21 22 22
20 16 15 16 15 15 19 23 24 21 25 23 21 21 22 23 26 31 33 22 21 21 20 21 24 27 29 28 27 27 31 31 24 23 24 26 29 32 31 28 25 25 27 23 18 15 14 14 16 17 18 19 21 21
20 14 11 12 14 17 20 19 20 17 14 14 15 19 22 25 25 23 30 26 22 26 24 25 30 33 28 25 25 26 30 31 33 35 31 31 34 33 32 29 26 22 24 26 23 19 17 17 16 17 17 18 20 20
18 14 12 14 18 17 17 16 15 15 17 16 19 19 20 18 20 26 27 25 30 33 35 39 38 34 33 30 29 27 27 30 30 31 32 32 32 31 34 33 30 27 27 25 24 22 19 19 18 19 20 23 24 25
20 22 24 22 20 19 19 18 17 18 18 20 20 20 16 20 28 32 34 36 37 39 40 40 37 35 32 31 31 31 32 33 35 38 40 38 34 34 33 34 33 30 30 28 27 26 23 21 21 20 21 21 24 27
23 21 17 16 15 15 16 16 17 16 14 16 21 26 30 32 34 38 37 37 36 39 41 43 44 44 42 39 38 36 37 40 41 39 38 39 35 32 35 35 33 31 32 30 30 28 25 26 24 24 23 23 23 26
16 14 13 12 12 11 12 17 16 16 20 25 28 29 33 37 33 34 38 38 40 43 45 47 48 47 46 47 45 42 42 41 41 41 40 39 40 39 37 35 35 33 33 32 31 30 29 28 27 26 26 27 27 28
9 8 7 9 10 9 10 14 16 19 22 26 29 32 32 33 32 28 29 30 30 33 36 38 38 34 35 35 34 33 31 32 35 36 36 36 38 38 38 35 34 34 33 33 32 30 31 30 29 28 27 29 30 31
8 6 7 9 11 12 15 18 21 23 22 23 26 30 31 29 33 32 24 23 24 26 29 32 34 34 35 35 35 36 35 31 30 32 30 30 31 32 33 33 33 34 34 34 32 31 32 31 28 28 30 30 30 30
10 11 11 14 16 15 15 15 18 23 25 27 28 29 30 34 34 25 23 25 29 29 30 30 30 27 25 31 32 27 27 29 31 31 31 30 28 29 30 30 32 33 32 31 30 30 29 28 28 28 28 28 29 30

GFSWCAN_700_spd_054.txt.gz
Wind_Speed
45 42 49 34 27 25 19 14 10 8 8 9 10 11 11 11 12 12 14 15 11 8 5 1 5 7 8 10 9 12 11 14 10 10 6 5 3 4 3 5 3 4 5 6 9 7 6 6 7 4 6 12 15 15
48 50 34 32 28 24 19 14 9 6 3 5 7 9 10 10 10 11 13 13 13 15 11 7 2 3 6 5 12 12 14 10 14 9 10 6 6 2 4 3 7 6 10 6 8 5 4 13 18 14 20 20 19 19
48 48 37 34 32 24 19 13 10 4 2 3 7 8 9 7 9 9 10 11 18 14 21 17 13 6 2 4 7 13 13 11 10 17 13 8 7 8 5 8 13 13 15 18 21 17 14 9 10 18 25 20 13 12
47 50 46 40 30 23 19 15 10 5 4 5 6 8 7 6 6 8 8 7 11 17 21 20 18 17 16 6 3 7 14 11 13 9 10 11 11 11 11 13 19 19 21 27 33 35 34 30 27 27 25 21 18 18
47 45 40 37 29 27 22 17 12 8 7 7 8 8 7 6 6 8 7 9 14 12 13 15 19 19 18 14 11 5 6 15 10 11 13 12 13 14 18 21 19 13 11 18 27 30 33 33 30 23 20 16 14 17
57 49 45 38 33 30 25 20 15 10 9 9 9 9 10 7 6 7 7 6 9 9 8 7 11 15 16 19 13 6 5 7 17 16 15 17 19 13 9 7 4 10 18 25 30 28 31 34 37 30 31 24 18 15
50 53 47 39 36 32 29 25 19 15 12 11 13 15 15 12 10 9 10 10 9 8 5 7 8 15 18 20 16 7 4 5 9 13 16 17 16 15 15 14 10 19 24 21 22 25 28 25 27 31 35 34 30 19
57 51 46 40 38 35 31 25 22 18 16 15 16 18 16 16 16 17 19 18 12 16 13 14 10 13 22 19 16 12 10 9 8 9 8 6 7 7 4 10 19 23 24 21 23 27 34 32 28 24 31 37 36 23
48 53 49 44 41 36 32 29 25 22 20 18 18 18 18 18 15 14 17 24 25 26 18 21 25 17 22 22 16 14 9 7 6 3 2 3 1 2 17 22 23 26 28 31 21 23 26 32 35 28 23 29 42 24
62 56 50 46 41 37 34 32 28 25 22 22 20 19 17 14 12 13 13 9 10 20 21 23 24 25 23 22 18 10 6 7 6 3 3 1 4 19 22 25 26 26 26 27 22 19 22 23 23 22 20 25 31 26
60 54 50 46 42 40 38 34 30 27 24 20 16 12 12 11 8 6 5 3 8 7 16 21 23 25 28 25 17 10 7 7 5 5 4 5 20 22 22 26 27 26 26 25 21 19 20 17 17 10 12 10 21 17
59 55 50 47 43 43 40 35 30 26 22 18 14 12 9 6 4 4 3 5 4 6 14 18 22 22 23 23 13 12 6 6 4 13 3 5 20 21 20 21 25 27 27 25 24 21 19 13 13 11 11 13 13 11
59 55 52 48 47 44 39 34 30 25 21 17 14 9 6 5 4 4 3 3 3 8 14 19 21 22 20 17 6 7 4 2 9 2 6 11 24 25 25 22 21 24 26 27 25 23 23 19 14 12 12 11 12 13
58 55 51 51 46 42 36 31 27 23 20 15 9 8 6 6 5 3 1 4 7 9 14 18 20 19 18 12 5 3 3 4 4 5 4 19 27 28 28 30 29 24 23 27 27 26 22 21 19 15 15 19 19 16
60 55 53 49 44 39 34 29 24 20 17 10 8 7 11 10 7 3 4 7 10 13 16 19 20 18 15 7 3 2 3 4 6 8 15 25 30 30 30 30 31 30 27 24 26 26 24 20 20 19 16 18 20 16
58 57 53 46 40 36 31 26 21 17 16 8 8 8 11 9 6 5 7 9 13 15 17 19 17 10 9 5 6 6 6 7 14 19 25 29 33 32 30 30 31 32 30 28 24 23 24 23 19 21 20 18 21 16
55 53 50 43 39 34 29 24 19 17 10 6 8 7 6 7 7 9 11 13 16 18 16 15 6 6 9 10 8 8 10 18 25 27 31 33 39 37 33 29 29 31 31 30 27 22 22 21 19 18 20 21 24 23
50 47 43 35 34 29 24 22 20 13 11 9 6 4 4 6 9 12 15 17 18 20 20 16 20 20 15 15 16 20 25 29 33 36 37 40 38 34 32 30 28 30 31 30 28 24 20 22 19 16 15 17 20 21
44 41 39 31 30 29 27 22 20 12 11 9 6 4 6 7 11 15 18 20 22 22 22 22 13 17 22 26 29 32 32 33 34 32 30 30 29 27 27 27 27 28 30 29 26 24 20 20 18 16 15 13 19 22
44 40 30 30 31 27 22 14 20 14 10 8 6 8 11 15 17 20 22 24 25 25 28 31 30 28 25 23 25 32 34 34 34 33 30 27 21 20 19 20 21 22 22 23 22 21 22 19 20 19 18 16 14 14
39 33 31 31 28 25 20 16 15 11 8 6 10 14 17 18 19 22 25 28 30 29 29 26 25 25 27 30 31 33 34 35 35 35 31 25 18 13 10 11 14 18 19 20 19 19 22 22 19 19 18 17 17 17
38 36 29 25 22 18 16 12 10 9 10 14 15 18 19 20 24 26 27 30 32 25 26 25 25 28 29 25 26 28 27 27 29 29 25 26 18 13 9 12 15 18 21 23 22 22 20 21 22 21 18 17 16 14
35 33 29 23 16 15 10 15 14 14 15 18 19 20 21 25 26 26 26 26 29 22 21 23 23 23 23 25 29 29 28 30 25 21 24 27 20 20 14 11 18 23 24 23 25 24 25 21 19 21 24 23 20 18
34 31 24 19 14 11 12 14 16 16 18 19 20 21 25 26 26 27 31 30 23 17 18 19 20 21 22 26 27 28 24 27 29 27 26 30 28 25 20 13 19 24 27 28 27 23 24 24 22 16 18 21 21 19
23 18 13 13 14 11 15 17 18 18 19 18 21 23 23 22 24 29 30 23 13 15 15 21 25 27 26 31 31 31 28 28 25 27 27 29 33 32 30 28 26 24 24 28 27 25 24 25 23 21 16 16 18 18
21 15 12 9 9 12 15 16 15 15 16 17 14 16 19 21 22 20 25 17 20 23 23 28 31 34 39 41 38 36 31 29 28 29 29 30 34 36 35 33 30 26 23 27 26 25 24 23 24 22 21 17 16 17
17 10 12 12 14 15 13 13 16 17 16 16 19 17 17 11 13 18 22 25 28 30 33 33 36 40 42 42 42 40 35 32 34 35 34 34 32 31 33 32 31 30 30 29 27 27 25 24 24 24 22 22 21 21
19 18 17 18 17 17 16 18 17 18 15 16 17 15 11 14 25 27 29 32 35 35 35 36 38 42 46 47 47 47 46 45 40 38 39 36 34 32 32 32 32 33 33 33 32 28 27 27 26 26 26 23 23 24
21 21 20 16 17 18 18 17 15 15 14 15 18 20 24 26 28 30 31 32 32 34 37 42 40 43 41 40 39 38 34 32 34 36 39 42 41 38 37 37 35 33 33 32 30 29 29 28 27 27 27 27 27 27
19 18 17 17 16 16 14 12 12 14 17 19 22 25 26 28 27 29 34 31 31 36 41 41 40 40 41 41 38 35 35 35 34 33 31 34 37 39 40 38 32 30 29 28 28 29 30 28 27 27 28 29 28 27
15 15 14 12 10 11 13 15 16 15 15 18 21 25 23 28 30 27 26 30 32 31 33 33 34 36 38 36 36 35 30 30 32 33 33 30 28 29 30 31 30 29 28 27 26 27 28 27 27 27 28 29 29 27
16 14 12 7 6 8 12 15 17 19 20 21 19 20 21 26 29 31 29 30 29 29 33 33 34 34 31 29 31 31 32 35 31 26 27 28 28 26 24 24 25 25 26 27 27 27 29 29 28 28 29 29 27 26
14 11 8 7 7 10 14 17 18 19 19 21 21 20 26 30 29 30 32 29 28 26 27 33 29 25 24 27 29 30 30 29 26 22 18 18 21 24 25 24 24 24 24 25 26 27 28 28 27 28 27 27 26 26

GFSWCAN_700_spd_057.txt.gz
Wind_Speed
53 39 39 35 44 33 28 24 19 16 11 8 6 6 4 6 8 10 13 15 10 10 7 3 3 2 4 6 7 7 10 12 9 11 6 4 4 6 6 6 4 5 5 5 6 6 3 5 9 6 9 13 17 16
51 40 37 38 42 26 27 24 19 16 12 7 5 4 3 6 8 12 16 17 19 16 15 11 6 2 1 1 5 6 8 7 13 9 9 7 6 5 3 2 6 4 8 3 6 3 5 17 20 15 16 16 18 22
49 41 43 41 46 31 32 25 18 17 12 8 5 2 4 7 10 13 17 19 13 15 24 21 19 11 5 2 1 7 7 9 7 12 9 7 5 6 5 8 10 8 11 13 14 11 14 15 15 17 23 28 31 27
42 43 43 45 50 30 31 26 22 17 13 10 6 4 9 10 12 15 15 12 15 19 23 21 20 18 17 11 4 2 7 10 11 7 8 8 6 5 7 8 11 13 16 19 24 26 25 24 24 27 31 33 29 25
52 43 44 48 39 36 30 26 23 18 15 10 8 10 13 13 15 16 15 13 12 12 15 17 15 17 19 14 7 7 2 8 10 7 7 7 6 7 10 13 11 6 5 13 23 27 30 26 22 20 23 29 31 24
41 50 45 40 41 41 33 29 24 20 16 12 12 14 15 16 16 16 14 11 9 10 10 11 15 18 19 14 13 7 6 2 10 10 7 7 8 9 6 3 5 6 11 21 28 30 30 28 27 31 31 23 25 32
47 59 56 49 34 39 34 32 28 23 17 16 19 20 21 20 18 16 16 13 12 13 12 7 10 17 19 13 10 8 5 2 3 7 9 9 9 8 10 9 10 13 21 23 26 31 30 26 30 30 33 30 27 24
58 50 51 40 46 41 38 35 30 26 23 24 24 26 27 27 25 22 20 17 19 22 17 18 9 14 16 15 10 7 5 3 0 2 3 2 1 1 2 7 12 19 20 21 23 26 28 27 28 30 30 30 31 29
54 52 54 54 47 44 42 37 33 29 27 28 30 30 31 27 30 29 27 25 23 23 19 20 20 14 18 17 13 7 7 6 5 3 4 4 12 7 12 15 18 22 25 27 27 26 24 23 26 28 30 29 34 31
54 60 52 55 50 47 43 39 35 32 31 31 32 30 30 29 23 19 14 13 14 22 21 19 19 17 19 18 15 7 6 5 3 7 4 9 10 13 12 16 19 22 25 29 30 29 27 23 23 24 26 28 21 25
67 59 55 55 52 49 46 40 36 35 33 33 30 27 24 20 15 8 5 5 5 5 13 17 18 18 19 15 14 6 4 2 2 5 2 4 4 11 14 16 19 20 23 25 28 30 32 33 26 25 23 22 19 10
63 63 61 55 53 51 47 39 35 34 35 30 27 23 20 11 6 5 6 5 4 5 7 13 16 17 17 15 7 3 1 1 3 5 4 4 7 12 16 18 20 23 24 26 29 28 28 32 29 25 23 22 20 20
65 64 59 56 54 51 43 40 41 35 29 27 26 18 9 6 5 6 6 5 4 2 7 12 15 16 15 14 5 3 3 5 6 6 5 8 4 11 17 20 21 23 25 26 28 30 29 28 31 26 22 21 17 17
70 63 60 56 53 49 43 45 40 34 30 26 16 13 7 7 8 8 8 4 1 2 6 10 14 13 13 11 5 4 5 5 5 6 6 11 12 15 19 23 25 24 24 27 29 28 30 27 28 30 25 22 22 19
69 64 59 57 54 47 48 44 38 33 29 17 9 8 12 11 13 9 5 2 3 6 9 12 15 15 13 7 5 4 4 5 6 6 9 14 22 27 27 26 29 27 27 27 28 27 27 28 25 29 28 21 21 23
66 63 59 57 50 49 45 41 36 31 23 13 8 10 15 16 12 7 2 3 6 9 12 13 12 7 7 5 6 6 7 6 6 11 19 26 30 36 40 40 38 34 28 29 30 28 26 25 24 24 29 24 19 22
69 66 62 52 50 47 41 37 32 27 13 10 12 13 13 12 6 3 4 6 9 11 11 12 5 5 7 8 7 9 11 16 19 25 30 35 41 42 42 40 36 33 29 29 30 30 27 24 23 24 25 26 20 19
65 62 55 54 49 43 38 32 29 11 13 15 13 12 10 7 4 3 5 9 13 15 15 12 16 15 10 12 15 18 24 32 37 42 42 39 38 38 38 36 34 31 29 27 29 29 26 22 22 23 20 25 21 19
61 56 53 47 42 38 35 27 22 12 15 14 11 11 7 4 3 7 11 14 18 19 20 17 8 14 17 21 22 30 35 37 39 40 36 31 32 36 34 28 26 23 23 23 23 23 21 20 20 22 20 20 21 20
54 53 52 42 36 34 24 19 18 11 15 14 12 9 4 4 9 12 16 20 22 24 25 25 24 23 23 24 29 33 34 31 32 35 36 34 31 26 24 25 18 13 12 15 16 18 18 18 20 20 20 17 18 18
57 54 46 39 35 27 12 19 19 15 14 15 11 6 4 7 12 16 20 23 26 27 26 24 23 23 27 30 26 24 25 28 31 32 30 29 28 22 22 17 17 13 13 16 18 19 21 20 19 18 18 18 17 17
51 47 44 38 34 26 14 16 16 16 16 12 9 8 9 13 17 20 23 28 28 20 21 22 25 27 26 21 22 24 25 27 28 29 26 26 26 22 21 21 22 17 8 14 17 20 22 22 21 22 19 16 18 16
44 37 34 34 27 15 15 13 14 14 11 9 10 11 15 19 21 23 23 25 23 16 22 25 25 20 17 18 20 23 25 29 31 32 29 28 24 21 24 24 29 28 14 14 20 21 21 22 21 21 23 20 13 16
37 35 32 23 16 12 15 15 14 12 12 12 12 16 20 22 24 26 28 23 15 20 20 18 16 17 21 24 25 25 28 33 33 34 32 30 26 23 26 27 29 32 33 24 25 26 23 23 22 20 19 22 19 12
30 26 16 16 18 18 14 9 8 11 14 14 16 17 21 22 22 25 23 12 12 13 15 19 23 27 30 32 34 35 36 39 36 36 34 31 29 29 30 27 28 32 34 34 31 28 23 23 23 20 19 20 19 19
28 11 14 18 19 16 14 13 13 13 12 13 13 16 19 19 20 13 11 14 17 21 24 26 31 35 37 37 40 41 41 44 46 43 36 33 33 33 32 32 30 24 17 24 26 25 24 22 21 20 19 19 19 16
20 9 16 15 15 12 10 10 10 10 12 15 18 17 14 7 6 9 17 20 25 29 31 33 35 37 40 41 42 45 41 38 37 37 35 32 31 33 36 35 31 24 20 23 24 23 23 21 20 20 19 18 19 19
19 12 13 12 10 10 10 10 12 14 14 14 13 11 7 10 17 18 21 26 30 32 34 37 39 41 42 44 42 39 40 40 41 39 35 31 29 31 33 33 35 30 25 25 26 25 24 23 20 20 19 19 19 20
19 16 14 12 12 12 13 15 16 17 16 15 13 14 17 14 15 20 23 27 31 34 36 37 37 38 37 36 38 39 41 40 38 37 35 32 29 25 26 29 32 35 33 30 28 24 23 23 22 21 20 21 20 20
19 17 15 15 15 17 15 15 16 13 11 11 13 14 14 16 18 19 23 28 33 33 33 34 34 33 35 37 38 35 30 29 30 33 36 35 33 29 26 24 26 29 31 30 29 27 25 23 22 21 20 21 22 22
21 21 19 17 16 15 15 12 10 10 10 10 13 17 19 20 18 20 26 29 30 31 32 30 28 30 36 33 28 29 30 32 32 33 34 34 29 26 21 21 21 22 22 24 26 26 25 23 23 22 22 23 23 23
18 17 16 15 13 11 8 8 10 10 10 13 14 15 16 18 22 28 29 31 30 28 28 31 36 35 30 28 34 34 33 32 30 29 28 29 25 19 14 15 17 17 16 18 20 22 23 23 22 22 23 24 25 25
18 15 14 14 11 9 9 9 10 11 12 13 13 12 16 22 27 28 29 28 26 26 29 35 37 32 27 30 31 30 30 29 28 28 26 25 20 14 10 11 14 16 16 16 17 18 20 21 21 22 22 22 23 22

GFSWCAN_700_spd_060.txt.gz
Wind_Speed
49 53 51 37 37 34 41 40 29 24 21 17 13 6 5 5 6 8 7 7 10 11 13 12 10 9 9 10 12 12 13 15 14 12 8 7 5 7 5 5 4 5 3 4 5 5 4 5 2 3 8 16 17 13
38 48 49 36 40 37 34 34 30 26 22 17 13 7 8 9 11 13 14 16 15 11 18 15 11 9 7 6 8 10 11 13 15 12 11 8 6 10 9 4 7 4 8 2 5 2 7 10 19 16 16 18 19 21
38 49 48 37 41 38 36 33 34 28 22 18 13 10 11 13 16 17 15 19 24 27 27 23 18 13 8 5 5 9 10 9 15 13 11 10 9 11 9 11 11 10 10 10 11 13 17 20 20 22 26 28 28 31
36 52 47 40 45 30 38 36 33 26 22 19 14 13 16 17 19 18 17 19 19 23 27 24 20 17 14 11 4 5 9 11 12 9 13 9 7 7 8 7 9 11 11 15 19 21 20 21 21 24 26 28 30 32
43 41 34 37 45 33 36 33 30 27 23 19 17 18 20 22 22 20 18 13 12 10 21 21 17 15 12 11 5 7 5 10 11 11 9 10 9 7 9 10 12 11 11 9 13 17 20 20 21 22 25 24 24 28
43 48 48 31 49 39 44 38 32 27 24 20 20 22 22 24 23 21 20 17 17 13 13 18 16 15 11 8 6 5 5 5 11 10 7 7 7 6 5 7 7 7 8 13 19 22 24 25 25 25 23 23 26 26
54 55 48 50 47 46 33 38 33 30 25 23 24 25 25 25 22 17 16 20 17 16 15 8 10 12 11 7 4 3 4 4 6 8 9 9 9 8 9 11 11 9 10 16 19 22 21 22 22 21 23 24 23 21
57 52 44 57 50 45 42 38 34 31 27 27 30 29 27 26 25 25 24 24 24 21 15 11 14 15 11 8 5 4 4 4 4 3 3 4 5 5 4 2 4 7 11 14 16 19 24 26 25 23 24 26 26 24
50 48 57 54 51 50 44 40 36 33 31 33 33 33 33 32 32 31 25 23 21 21 13 15 13 11 14 12 8 8 6 7 5 4 4 3 3 2 2 2 4 8 10 13 16 19 21 22 23 26 27 27 27 25
57 53 61 58 46 53 48 41 39 39 41 38 39 40 41 38 37 34 29 28 25 22 22 19 17 14 12 13 9 5 4 4 3 2 3 6 4 1 2 4 8 12 15 19 21 21 25 25 25 25 26 25 25 26
62 59 63 52 55 52 49 45 45 46 43 44 45 45 41 34 25 12 8 7 7 7 10 13 12 11 11 9 7 3 1 3 4 2 3 6 9 4 4 6 10 13 16 19 21 22 23 25 26 27 27 29 24 23
56 62 60 59 57 54 51 48 48 45 42 43 39 38 32 17 7 5 9 8 7 6 6 7 9 8 8 6 2 0 2 3 4 6 5 5 11 10 8 9 12 17 21 24 27 26 25 26 26 25 26 26 27 24
60 69 63 65 59 55 51 49 49 48 43 39 39 27 16 8 6 8 8 10 10 10 7 7 8 8 7 9 4 3 4 6 5 6 6 10 16 17 15 15 15 21 26 30 33 35 33 30 28 27 25 24 26 24
69 69 64 63 59 56 54 52 50 44 37 39 20 15 8 8 8 10 13 12 11 10 6 5 8 8 9 7 4 5 7 6 5 7 7 12 19 23 23 23 27 31 36 39 35 34 37 36 32 29 26 24 22 24
73 65 69 63 59 56 54 54 46 42 38 15 10 7 11 11 17 17 13 9 6 5 4 6 8 9 9 6 5 6 5 6 8 7 12 16 20 24 28 34 40 45 45 40 36 35 35 35 33 30 29 26 22 21
72 70 66 64 61 57 57 49 46 42 24 10 8 13 14 19 18 15 10 5 2 4 5 8 7 5 4 4 6 7 8 9 12 16 18 21 23 30 39 45 45 43 41 39 36 35 34 34 32 29 28 27 22 21
75 75 70 65 61 59 53 47 41 26 12 12 14 16 18 18 14 10 5 1 2 5 7 7 3 4 6 7 7 10 17 20 21 23 26 29 38 43 44 43 40 39 36 32 32 30 31 32 29 27 26 25 21 19
78 73 67 64 63 57 49 42 29 11 16 18 19 21 19 14 10 6 3 2 6 7 10 8 10 12 8 10 15 20 24 29 32 35 37 35 34 32 36 37 35 32 27 26 27 26 24 24 25 25 24 23 20 19
76 71 64 63 60 54 45 31 25 20 22 21 22 19 15 11 8 4 3 5 7 11 14 12 7 9 12 19 23 29 31 32 33 33 31 28 29 31 32 34 32 25 24 21 18 17 17 20 22 20 19 19 19 18
64 64 64 61 55 46 29 24 26 24 26 23 20 16 13 9 5 2 5 9 13 16 19 20 19 18 21 25 28 28 28 28 30 31 29 28 29 29 28 31 30 23 20 21 19 17 16 17 20 20 20 15 15 17
65 62 59 55 44 35 23 27 22 22 24 22 18 15 12 7 5 7 11 14 17 21 19 19 18 18 26 29 28 27 25 27 27 28 30 31 31 32 28 28 29 24 24 27 26 11 13 17 20 22 21 20 16 14
66 59 55 43 36 29 27 27 22 19 16 15 18 16 12 9 10 12 15 19 18 18 21 23 23 25 26 24 22 22 23 25 26 28 32 34 36 34 30 26 27 24 26 28 29 15 14 16 20 22 23 21 21 15
59 57 44 35 27 18 23 21 18 19 18 20 19 14 12 13 13 14 15 19 22 20 22 21 21 20 19 19 22 25 28 30 32 33 35 34 33 33 32 28 26 24 25 26 30 29 31 30 25 24 23 21 20 21
50 37 30 26 20 13 25 25 24 23 18 17 15 13 13 13 15 18 22 23 19 18 16 16 16 18 21 25 28 30 31 34 37 38 37 40 38 35 33 31 29 29 28 29 31 30 32 32 27 25 23 21 19 18
38 26 15 16 19 22 26 23 20 16 12 12 12 13 12 14 16 22 21 13 13 14 15 17 21 25 27 29 31 34 35 37 38 43 41 37 36 35 33 32 31 29 26 30 29 25 23 22 24 25 23 21 18 17
26 11 14 25 23 26 22 22 17 11 10 12 11 11 11 14 18 10 9 11 15 16 20 23 27 30 34 36 38 37 38 40 41 41 37 36 36 35 35 35 33 28 28 26 28 27 22 22 24 24 22 21 19 17
15 12 19 22 25 24 19 15 15 14 12 10 11 11 11 7 6 5 10 15 18 21 24 28 32 35 36 35 37 39 37 36 39 41 41 40 35 31 33 34 33 32 29 29 28 26 21 18 19 21 22 21 19 18
16 19 25 22 25 22 19 17 12 10 10 9 9 10 6 5 8 12 16 19 21 22 25 31 36 35 36 38 36 35 34 37 37 35 33 31 28 28 30 31 29 30 31 27 28 26 24 21 19 21 21 21 20 19
22 23 24 21 17 14 10 9 9 9 10 11 12 11 10 9 10 13 17 20 22 25 30 34 34 34 33 29 31 36 37 32 36 38 37 35 33 31 31 32 32 30 28 26 24 25 24 21 20 18 18 19 19 18
22 20 18 15 13 13 12 11 11 12 12 11 11 10 9 9 12 14 17 19 23 28 30 32 31 30 32 37 37 31 30 34 39 38 36 33 33 31 30 28 25 23 23 21 20 23 23 22 21 18 17 19 19 18
21 18 16 16 14 13 12 12 12 10 8 8 9 7 9 11 12 14 18 22 25 28 29 28 25 29 36 39 33 28 31 34 33 32 32 32 31 29 27 21 16 12 14 16 16 19 21 21 21 19 18 17 18 19
19 19 18 16 14 14 13 10 8 7 6 5 6 9 13 13 15 18 21 23 26 27 27 27 28 31 38 34 31 33 34 32 31 31 30 29 25 23 21 14 8 8 11 12 13 15 17 18 19 19 20 20 20 20
15 15 16 17 14 12 10 8 6 5 5 6 8 8 10 16 19 23 25 25 25 27 28 26 28 33 36 30 32 33 32 32 34 33 29 24 19 17 16 12 9 8 10 12 13 14 14 15 16 17 19 20 21 21

GFSWCAN_700_spd_063.txt.gz
Wind_Speed
37 17 18 32 49 47 40 33 34 26 34 26 19 13 10 9 8 9 8 9 10 11 15 17 16 18 17 19 16 16 13 13 15 11 8 5 3 5 3 3 3 5 5 5 6 5 7 9 9 6 7 12 17 20
32 12 23 43 46 45 37 37 33 34 30 25 22 14 12 11 11 10 11 13 13 13 16 16 14 14 15 16 16 17 19 12 17 15 10 7 2 4 2 4 9 4 8 4 6 5 10 9 15 16 21 24 26 27
32 16 18 44 34 34 28 40 31 31 31 28 19 14 14 14 15 14 15 16 18 19 18 15 14 13 13 12 13 14 16 12 21 17 13 7 5 8 7 9 7 13 12 12 12 14 17 18 21 25 29 31 32 34
35 21 28 38 40 45 37 44 40 34 34 27 21 17 18 19 20 19 19 24 17 10 26 20 18 15 12 10 10 11 11 12 14 17 13 10 8 9 10 11 12 17 14 18 20 20 21 23 21 24 27 30 32 32
27 22 29 48 52 45 36 45 37 36 31 26 22 20 22 24 23 24 22 24 23 9 23 20 17 13 13 12 11 8 9 11 12 12 12 13 13 12 14 14 16 17 18 18 12 13 15 17 20 22 24 27 28 30
26 20 33 50 47 42 45 36 32 38 30 26 23 24 26 27 24 24 26 17 20 21 19 18 13 12 12 11 10 8 7 7 11 13 12 13 12 12 7 10 16 13 12 12 15 15 16 18 19 21 21 22 21 20
23 18 35 36 45 40 48 40 45 37 31 27 25 27 29 28 25 23 20 25 20 17 20 12 9 10 11 10 9 7 6 6 6 9 12 10 10 12 15 15 12 10 11 11 13 15 14 17 19 20 21 19 19 20
25 29 48 53 39 47 45 43 42 36 32 28 29 30 32 28 25 20 22 21 21 13 10 7 12 11 11 10 9 7 6 5 5 6 6 8 9 10 8 6 5 7 9 13 16 16 17 17 17 19 22 25 25 23
23 35 54 57 52 50 48 50 42 36 32 32 33 32 32 28 23 24 23 22 18 12 8 12 13 11 12 13 11 9 6 6 4 4 6 5 7 6 7 7 8 10 12 13 15 18 20 21 23 23 23 24 26 25
24 37 57 53 48 50 48 47 42 39 36 38 37 37 33 27 30 28 20 18 14 15 14 14 14 14 12 12 9 7 6 6 5 5 5 7 11 10 11 12 13 13 13 16 18 21 24 26 28 28 28 27 27 28
35 45 41 50 50 49 52 48 42 40 41 43 43 40 38 38 33 22 17 9 9 9 12 13 11 9 7 6 5 3 4 5 4 5 5 6 9 17 16 16 15 15 15 16 19 24 28 32 34 34 34 34 32 30
48 54 44 51 51 55 52 47 43 43 45 44 41 42 43 33 16 8 12 10 9 8 14 11 10 8 6 3 2 3 4 5 5 8 6 6 11 18 22 20 17 17 17 19 24 28 35 40 41 39 39 37 36 35
61 63 50 57 59 57 49 45 43 45 44 44 44 46 30 12 9 10 12 12 11 17 13 10 7 6 2 2 3 4 5 6 6 7 6 10 14 20 23 22 22 23 25 28 33 41 46 44 38 37 38 39 38 35
60 57 53 58 54 54 52 49 51 51 47 48 37 19 11 8 10 11 15 18 18 16 11 7 4 2 2 3 4 5 6 6 5 5 7 14 16 19 23 28 31 32 34 41 47 49 45 41 38 36 37 37 36 34
56 55 56 56 61 57 52 53 57 49 43 33 11 10 14 13 18 23 21 18 15 12 7 3 1 3 5 5 4 5 4 5 6 8 12 14 16 20 25 29 33 39 46 47 45 42 38 36 34 34 33 33 32 31
59 56 59 65 61 54 54 57 56 44 32 21 9 13 18 26 27 23 19 14 11 7 3 2 2 4 4 4 5 6 5 7 13 15 17 19 22 27 34 40 44 45 40 39 38 36 34 33 32 31 30 28 28 27
59 63 69 66 57 55 55 58 47 35 21 14 17 24 27 25 23 19 13 10 7 3 1 4 2 3 4 5 5 9 13 18 19 20 24 30 36 39 40 37 36 35 35 35 33 30 30 29 28 28 28 27 25 24
65 71 72 63 60 59 60 49 38 21 24 22 26 30 28 22 17 13 9 6 2 2 5 5 6 9 6 8 13 18 22 26 29 31 33 34 32 30 30 33 34 34 34 33 28 27 25 24 23 25 25 25 27 22
70 74 69 63 63 64 52 41 26 21 30 30 31 28 22 19 15 10 6 2 3 5 6 8 5 8 15 19 22 25 26 27 29 30 30 28 28 27 29 31 33 33 34 31 27 26 28 28 25 23 23 24 26 25
73 71 66 62 65 53 29 28 23 27 32 30 23 23 21 16 11 8 4 5 7 7 12 12 16 18 21 22 23 24 26 27 28 28 28 26 28 30 32 34 35 32 32 29 27 26 30 29 28 19 20 25 27 27
76 69 69 67 62 35 29 29 23 27 28 26 25 23 19 13 8 7 8 10 10 12 14 19 22 22 21 22 23 24 23 24 25 27 30 33 34 35 34 33 33 32 31 31 29 27 26 28 24 22 27 23 26 27
76 70 68 66 41 31 29 28 21 28 27 27 25 21 14 10 12 11 12 12 15 13 21 24 21 20 20 20 19 21 23 26 29 32 33 35 36 36 35 34 35 36 36 33 30 29 26 25 28 28 27 25 22 25
70 66 62 42 33 25 28 27 29 29 26 27 21 15 16 16 15 14 15 14 16 20 24 21 18 17 17 18 20 23 27 30 33 35 37 38 39 39 41 41 39 36 34 31 31 29 29 27 26 29 27 25 21 22
65 52 39 33 26 19 33 29 28 23 21 23 20 21 19 17 16 16 18 19 21 22 17 15 16 17 18 20 22 26 30 34 36 36 37 40 41 40 39 38 37 36 36 33 31 30 30 30 27 26 24 23 22 22
50 37 26 23 24 27 28 27 27 25 22 22 24 24 19 16 15 18 21 21 17 15 15 17 18 18 19 23 28 32 33 35 37 39 36 36 40 41 40 39 38 34 34 34 32 32 31 30 28 27 24 22 22 21
23 20 19 24 25 29 29 25 25 24 21 22 18 17 16 15 16 11 16 16 14 16 19 20 21 21 24 31 36 36 38 39 39 38 37 38 37 37 39 39 37 31 29 29 30 30 29 30 27 24 24 23 22 21
8 20 22 31 26 27 26 22 23 23 18 14 16 14 12 8 9 11 11 13 17 19 20 21 22 26 30 35 37 38 37 37 39 41 39 36 36 39 43 43 40 37 35 34 30 26 28 27 25 25 23 21 22 21
12 27 28 29 28 26 25 24 20 17 17 14 14 11 7 6 9 12 15 19 20 19 20 21 24 29 33 38 39 38 38 41 42 37 34 35 38 39 38 37 37 36 33 32 30 26 24 22 21 23 21 19 20 20
21 28 26 27 21 23 24 23 21 19 15 12 9 9 10 12 14 16 16 18 19 20 21 25 29 32 36 38 35 35 40 42 38 36 38 37 34 33 35 35 33 34 32 27 23 21 17 17 18 22 21 17 17 17
25 23 26 26 26 25 21 19 15 12 9 8 8 10 10 11 12 13 15 18 19 21 25 28 31 34 37 38 34 33 40 37 37 39 39 36 35 34 32 30 29 27 23 18 14 12 12 13 16 19 18 16 16 15
28 28 27 25 22 16 12 11 9 8 8 8 9 8 8 8 10 12 15 18 22 25 28 30 33 36 37 34 33 38 35 35 37 37 39 38 35 30 26 23 23 20 15 8 6 8 9 11 13 16 17 17 17 16
27 27 25 20 15 13 12 10 9 8 9 8 7 6 8 10 11 13 17 22 25 29 32 34 34 32 30 30 36 36 34 35 34 35 33 31 27 21 19 19 18 14 11 9 8 8 9 10 12 15 17 18 18 18
25 21 17 14 14 15 13 11 10 9 8 7 6 8 8 10 14 17 21 25 30 32 31 29 28 28 29 34 33 31 32 32 33 30 29 26 21 17 15 16 15 13 11 9 9 9 9 10 11 13 15 17 18 19

GFSWCAN_700_spd_066.txt.gz
Wind_Speed
31 27 25 23 15 17 28 30 29 24 29 30 32 24 20 16 15 14 11 14 13 13 12 18 17 20 22 20 20 16 16 14 13 11 9 6 4 6 5 6 6 7 6 5 6 3 5 7 8 8 6 9 12 15
30 27 24 21 12 24 31 28 27 21 32 30 27 23 21 18 16 14 12 11 12 14 12 18 18 19 20 21 19 17 19 12 13 14 11 8 6 5 5 3 10 6 9 7 5 9 10 8 10 12 18 20 24 28
28 26 22 17 3 23 28 29 27 25 28 26 23 23 20 18 15 13 12 14 15 13 18 19 17 17 18 19 20 20 20 16 15 18 12 10 6 8 5 7 6 12 12 13 12 15 16 14 16 19 22 25 27 30
27 24 23 21 13 21 29 19 26 32 24 28 23 19 20 19 18 13 14 15 16 18 16 19 15 15 14 15 16 16 15 17 12 16 15 13 10 8 12 12 11 12 10 14 17 17 16 20 22 20 21 25 28 30
25 22 28 18 23 28 31 32 32 32 32 30 23 19 21 19 19 19 20 22 16 12 22 21 17 14 13 13 13 14 14 13 12 15 15 13 12 11 12 13 15 15 17 17 19 17 15 15 18 20 21 24 25 26
24 22 27 25 25 34 33 30 28 35 36 30 27 21 23 24 24 25 19 22 11 18 21 19 17 15 13 11 11 11 11 12 11 12 11 11 10 9 7 10 15 13 15 16 17 15 16 19 21 23 24 25 25 25
24 22 24 31 28 39 36 28 26 37 35 29 26 25 27 25 25 24 25 17 22 18 16 16 14 14 14 12 11 10 9 9 9 9 10 8 9 12 16 18 15 12 13 13 14 15 16 18 21 23 24 24 23 24
23 23 21 26 34 41 35 27 30 40 34 32 30 29 29 26 26 21 19 23 18 18 12 6 14 14 15 13 13 10 9 9 8 7 6 8 11 13 8 9 10 10 9 11 13 14 15 18 19 21 24 26 27 27
24 27 26 27 20 34 38 31 36 42 35 32 31 30 29 27 26 18 24 19 19 9 7 13 16 16 16 15 13 11 9 8 7 6 7 6 9 8 10 12 12 10 12 12 13 15 15 16 19 22 26 30 33 34
36 39 45 45 39 33 32 34 43 38 37 36 34 35 32 27 21 22 21 18 14 10 10 17 12 16 17 16 13 8 7 6 4 6 6 9 14 14 14 15 16 16 16 16 16 16 17 20 24 26 29 34 40 39
41 44 50 54 52 49 40 37 44 41 39 39 39 39 34 23 24 21 13 9 9 8 12 15 16 14 12 10 9 5 3 4 4 5 6 5 5 14 21 19 19 19 18 19 20 20 23 28 32 36 40 44 47 41
42 39 49 53 48 42 39 51 48 44 42 40 36 32 32 27 15 7 12 9 9 8 15 16 13 10 9 6 3 4 4 4 5 6 6 5 11 14 16 20 21 21 21 22 25 29 33 38 43 49 50 48 43 40
43 35 37 48 45 41 46 49 43 39 40 38 30 33 25 15 14 10 15 12 10 15 21 16 12 9 6 2 4 5 5 6 5 6 5 8 12 12 16 20 23 25 28 31 35 40 43 47 47 45 43 39 38 38
37 39 43 51 43 42 57 50 44 46 42 34 24 18 14 8 11 11 18 16 14 22 19 15 11 5 2 2 3 3 5 3 4 4 5 12 13 14 17 20 23 26 31 35 40 43 40 38 37 34 34 34 35 36
45 53 39 46 44 52 53 46 47 46 39 24 10 14 12 12 16 17 18 19 21 20 15 12 8 2 3 4 2 3 3 4 4 6 12 16 16 18 20 23 30 36 38 36 35 34 33 33 31 31 30 31 32 33
61 63 45 49 48 56 50 49 48 45 32 23 11 13 15 17 22 26 25 21 18 15 12 6 2 1 3 3 3 5 4 4 8 14 16 18 21 27 32 35 35 34 33 32 32 32 32 30 29 28 28 30 32 31
67 62 50 53 61 51 49 50 46 37 24 16 14 18 20 26 31 30 24 18 15 11 7 2 2 2 3 4 4 5 8 14 18 21 25 29 32 32 31 29 29 30 31 32 33 33 30 28 26 27 28 30 29 28
57 58 54 65 58 55 55 52 39 23 22 22 17 22 31 31 27 23 20 17 10 5 2 2 6 6 4 6 10 16 20 22 24 26 27 28 27 26 26 27 29 31 34 36 34 32 30 27 25 26 27 27 27 26
61 58 63 69 61 61 56 43 32 22 22 20 25 34 33 28 23 20 16 9 4 3 8 7 3 4 10 16 18 18 19 22 25 27 25 24 24 25 27 30 32 33 33 33 33 32 31 28 25 26 26 26 25 30
58 60 71 61 57 50 34 33 29 27 26 28 34 33 30 26 21 15 10 4 3 8 10 8 10 14 18 19 18 19 21 24 25 25 24 24 27 29 30 32 33 33 32 31 32 32 31 30 27 24 25 28 30 30
59 68 63 58 51 37 27 34 25 25 33 33 35 32 27 21 16 12 6 5 8 11 11 12 15 20 22 20 19 18 20 22 24 27 30 32 32 33 33 32 34 36 37 37 36 31 28 28 25 25 27 26 28 29
71 69 66 62 39 32 31 33 26 34 37 38 33 26 20 18 13 7 7 11 12 11 12 15 19 23 20 17 17 19 21 23 26 31 34 36 36 35 36 36 37 37 37 37 36 35 31 28 26 25 27 28 27 25
75 68 64 43 31 25 29 30 32 37 31 33 26 23 23 17 12 11 14 13 12 13 16 20 22 18 16 17 17 20 24 29 33 35 36 37 37 36 35 35 36 39 39 37 37 37 34 30 28 28 27 27 27 24
69 58 43 34 27 22 36 32 32 31 30 29 28 25 20 15 15 16 17 16 15 17 21 21 18 16 18 17 18 21 27 32 35 35 35 36 35 36 38 39 37 34 36 38 35 32 30 28 28 28 27 26 26 24
57 37 25 24 27 30 31 32 30 29 32 32 29 25 21 18 16 18 17 15 18 20 20 18 17 18 18 18 20 25 32 36 39 39 34 38 41 41 38 35 35 38 39 37 34 32 28 26 26 26 26 25 23 22
20 22 24 31 29 31 30 30 27 28 29 30 25 23 21 19 16 9 13 17 18 18 17 18 20 19 19 24 28 31 36 39 40 40 39 42 41 39 39 41 42 38 36 34 34 32 30 27 25 24 23 21 22 20
16 29 29 32 30 33 29 28 28 25 23 23 23 20 17 10 7 12 13 15 17 17 19 20 20 21 23 26 30 35 39 41 40 39 42 40 39 42 44 43 40 39 38 36 34 32 29 26 22 21 19 19 18 18
28 33 34 33 33 33 28 28 26 23 21 18 18 15 7 6 9 13 16 16 17 19 19 19 21 23 26 30 35 38 41 41 37 39 40 37 39 41 42 41 40 39 37 35 33 30 22 16 16 14 15 15 15 14
37 38 36 33 29 28 24 26 23 21 19 16 12 11 12 13 14 14 15 16 16 17 18 20 23 27 31 34 37 40 40 38 39 42 39 40 39 38 38 36 33 28 27 26 25 21 16 11 10 10 10 11 12 12
38 37 34 31 30 28 25 21 20 15 13 12 11 11 12 12 12 12 12 13 15 17 20 24 28 32 35 37 36 31 31 35 38 38 40 39 39 37 34 28 23 22 22 20 17 14 8 5 6 7 8 9 10 12
37 37 33 30 25 21 23 19 16 15 13 11 11 11 11 9 9 10 12 13 16 19 24 28 32 33 32 31 30 29 34 34 34 36 37 37 35 33 28 24 22 22 20 16 13 11 9 8 7 6 7 8 10 12
25 24 26 25 23 21 19 16 13 11 10 10 10 9 8 8 8 10 12 15 18 23 27 29 28 29 29 29 29 32 32 33 32 32 32 30 29 27 24 22 20 20 18 15 12 10 9 8 7 7 7 9 11 13
26 24 24 25 22 18 14 12 11 11 11 9 9 8 8 9 9 10 13 17 22 25 26 26 27 28 28 28 30 29 29 29 29 29 29 26 24 23 22 20 20 18 17 15 13 11 9 9 9 8 9 10 12 14

GFSWCAN_700_spd_069.txt.gz
Wind_Speed
35 32 31 28 25 14 10 15 18 18 17 14 29 24 29 23 19 18 17 15 15 13 10 18 19 21 20 21 22 20 18 17 16 13 9 6 6 9 7 6 5 6 8 8 9 5 3 6 9 10 9 8 9 11
34 30 27 24 22 11 14 24 21 19 15 19 27 24 27 21 18 17 15 14 13 16 11 16 17 18 18 15 17 18 18 16 14 14 12 9 7 9 9 8 11 9 9 7 6 5 4 6 9 9 11 15 19 23
33 28 24 19 19 10 12 23 21 16 12 15 20 33 25 22 18 15 14 13 14 15 10 18 19 18 20 19 17 15 18 13 15 17 14 10 6 10 9 10 10 12 12 11 10 11 11 16 18 18 16 19 22 24
29 26 21 15 15 11 12 23 19 16 12 15 29 37 27 22 19 16 13 15 16 13 10 19 18 17 17 16 16 18 17 18 15 14 17 14 10 8 11 11 11 12 10 12 16 17 15 19 20 19 18 19 21 23
27 23 18 12 16 13 16 19 17 19 19 27 38 28 24 20 17 15 17 15 13 14 9 20 17 16 14 13 13 13 15 16 16 14 15 14 13 10 11 14 15 15 15 16 18 15 17 18 18 19 20 21 23 25
25 20 17 15 18 16 24 24 17 21 21 34 37 25 23 22 20 21 19 19 13 7 15 20 16 16 14 13 12 12 12 12 12 12 12 12 11 10 6 7 9 11 12 14 15 16 15 16 18 20 20 20 21 22
23 18 18 18 16 15 21 21 19 19 26 37 28 24 22 21 23 20 16 17 14 20 12 17 16 17 16 14 14 13 12 11 11 10 11 9 10 12 15 16 13 14 13 13 14 15 15 17 18 18 18 17 17 18
20 18 19 22 22 17 25 24 22 19 33 32 25 25 26 28 25 16 17 20 22 15 11 7 11 18 17 15 14 12 11 11 11 10 7 10 10 10 7 11 11 13 13 13 14 15 15 16 17 18 19 22 22 25
20 19 21 23 27 21 26 26 24 30 29 33 25 26 30 28 19 17 18 19 18 11 6 9 17 18 19 16 14 12 11 10 7 9 9 7 10 8 11 13 12 12 14 16 16 17 18 19 20 21 24 27 31 33
20 20 23 25 27 23 27 28 27 38 35 31 31 32 30 25 17 18 20 15 16 7 5 14 18 15 20 18 15 11 9 8 4 9 8 10 12 17 14 14 16 18 18 19 19 20 24 24 27 29 31 35 40 45
20 26 31 30 25 29 31 30 44 45 39 35 36 34 26 24 15 20 10 12 10 6 12 18 12 18 18 16 14 8 5 5 5 7 7 6 10 13 11 13 17 20 21 22 24 27 30 32 36 40 43 44 42 40
26 39 45 42 40 32 35 32 50 43 40 35 34 29 27 22 10 7 12 10 9 9 16 17 17 15 14 11 7 7 4 5 4 6 5 5 9 8 10 13 15 19 22 24 28 30 34 37 41 45 43 38 35 35
32 44 56 53 45 38 37 40 45 39 35 34 29 31 24 12 11 10 15 14 11 15 22 21 16 13 11 6 4 4 4 5 4 5 4 3 5 9 10 13 16 19 22 26 29 34 39 40 36 33 32 31 31 31
32 54 57 52 48 48 41 49 46 41 40 35 25 20 12 8 11 11 20 19 13 19 24 18 14 9 7 6 4 4 5 3 3 3 2 8 13 15 15 17 18 22 28 33 33 30 30 30 30 29 28 28 29 27
37 46 51 47 45 43 44 51 46 42 41 26 11 13 12 12 15 12 19 20 17 26 20 17 13 7 6 4 4 4 3 3 3 3 11 16 17 18 21 25 27 29 29 27 27 28 29 31 31 30 27 26 26 28
41 38 48 41 45 42 54 51 47 46 31 23 10 12 18 13 18 19 22 24 26 24 20 14 7 4 5 3 4 4 2 2 6 14 16 20 24 25 27 28 28 27 27 27 29 31 32 32 31 28 25 25 25 28
43 50 54 42 45 52 54 48 49 38 23 17 10 16 22 17 20 26 28 27 24 20 14 6 4 4 2 3 3 2 5 12 17 20 21 24 26 27 27 26 26 27 28 30 33 34 33 31 30 28 26 25 24 25
53 57 54 49 54 60 54 55 44 20 23 23 15 21 19 25 30 31 29 25 21 16 8 4 1 5 3 2 5 10 15 18 19 21 22 25 25 25 26 28 30 31 32 33 34 35 33 32 32 31 27 25 26 25
57 61 55 56 66 61 58 50 35 23 26 24 16 22 31 34 32 27 24 20 16 9 4 5 1 1 3 7 11 13 15 17 20 21 21 23 24 26 30 32 34 34 33 32 33 34 34 32 31 30 27 26 26 25
60 57 56 65 62 56 33 37 32 26 28 23 25 37 37 33 29 26 21 17 9 4 3 5 5 5 10 14 15 15 16 19 21 22 21 22 27 31 31 32 32 33 34 34 34 34 33 29 26 27 27 27 27 26
63 57 67 65 61 39 22 40 29 26 27 32 41 38 34 30 26 22 17 10 3 3 6 8 7 11 16 18 17 17 19 22 23 24 28 30 30 32 33 32 33 34 35 34 35 34 32 31 30 28 27 25 25 27
65 67 70 64 42 31 34 38 26 33 32 42 40 37 32 27 22 18 10 5 2 6 8 8 12 16 18 17 18 20 21 21 23 27 31 35 38 36 34 33 35 36 37 36 34 33 33 33 30 28 26 24 24 24
71 70 67 51 33 22 36 34 33 38 32 40 37 32 30 25 17 12 9 6 5 8 9 11 15 17 16 18 21 22 22 22 24 30 34 38 39 36 36 38 36 35 34 33 32 33 34 32 29 27 25 23 23 22
70 72 45 28 28 18 45 35 35 40 37 39 34 29 24 19 16 15 12 9 9 11 11 14 15 15 16 20 22 23 24 26 28 30 37 41 41 36 37 37 35 35 36 37 35 32 30 29 28 25 25 24 21 20
63 36 20 24 25 38 39 41 38 38 42 43 33 27 22 21 18 15 13 12 12 11 12 13 14 15 19 21 22 24 27 30 33 35 38 40 37 36 37 36 36 37 37 36 34 32 29 28 26 25 23 24 21 18
21 21 22 32 32 38 36 40 34 37 42 34 26 26 22 21 18 8 11 8 10 11 12 13 15 19 20 21 23 26 29 33 36 39 39 36 37 39 40 41 42 40 39 37 34 29 27 26 25 22 20 19 18 14
14 27 32 33 34 33 34 33 33 35 29 22 26 26 23 15 11 12 10 8 10 12 12 15 17 18 21 25 28 31 35 38 40 37 34 37 37 39 41 42 41 40 35 29 27 26 26 23 18 15 12 12 13 10
29 37 38 36 34 33 33 34 33 28 23 22 23 23 11 11 12 9 8 10 11 12 14 15 17 20 24 27 31 34 35 33 29 30 34 35 36 37 37 37 36 32 28 29 28 25 23 20 15 11 8 7 8 6
42 42 36 34 36 36 35 33 26 23 22 21 21 21 19 15 10 9 10 11 12 12 13 16 19 23 27 31 33 32 30 28 30 31 32 33 33 33 32 32 28 26 25 24 24 21 18 16 12 7 5 6 5 5
44 42 40 38 37 35 31 27 22 20 19 19 16 16 12 9 9 9 10 10 10 12 14 18 22 26 27 26 24 25 26 29 29 31 32 33 32 30 29 28 25 24 24 23 20 17 15 13 11 8 6 4 4 5
45 43 40 38 31 26 25 22 21 21 22 19 14 10 8 8 8 8 8 9 10 13 17 20 23 24 24 24 24 23 26 27 28 29 30 30 29 27 27 27 25 24 23 21 19 16 13 12 10 7 5 4 5 6
38 42 38 32 30 29 26 25 23 20 17 13 10 10 9 8 8 8 8 9 11 15 18 21 22 22 23 23 24 25 25 26 25 26 26 25 25 24 23 23 23 23 22 21 19 16 13 11 9 8 6 6 6 8
37 36 32 30 30 30 27 25 21 16 13 12 11 10 10 10 9 8 9 10 13 17 19 19 20 21 22 22 23 23 24 23 23 23 23 23 23 23 22 21 21 21 21 21 19 17 14 12 11 10 9 9 9 10

GFSWCAN_700_spd_072.txt.gz
Wind_Speed
35 32 30 26 25 23 16 13 19 12 8 11 13 19 19 26 24 22 19 19 19 15 16 22 21 21 21 23 22 22 20 20 20 15 11 6 5 8 7 7 6 10 9 10 12 6 9 12 16 15 12 12 11 13
34 29 27 22 21 16 14 11 12 15 8 9 10 17 23 22 23 21 19 18 19 17 8 18 19 18 17 21 23 17 19 18 16 16 11 9 6 8 9 6 11 7 9 5 8 7 9 7 10 11 12 12 13 16
32 26 24 20 18 9 11 9 15 11 7 7 9 19 27 20 18 17 17 17 17 15 9 15 20 21 19 18 19 19 19 12 18 16 12 10 6 7 8 11 9 13 12 11 10 13 14 14 14 15 16 16 19 23
30 24 22 17 13 6 4 4 9 11 7 10 12 17 22 19 19 18 16 17 17 13 8 18 19 20 20 19 17 17 16 16 13 13 15 13 9 7 11 12 10 13 11 13 18 19 19 19 19 21 20 19 20 21
28 21 20 15 9 3 5 6 8 13 8 13 15 20 22 19 20 19 16 17 17 13 5 19 19 17 18 18 17 17 17 16 15 14 13 15 16 13 13 13 13 14 15 15 16 16 17 19 20 20 20 22 21 21
26 19 16 12 8 6 8 9 12 13 12 11 16 28 21 20 19 17 17 21 17 14 7 18 17 18 17 16 16 15 15 15 14 15 14 13 11 11 7 7 9 12 15 17 18 18 18 19 21 22 20 21 22 21
23 16 14 10 11 11 9 8 11 16 16 16 25 21 18 19 20 20 17 17 18 11 12 10 15 18 16 16 14 14 14 13 12 12 13 10 11 13 14 14 13 12 12 14 14 15 16 18 19 20 20 21 20 21
21 13 13 11 14 15 12 11 13 19 16 24 27 21 21 22 21 20 19 17 21 14 10 6 11 18 17 16 15 14 13 13 12 11 9 11 11 10 8 12 11 11 13 14 15 15 15 17 19 21 22 24 24 27
18 14 14 15 18 20 17 16 20 21 19 29 29 22 22 23 20 19 18 24 14 8 6 6 16 18 18 16 14 13 12 11 8 11 12 8 12 10 12 12 11 12 13 14 17 19 19 21 22 25 28 30 34 38
18 17 16 18 24 25 23 24 24 21 31 33 26 25 30 21 20 21 17 15 10 6 5 6 20 15 22 20 16 11 9 9 5 11 10 14 18 17 15 14 15 15 17 18 20 21 22 24 27 30 32 35 39 42
21 19 18 23 28 31 27 32 30 31 41 30 30 32 26 21 22 15 8 9 8 5 6 14 17 17 20 18 15 10 5 5 5 6 9 6 9 9 7 8 11 13 15 18 20 23 26 29 33 35 37 39 38 34
22 20 22 27 36 38 34 38 38 44 37 29 30 28 23 18 10 7 9 9 8 8 14 18 15 19 19 15 11 7 5 4 3 4 6 4 3 2 5 8 11 13 15 18 22 25 29 33 37 37 35 34 32 32
22 22 24 32 38 39 40 41 44 36 35 30 27 26 16 11 11 9 13 11 9 14 22 20 21 17 17 11 6 4 4 5 3 4 3 1 2 7 11 13 15 17 20 23 27 32 34 32 30 30 31 31 31 30
25 27 31 38 37 44 41 41 44 41 36 31 23 19 13 9 10 11 17 16 11 17 23 22 18 14 12 10 4 3 4 3 4 4 2 5 11 13 16 17 20 22 26 28 29 29 29 29 29 29 29 29 30 30
31 34 36 46 37 36 40 47 48 43 41 28 12 13 16 14 11 14 19 21 16 23 25 21 18 10 11 4 4 4 3 3 3 3 8 15 18 19 20 22 24 25 26 27 28 28 29 31 32 31 28 28 30 31
36 34 44 56 49 39 46 51 48 47 43 24 11 14 19 16 15 15 23 21 19 28 24 19 12 6 6 4 5 5 3 3 4 12 17 20 20 20 22 23 24 25 27 29 30 32 33 34 34 33 30 29 32 32
41 39 57 54 50 43 52 54 49 46 26 18 14 19 20 16 18 20 25 24 29 26 23 12 7 6 5 4 5 4 3 10 16 19 19 19 20 21 22 23 26 29 32 34 36 35 35 35 35 36 36 34 34 34
42 38 57 54 52 45 55 54 48 22 25 25 19 20 19 17 22 25 31 30 27 24 17 9 6 7 4 5 5 7 10 13 16 16 18 19 20 21 24 27 31 35 36 37 37 37 36 36 36 35 35 35 33 32
32 40 54 50 53 57 59 56 40 20 29 30 20 18 19 24 29 33 31 28 23 17 11 6 4 6 5 4 5 9 11 13 14 15 17 19 20 24 28 32 35 37 38 37 37 36 36 36 35 35 35 36 36 33
34 42 53 48 57 58 32 47 32 22 32 33 21 19 26 34 36 33 29 24 20 14 8 4 2 1 2 6 9 11 12 14 15 16 16 20 24 27 31 36 38 37 35 34 35 38 38 37 35 34 34 34 34 31
43 42 52 56 66 41 17 47 27 26 37 30 23 31 39 39 36 32 28 22 15 9 4 1 1 3 7 10 11 13 15 17 19 20 21 23 27 32 35 37 39 36 35 36 35 34 33 34 35 33 33 32 30 28
57 54 58 67 49 23 28 39 26 38 37 27 35 44 42 38 34 29 24 17 10 5 1 2 4 7 10 12 13 15 18 19 21 24 27 32 35 37 39 42 40 36 35 34 35 36 36 36 35 33 32 30 28 25
68 61 68 59 29 16 32 39 30 38 22 38 45 42 41 37 31 26 19 14 7 2 2 5 8 11 13 14 16 18 19 21 24 27 30 34 36 40 42 38 37 36 35 36 37 37 36 35 33 32 30 29 28 25
66 71 51 27 19 12 45 38 36 40 31 43 40 39 40 35 30 23 16 10 6 4 6 8 11 14 15 16 18 19 20 22 25 30 35 38 40 38 32 33 35 36 38 37 37 36 34 32 31 30 29 28 25 24
45 39 22 23 20 35 44 40 41 43 46 38 36 38 37 31 24 20 15 10 7 7 9 11 13 14 16 18 19 20 23 27 30 33 37 37 32 28 31 33 34 36 36 34 30 27 25 26 26 27 26 24 21 17
30 17 20 27 27 45 40 38 40 41 48 36 26 36 31 27 23 13 17 13 10 9 10 12 13 14 16 17 20 23 27 31 34 34 32 29 29 31 34 35 34 32 32 29 28 27 25 25 25 21 18 15 11 8
17 24 30 35 34 46 37 31 36 39 38 27 31 31 24 14 17 15 13 14 13 11 11 13 13 14 15 18 22 26 30 32 31 27 27 28 30 32 33 34 32 30 28 26 26 25 23 23 22 17 13 11 7 5
19 32 35 36 41 43 39 35 39 38 31 29 30 27 19 12 15 10 15 13 11 11 12 12 12 13 16 20 25 29 29 27 24 25 27 30 30 31 31 30 29 28 28 28 26 22 20 20 19 15 11 9 8 5
37 40 37 40 40 38 39 36 33 31 27 28 32 30 23 18 14 14 13 10 10 11 11 11 11 14 18 23 27 27 25 22 22 22 24 25 26 27 26 25 25 25 25 25 26 23 19 17 16 14 12 9 6 3
45 41 43 43 45 40 36 33 31 29 28 27 26 26 24 19 16 13 10 11 12 11 9 10 12 15 20 25 26 24 22 22 21 23 24 25 25 24 23 22 22 23 23 23 22 21 18 15 14 12 10 7 4 2
46 42 43 41 37 38 34 31 28 24 20 21 20 20 21 19 16 13 12 12 10 9 9 10 13 18 21 21 20 20 20 20 21 22 23 24 24 23 22 21 21 21 21 22 21 20 18 15 13 12 10 8 6 6
46 44 43 42 38 36 30 27 23 22 24 24 23 22 19 15 13 13 12 11 9 8 9 12 15 19 19 18 19 18 18 19 21 21 22 22 22 22 20 20 20 21 21 21 20 20 19 17 14 12 10 10 9 9
44 41 40 40 38 33 30 30 28 28 28 25 21 17 15 14 13 12 11 10 9 9 10 13 16 17 17 17 18 17 17 19 19 20 20 19 19 18 18 19 19 19 20 20 20 20 19 18 17 15 12 10 10 10

GFSWCAN_700_spd_075.txt.gz
Wind_Speed
38 40 36 31 28 25 18 20 24 20 10 10 12 12 13 15 20 19 18 17 14 9 22 25 25 26 20 20 19 20 18 19 19 14 9 5 4 6 5 4 3 7 6 6 8 5 7 6 11 13 9 10 13 12
35 36 32 28 25 19 14 13 16 13 9 8 8 8 13 20 23 16 14 14 14 12 16 24 22 23 22 19 19 17 16 17 15 14 10 8 5 5 8 4 9 6 9 4 7 5 8 7 8 13 15 16 16 17
32 31 28 24 23 16 6 9 17 10 6 3 5 12 21 26 19 17 13 14 14 12 10 20 23 21 21 20 21 17 20 9 18 16 10 8 5 7 7 10 10 10 12 13 11 12 15 14 14 15 17 19 22 22
31 28 26 22 18 12 4 6 10 3 4 2 7 12 19 16 16 16 15 13 13 11 7 17 21 20 19 20 21 23 17 15 13 14 15 12 8 7 9 10 10 12 12 13 17 18 18 19 19 21 22 24 25 24
29 26 25 20 14 10 4 1 5 2 2 4 8 11 19 16 16 16 14 15 15 12 6 14 18 20 21 20 19 20 18 18 15 14 13 14 15 13 12 13 14 15 16 17 18 18 18 19 21 23 24 26 26 27
24 26 22 17 11 9 7 5 1 2 4 5 10 11 21 18 16 18 15 16 16 14 3 16 17 19 21 21 19 18 18 17 17 17 16 16 14 12 7 9 13 15 16 18 20 20 20 21 21 22 23 25 25 27
23 22 19 15 10 10 10 6 4 3 6 9 14 17 16 17 15 16 13 15 16 9 8 5 12 18 18 19 18 17 17 17 17 16 15 13 12 14 17 17 12 11 13 14 16 18 19 20 21 22 23 25 26 27
23 20 16 13 8 11 13 8 6 7 11 9 13 22 19 14 13 13 11 17 16 13 8 3 7 18 19 18 18 16 16 14 14 13 11 13 12 13 11 13 13 14 14 14 16 17 18 19 21 24 25 26 28 30
21 18 15 13 10 12 16 14 11 13 15 17 20 19 17 15 15 13 16 19 17 10 4 5 9 16 20 18 17 15 13 12 9 14 13 9 14 11 11 10 10 12 13 15 16 18 20 21 23 25 26 28 33 34
21 19 16 15 14 14 21 18 18 18 16 24 24 17 19 16 16 19 18 16 9 7 7 5 14 13 21 19 16 12 9 9 4 11 10 15 22 19 16 14 14 14 14 14 16 18 20 22 25 27 30 33 36 38
23 20 19 17 18 17 25 24 22 21 23 28 28 22 20 20 22 15 10 11 9 5 8 10 17 14 21 19 15 9 5 5 5 7 9 6 6 5 7 8 7 10 13 15 17 20 23 26 29 32 34 34 33 31
23 21 21 20 20 22 28 30 28 24 27 31 25 21 21 21 8 7 10 9 8 9 8 14 19 19 22 17 11 8 4 5 4 3 6 4 3 3 2 6 11 14 16 18 21 24 28 31 34 35 34 33 33 32
23 22 22 23 23 27 33 35 30 25 31 30 24 23 17 14 12 10 13 11 9 10 14 21 21 21 20 12 7 5 5 5 3 4 4 4 3 5 11 15 17 18 20 22 25 28 31 33 32 32 33 34 34 34
23 22 23 26 26 30 37 39 35 34 36 27 21 19 15 11 10 10 15 18 11 10 21 20 22 13 16 12 5 4 5 3 3 3 4 4 8 14 17 19 20 21 24 25 27 29 31 32 33 33 34 35 35 34
24 24 26 28 27 33 40 43 40 39 42 21 16 13 19 13 9 15 14 18 14 16 23 24 19 12 15 6 6 4 3 3 4 3 4 12 17 19 19 20 22 22 24 26 29 32 32 34 36 35 34 34 35 35
25 27 29 28 28 34 44 45 43 44 41 19 14 13 20 22 15 13 15 20 17 24 28 23 14 8 8 5 5 5 3 4 3 8 14 18 19 19 21 22 23 24 27 30 33 35 37 38 37 37 37 37 38 37
30 28 28 27 33 33 43 48 49 52 27 18 23 18 20 23 19 16 20 24 24 31 29 16 10 8 6 5 6 5 5 7 11 14 16 17 18 20 22 22 24 27 30 34 37 38 39 38 37 37 39 39 39 37
32 29 30 35 38 35 42 49 52 25 25 27 28 20 22 22 20 20 23 25 31 31 25 14 10 10 6 5 7 7 8 10 12 14 15 17 19 21 23 25 28 32 35 37 39 38 37 38 40 41 42 42 41 39
31 32 38 45 45 43 47 54 53 20 25 29 30 23 26 21 21 22 25 31 33 26 18 13 6 8 7 9 9 8 8 10 12 14 16 18 20 23 26 29 32 36 38 41 40 37 38 39 40 42 43 42 42 40
33 35 42 44 46 45 44 29 46 20 28 34 32 27 23 22 24 27 33 33 26 21 15 11 7 5 7 6 6 7 9 10 12 14 17 20 23 26 29 32 36 39 43 40 36 37 39 40 40 42 42 42 41 38
37 41 51 44 40 44 39 23 44 20 28 35 33 23 24 26 30 38 36 30 24 21 15 10 6 5 4 5 6 8 10 12 13 14 16 20 25 28 32 36 39 41 38 36 37 38 40 41 42 41 40 38 35 33
39 44 45 53 46 44 35 28 33 26 28 38 32 23 27 34 40 37 32 28 22 17 12 7 4 4 4 5 8 11 13 14 15 17 20 24 28 32 35 38 35 32 34 37 39 39 39 39 38 36 35 33 31 29
41 41 45 45 35 33 24 32 31 30 25 38 34 28 37 43 40 36 27 28 21 15 10 5 3 4 5 9 11 14 15 17 19 21 25 30 34 36 35 33 34 36 37 36 36 36 35 34 35 35 33 31 29 26
41 53 45 34 31 25 34 35 33 33 32 38 36 33 43 43 39 34 26 28 19 13 7 4 4 6 8 11 13 15 16 19 22 26 30 32 32 30 29 31 34 35 33 33 32 32 34 34 33 32 31 28 25 21
44 36 32 28 31 28 38 38 37 41 43 42 36 38 43 41 37 32 28 25 18 11 7 6 7 9 10 12 14 15 17 20 24 29 31 30 28 26 27 31 33 32 30 28 27 29 30 29 28 28 26 23 19 14
29 13 26 30 38 34 35 35 41 40 42 34 30 34 42 32 28 22 29 22 15 11 9 9 10 11 12 13 14 15 18 23 27 29 29 27 25 25 28 28 27 27 27 27 27 27 26 25 24 23 21 18 15 12
22 17 34 39 37 41 39 35 34 38 38 26 32 36 31 20 16 17 22 19 18 15 13 12 12 12 12 13 14 17 21 25 28 28 26 24 25 27 27 26 26 25 25 24 25 26 24 21 21 19 17 15 13 10
17 26 42 38 38 41 37 33 33 37 37 28 34 32 22 22 22 26 25 21 16 14 13 12 12 11 12 13 15 18 22 25 26 25 24 24 26 27 26 25 25 25 25 24 23 24 23 20 19 18 15 13 11 8
25 33 39 37 38 41 36 36 32 35 38 31 35 34 27 28 25 22 18 18 19 16 13 12 11 12 12 13 15 19 22 23 23 22 22 25 26 25 24 24 23 22 23 23 23 22 22 19 16 16 14 11 8 6
37 42 42 42 42 39 37 34 31 35 34 33 34 32 30 25 23 21 17 17 14 13 11 10 12 12 11 13 16 20 21 21 20 19 20 21 22 21 21 19 19 20 20 20 20 20 21 20 17 15 12 9 7 6
43 42 42 42 40 38 35 31 31 32 32 30 29 29 30 26 21 21 19 15 13 12 12 11 11 10 11 14 18 19 19 20 19 19 20 20 19 19 18 18 18 19 19 19 19 18 18 18 18 16 14 12 10 9
44 43 43 41 42 41 38 36 36 33 31 29 27 25 23 23 24 22 19 16 14 13 12 11 10 11 12 15 17 18 18 18 17 18 19 18 18 17 16 17 18 18 18 18 18 18 17 18 17 16 16 15 13 12
44 43 42 43 44 45 40 36 34 35 31 26 26 27 25 24 24 21 18 16 14 13 11 10 10 11 13 15 16 17 17 16 16 17 17 17 16 14 15 16 17 18 18 18 18 18 18 18 17 17 17 16 15 14

GFSWCAN_700_spd_078.txt.gz
Wind_Speed
35 32 34 33 29 26 16 18 22 14 8 7 7 12 14 15 15 14 11 8 6 6 13 18 17 20 17 15 15 14 13 16 14 9 6 2 2 4 4 3 2 3 4 4 6 5 6 3 6 7 8 10 12 14
31 31 31 29 26 23 14 13 16 9 10 5 4 8 16 12 16 11 10 8 7 3 14 17 18 19 17 13 15 12 12 11 11 11 7 5 4 4 6 3 7 4 7 2 7 4 5 8 9 10 11 14 16 16
27 27 27 25 23 19 13 7 9 3 6 5 4 6 12 15 15 13 9 9 8 2 11 19 19 20 18 15 15 13 17 5 14 12 7 6 5 5 5 7 8 7 10 10 10 10 12 13 14 15 15 18 20 22
27 23 25 22 20 16 13 8 5 2 2 4 3 7 14 15 12 10 8 8 10 9 5 17 18 18 19 19 17 18 14 14 9 11 13 12 8 6 8 9 9 11 12 12 15 15 17 17 17 19 20 22 25 27
28 24 23 23 18 14 14 10 2 6 1 5 10 17 17 11 12 13 11 10 13 9 6 9 17 20 19 18 18 20 19 15 14 12 12 12 14 14 14 15 16 15 16 17 18 17 18 19 19 21 24 25 27 28
26 22 23 20 20 13 13 12 6 8 4 6 11 19 15 10 11 12 10 10 12 13 4 6 14 19 20 18 18 18 20 19 17 16 14 15 14 11 9 11 12 13 15 17 18 19 19 20 21 23 24 26 26 27
24 22 20 20 18 16 12 12 10 10 10 8 11 15 20 15 11 13 9 8 12 11 5 4 8 17 19 19 18 17 17 17 16 16 18 18 15 15 22 24 17 15 13 14 17 18 19 21 22 23 24 25 26 28
23 21 21 19 16 17 13 12 13 13 12 11 14 15 19 17 14 11 9 9 13 9 9 4 5 15 19 20 20 19 17 16 17 18 16 14 15 16 12 12 12 14 15 16 16 17 19 21 22 24 26 27 28 29
23 20 20 18 16 16 15 12 13 11 12 13 17 19 18 15 13 11 8 10 15 12 5 5 6 10 19 18 18 15 14 13 12 14 15 11 15 12 10 9 9 12 13 14 16 17 20 22 23 25 27 30 32 34
23 20 20 19 17 17 18 15 13 11 13 15 17 19 19 16 12 10 10 14 14 13 10 8 8 8 17 18 16 13 10 10 5 10 10 17 25 20 18 17 16 15 13 13 17 20 22 24 26 28 31 33 36 39
23 20 21 20 18 18 21 18 16 17 17 21 21 18 15 15 12 14 10 12 11 7 11 14 11 11 16 19 16 12 6 6 5 6 9 6 9 8 9 10 8 9 14 18 20 22 24 27 29 32 33 34 34 34
24 22 21 20 20 20 23 21 22 20 18 26 22 16 15 15 9 10 9 9 9 11 9 16 14 17 18 18 13 11 6 6 5 5 6 4 6 5 4 4 9 15 18 19 21 24 27 30 32 34 35 35 35 36
25 22 22 20 22 23 25 24 24 22 24 29 25 21 12 13 13 11 14 11 11 10 13 15 21 21 21 17 8 8 6 6 4 5 4 5 4 4 7 14 17 18 20 22 25 27 30 32 33 35 35 36 37 38
26 24 23 21 22 25 25 24 27 24 25 32 18 18 14 11 12 19 16 20 18 11 10 19 21 20 20 17 6 6 6 5 4 5 4 4 5 10 16 18 19 21 23 24 26 29 31 34 35 35 37 38 38 38
26 25 24 23 23 27 26 26 30 31 29 21 15 13 18 14 12 12 17 18 20 15 16 24 24 13 20 8 7 6 5 4 5 4 3 6 13 16 18 19 21 23 24 25 28 31 33 35 38 38 37 37 37 38
27 27 27 24 26 29 29 30 34 36 35 23 17 12 16 23 17 15 18 16 19 15 24 26 13 9 10 6 8 7 4 5 4 4 9 13 15 18 19 20 22 23 26 29 32 34 36 37 39 39 38 38 40 41
30 32 22 24 28 29 32 32 37 43 33 38 26 22 14 20 23 14 13 17 20 20 33 16 10 10 8 8 8 6 7 8 8 10 13 15 17 18 19 21 23 26 29 33 36 37 39 40 38 38 39 41 41 41
34 29 23 29 30 31 35 33 38 42 40 41 41 30 22 17 27 23 16 18 22 26 33 17 10 12 7 8 7 6 8 10 11 12 15 16 17 18 20 23 26 31 34 38 40 41 37 36 38 40 42 44 44 43
33 29 28 29 31 36 39 47 49 38 41 43 40 34 27 23 22 22 19 20 23 33 30 15 7 13 12 8 7 9 9 10 11 13 14 16 17 19 23 27 31 35 38 41 38 34 36 39 42 44 45 46 45 43
28 28 25 24 26 36 42 28 57 43 27 34 37 36 27 25 22 20 22 23 30 34 22 17 12 9 9 8 8 8 9 10 12 12 14 16 19 22 26 31 35 38 36 33 33 37 40 40 39 40 39 38 39 37
33 33 29 35 34 34 38 30 37 51 30 23 31 37 31 25 25 22 25 30 37 32 26 19 15 11 8 7 6 7 9 10 10 12 14 18 21 25 30 34 36 34 33 34 37 37 37 37 37 37 38 36 35 34
42 42 37 40 48 43 33 24 33 28 38 29 28 35 27 26 26 28 33 38 36 31 25 17 13 10 7 6 6 8 9 9 10 12 15 19 24 29 32 33 31 29 33 35 34 34 34 35 36 37 36 35 34 32
49 44 43 45 39 43 29 37 29 32 27 26 31 34 29 26 30 34 33 38 32 28 21 17 13 9 7 7 8 9 8 9 11 13 18 23 28 31 32 31 30 32 32 31 31 32 32 34 36 34 33 32 30 27
53 47 52 36 29 24 29 31 35 35 35 30 30 31 27 29 33 40 35 38 32 27 21 16 12 8 8 9 9 9 10 11 12 16 21 26 30 31 30 29 31 32 30 30 30 31 32 33 33 30 28 27 25 22
51 42 42 28 28 30 27 36 37 39 32 38 36 38 27 28 35 40 34 38 34 27 22 17 11 8 9 9 10 11 11 12 15 19 24 28 28 28 28 29 30 29 28 27 28 28 29 30 28 26 23 22 20 19
36 22 39 38 39 33 32 39 41 40 37 38 38 33 31 27 29 28 42 39 35 28 20 12 8 9 9 11 12 12 12 13 17 22 25 27 26 25 25 27 27 27 27 25 25 25 26 26 24 22 20 18 17 16
35 23 39 41 35 38 40 36 30 38 37 30 33 39 27 18 24 25 29 39 32 23 19 14 11 10 11 12 13 13 12 15 19 23 26 26 25 24 25 25 24 24 23 23 23 24 23 23 21 20 18 16 14 12
29 35 27 41 34 39 41 37 35 36 34 27 31 36 25 18 20 27 25 35 29 25 19 13 12 12 13 14 13 12 14 17 20 23 25 24 23 24 25 23 22 22 21 21 21 22 22 21 20 18 16 14 12 11
22 22 28 44 43 39 37 38 30 34 37 33 32 32 33 26 22 21 28 32 28 18 14 14 13 14 15 13 12 12 15 18 21 23 23 22 22 23 23 22 21 21 23 24 23 21 20 19 18 17 15 14 12 10
24 26 35 42 43 37 39 37 32 32 31 33 32 30 27 26 25 25 23 20 18 22 21 19 17 15 14 12 12 13 15 18 21 22 21 21 21 23 21 20 20 21 21 21 21 21 20 19 18 17 16 15 13 13
38 41 41 44 41 38 35 32 26 25 26 30 29 30 29 29 31 28 23 22 23 18 17 16 14 13 13 12 12 13 15 18 19 20 19 18 20 20 19 17 17 18 19 20 19 19 18 18 17 17 16 16 15 15
47 41 43 41 38 37 35 34 31 31 28 32 34 31 30 28 26 27 25 22 23 22 18 15 14 14 13 12 11 12 15 17 18 18 17 17 19 18 16 15 16 17 18 18 18 18 18 17 17 17 16 16 16 16
41 42 43 42 42 41 40 39 34 34 35 35 35 34 32 31 31 30 26 25 23 20 18 16 15 13 12 11 10 12 14 16 17 16 15 16 17 16 15 14 15 17 17 18 17 17 17 16 16 17 17 16 17 17

GFSWCAN_700_spd_081.txt.gz
Wind_Speed
30 31 29 29 27 25 15 9 12 14 12 10 9 9 8 6 7 5 5 6 6 4 7 16 16 15 13 11 8 9 9 11 9 6 3 1 1 2 2 2 1 2 2 2 5 5 4 1 3 3 5 8 11 13
28 28 27 25 24 22 17 10 4 6 7 5 5 4 5 5 4 1 1 2 3 4 7 16 15 16 13 12 12 7 7 4 8 6 4 3 2 2 3 3 5 4 6 2 6 3 4 5 7 10 11 12 14 15
25 26 26 24 21 19 17 12 11 1 4 3 5 7 10 7 7 6 5 2 2 1 5 12 14 15 15 11 13 12 11 4 10 8 5 4 4 5 5 8 9 8 10 10 8 7 9 10 11 13 15 16 19 21
24 25 24 24 23 19 16 12 12 10 3 4 7 9 10 11 10 7 4 3 4 3 1 12 13 14 14 13 13 13 11 14 8 9 9 11 9 8 8 9 10 10 10 11 13 13 14 14 14 15 17 19 21 24
23 23 24 21 22 19 16 14 9 13 8 7 8 11 13 12 10 8 5 5 6 5 3 5 13 15 15 16 16 16 16 14 15 13 13 12 13 14 17 20 20 16 15 16 17 15 15 17 17 18 20 22 23 26
23 22 23 22 20 18 16 13 10 14 15 11 11 19 15 11 9 7 7 9 8 8 9 4 9 17 19 17 17 17 18 19 17 15 15 15 14 13 10 11 6 5 8 12 15 15 16 17 19 20 22 24 27 29
22 21 22 23 20 19 17 14 11 14 18 13 14 21 16 13 10 9 6 7 9 9 10 6 6 15 18 19 18 16 16 17 18 18 19 19 17 17 24 26 18 17 16 16 15 17 18 19 20 21 24 26 28 30
22 21 21 22 21 17 18 17 13 12 16 20 16 18 21 18 14 11 9 7 9 10 10 5 5 9 17 19 19 17 15 14 17 19 19 18 19 19 13 8 6 8 10 12 13 15 17 19 21 24 27 29 29 31
22 21 21 21 20 16 16 16 14 14 14 19 17 17 20 20 17 15 12 9 8 13 6 7 8 6 14 19 19 17 15 14 17 17 18 15 18 12 7 7 8 10 12 14 15 16 18 22 25 27 29 31 32 34
22 20 21 21 19 17 16 15 14 13 12 15 19 18 15 16 16 14 11 11 12 17 18 16 10 11 9 18 16 12 9 12 6 11 12 17 26 19 19 18 18 17 16 13 15 19 22 25 27 29 32 34 36 37
22 20 21 21 19 17 16 16 15 11 14 14 18 20 15 14 12 10 8 9 10 7 11 18 16 12 10 16 15 12 4 6 5 6 7 6 9 7 8 10 11 10 10 16 20 22 24 26 29 32 33 34 36 38
22 21 21 20 19 18 16 18 17 11 15 15 18 16 10 12 9 10 9 9 8 11 10 13 17 15 13 17 13 12 7 6 5 6 6 5 5 5 6 6 6 11 16 19 21 24 26 28 31 34 35 37 39 40
22 20 21 20 18 18 17 19 18 14 16 15 21 18 9 11 15 11 13 11 11 10 9 13 16 19 17 17 9 8 7 7 5 6 5 6 5 5 6 8 14 17 19 20 23 26 28 30 34 37 38 40 42 41
21 20 21 20 19 18 18 21 21 18 21 17 20 18 13 9 9 17 17 14 16 11 9 11 16 21 18 20 8 6 8 6 6 6 5 4 5 6 10 14 16 18 20 22 26 29 32 34 36 37 40 42 43 41
20 20 21 19 19 19 19 22 22 22 25 23 13 11 20 17 12 11 18 18 17 17 15 10 20 15 18 9 8 7 6 6 7 6 3 3 8 11 13 16 18 20 22 25 29 31 34 37 40 41 41 40 40 41
21 20 21 19 19 19 20 26 26 25 30 30 19 17 14 14 20 16 13 17 15 16 14 17 21 8 11 8 9 9 5 7 5 4 5 8 11 13 15 17 19 22 24 27 31 35 37 39 40 38 37 39 40 41
23 20 19 18 19 20 21 25 27 30 27 41 44 37 28 11 15 23 18 14 17 18 20 16 13 10 8 10 11 11 10 7 5 7 9 10 12 14 16 17 20 23 27 31 34 37 37 35 37 40 40 38 39 39
22 18 17 20 22 22 26 29 31 29 35 44 42 41 36 33 21 17 20 20 18 19 23 23 16 13 7 9 14 18 12 7 9 9 9 11 13 14 16 18 22 26 31 34 35 35 34 36 38 37 37 38 40 41
21 19 19 22 22 25 29 34 37 35 39 45 48 47 38 36 30 27 23 20 22 22 29 32 12 15 18 10 8 7 6 7 8 8 10 12 13 14 17 20 25 30 33 33 33 32 34 36 36 37 38 40 40 39
23 20 19 20 20 26 36 34 38 43 42 41 43 42 40 40 36 39 31 23 25 26 34 32 25 11 16 17 12 8 7 7 8 10 11 12 13 15 19 24 28 30 31 31 32 34 33 32 33 34 37 37 37 36
24 20 20 25 27 33 40 25 26 34 39 44 38 33 39 39 38 38 29 26 29 33 38 34 24 21 14 12 9 8 7 8 9 11 12 13 15 18 22 26 29 30 29 29 31 30 31 31 32 34 35 34 33 33
30 26 30 31 28 42 37 29 29 32 33 34 32 28 30 35 35 35 34 33 30 32 37 31 23 21 17 13 10 8 8 9 9 11 12 14 17 20 24 26 27 28 28 31 30 30 30 30 31 32 32 30 30 29
32 30 32 34 29 38 29 42 37 26 24 32 35 28 31 37 35 33 38 38 30 31 36 27 24 23 18 14 11 9 8 8 10 12 13 15 19 22 24 25 26 27 29 29 29 28 27 28 29 30 28 26 25 24
36 38 43 33 33 29 28 31 34 36 32 29 31 37 31 35 29 31 39 38 33 32 35 30 27 23 18 14 12 10 7 9 11 13 14 17 21 23 24 25 25 26 26 27 27 26 26 27 27 28 25 23 22 21
42 42 40 36 39 44 42 31 32 34 30 33 29 32 32 30 31 38 40 34 33 31 33 32 28 22 17 13 13 8 8 11 13 13 15 18 22 23 24 24 25 25 25 25 25 25 25 25 26 26 24 20 17 17
41 31 40 34 47 46 52 46 41 37 34 35 31 32 31 31 31 30 36 34 33 33 35 31 27 21 16 14 12 7 11 13 13 14 16 19 22 23 23 23 24 24 23 22 22 23 23 23 23 23 22 19 16 15
41 25 42 48 44 45 37 40 38 33 33 32 33 34 39 34 30 35 32 27 35 32 35 30 24 20 17 16 9 11 13 14 14 14 17 19 20 20 21 22 23 22 21 21 21 21 21 20 20 20 20 18 15 13
37 34 41 49 48 46 39 36 35 37 35 31 31 36 34 35 30 21 20 28 25 33 36 31 28 24 18 15 9 13 14 14 14 15 17 19 19 19 19 20 21 19 18 18 19 19 19 19 19 19 18 18 16 14
29 40 41 37 44 41 38 35 39 44 44 38 37 35 40 40 31 22 18 22 29 32 39 37 29 21 19 10 13 16 16 15 14 15 17 18 18 19 19 20 19 18 17 17 18 19 19 18 18 19 18 17 17 16
38 38 35 34 34 34 39 40 37 39 37 41 41 40 33 29 26 23 24 26 30 36 38 31 21 18 17 15 23 20 16 14 14 15 16 17 18 19 18 19 17 16 16 18 20 20 20 20 19 19 19 18 17 17
33 37 40 36 31 31 30 37 39 33 33 35 37 38 36 27 27 28 27 27 30 35 33 28 25 20 15 20 20 16 14 13 13 14 16 17 17 17 18 18 16 15 16 18 20 19 19 19 18 18 18 18 17 16
38 37 34 28 24 33 33 32 39 37 35 34 38 35 31 29 28 27 28 34 39 37 32 24 16 18 21 19 17 14 13 12 11 13 15 16 15 16 16 16 14 14 15 17 18 17 17 17 17 17 17 17 17 16
40 35 32 28 32 38 39 35 39 40 39 39 37 37 37 32 32 35 37 35 32 26 22 22 24 24 20 17 15 14 12 10 11 13 14 15 14 15 15 14 14 14 15 16 17 16 16 16 16 17 16 16 17 17

GFSWCAN_700_spd_084.txt.gz
Wind_Speed
25 23 25 25 24 22 22 16 12 14 10 8 10 9 8 10 10 7 10 10 11 10 10 17 17 14 12 9 10 8 7 7 5 3 1 2 1 2 3 4 3 2 1 2 2 2 1 3 2 1 3 6 8 9
23 22 21 23 21 22 20 22 17 10 10 9 2 7 9 8 6 5 5 6 7 8 4 12 16 14 12 11 8 7 6 2 6 3 3 1 3 4 4 3 5 4 5 2 4 3 3 5 6 9 11 11 12 13
23 21 20 19 19 18 20 17 16 14 11 11 10 6 8 9 6 3 2 3 3 3 2 6 11 15 14 12 12 12 10 5 6 7 6 4 4 6 5 6 9 8 9 9 7 4 7 9 11 13 15 16 17 18
23 21 19 19 18 17 16 18 17 15 12 11 14 15 11 10 7 4 5 3 2 1 1 5 8 11 14 15 13 14 13 12 10 8 10 10 10 10 11 10 12 12 11 10 11 10 12 13 13 14 16 18 20 21
22 21 19 19 18 17 17 16 16 19 16 13 12 17 17 12 9 10 6 3 2 2 3 4 8 12 13 15 15 15 14 14 14 15 13 13 13 15 19 21 21 15 17 16 17 13 13 13 14 15 18 20 22 24
23 20 19 19 19 17 16 16 15 17 16 13 12 14 16 13 11 10 8 5 4 4 6 7 9 13 15 16 17 18 17 17 18 17 17 19 17 15 12 13 8 4 5 7 10 11 12 14 16 18 20 22 25 27
23 20 18 18 19 18 16 14 15 16 18 14 12 14 15 17 13 11 7 5 4 6 7 6 9 13 18 19 19 18 18 19 19 20 22 21 19 19 26 29 19 18 15 15 14 14 15 16 18 20 22 25 28 31
24 20 19 18 19 17 17 14 14 16 17 14 11 14 16 20 19 14 12 9 6 7 9 6 8 9 12 18 20 19 18 16 18 20 22 21 20 21 17 7 5 6 8 9 11 13 15 16 19 23 26 28 30 33
25 21 18 18 18 18 17 13 14 15 15 15 12 14 17 20 24 21 15 12 11 11 6 9 10 7 7 16 18 17 15 15 17 21 20 18 23 15 8 8 8 9 10 11 13 14 15 19 23 26 28 30 33 34
25 22 19 18 17 17 17 14 13 14 14 13 11 12 13 17 18 21 19 16 16 18 21 20 14 12 8 8 16 11 10 13 8 12 13 22 31 20 20 19 18 17 17 16 14 15 20 23 25 28 30 33 36 36
25 22 20 18 17 15 16 15 13 12 14 12 11 11 12 15 12 12 11 7 7 7 12 18 23 20 11 10 16 12 6 7 5 8 8 7 9 7 9 11 12 14 14 12 16 20 22 24 27 29 32 34 37 39
26 23 21 18 17 14 16 15 13 12 12 12 10 11 13 13 10 8 6 8 9 7 11 12 14 19 15 12 13 12 9 6 6 7 7 6 7 7 6 6 8 8 11 16 19 21 23 26 29 31 34 36 39 41
26 23 22 19 18 15 16 14 13 13 13 13 9 9 7 9 11 7 8 8 6 9 12 12 12 18 15 16 9 7 7 8 5 7 6 8 6 5 5 7 8 12 14 17 20 22 25 27 31 35 38 39 41 39
27 24 23 21 18 16 17 16 14 15 16 14 10 10 8 9 10 14 16 15 14 16 12 11 12 15 17 16 10 6 9 7 6 7 8 8 6 6 8 10 11 13 16 18 21 24 27 31 33 36 38 39 38 39
28 26 25 21 18 18 19 18 16 17 19 14 10 9 16 17 15 9 8 10 17 17 13 14 14 16 13 10 9 9 7 8 9 10 9 7 5 8 10 11 12 14 17 20 23 26 31 34 35 33 34 36 37 38
29 29 24 22 20 20 21 19 18 20 24 20 20 19 18 14 15 22 19 16 13 14 13 13 11 8 12 9 10 12 7 7 7 9 7 5 7 10 10 11 13 15 19 22 26 30 33 33 32 33 34 35 36 39
32 27 26 24 21 21 21 20 21 26 22 22 33 35 33 19 10 11 18 21 16 14 15 14 9 11 7 10 13 13 19 10 8 7 6 8 10 10 11 12 14 17 20 25 29 31 31 31 33 33 33 34 35 38
30 26 27 25 24 24 24 24 26 28 34 37 33 32 32 34 33 27 22 20 18 15 17 24 21 15 9 8 15 21 17 12 11 9 9 10 11 10 12 13 15 19 23 27 29 29 29 31 31 31 32 34 36 35
25 28 29 27 25 25 27 31 34 30 37 38 36 35 35 31 30 31 31 31 29 20 18 23 24 19 20 22 17 13 10 10 9 10 11 11 10 11 12 14 17 22 26 27 27 28 30 30 30 30 31 33 33 33
29 30 28 26 25 25 26 24 30 37 32 33 34 32 33 34 33 33 32 33 34 29 29 33 32 27 18 14 19 18 14 12 11 11 10 10 11 12 12 16 20 24 26 26 27 28 28 28 28 29 30 31 29 27
35 31 28 26 27 30 32 22 27 30 34 40 36 30 31 30 30 31 32 33 41 49 47 36 31 28 32 25 19 19 16 14 13 12 11 12 11 12 14 19 22 24 25 26 27 27 25 24 25 26 27 27 24 23
34 34 33 34 36 38 37 34 30 35 32 30 24 23 27 28 28 31 32 36 45 48 41 34 29 28 27 26 23 20 18 15 13 13 13 12 11 13 17 20 23 24 25 25 26 24 23 23 24 24 24 24 21 19
33 32 37 40 40 37 32 41 43 41 36 30 30 26 27 25 23 25 33 36 38 33 28 31 25 23 30 27 25 23 19 16 15 14 14 11 13 15 18 21 23 24 24 24 24 21 21 22 22 22 23 22 19 17
35 35 43 33 39 32 37 38 37 44 43 39 28 22 24 21 23 29 35 33 27 23 22 26 23 23 32 27 26 24 21 18 15 15 12 13 14 16 19 21 23 23 24 25 22 20 21 21 20 19 21 21 18 15
37 29 25 43 40 46 42 40 41 43 42 42 37 34 29 27 28 34 39 33 31 30 29 30 29 28 33 28 27 24 21 17 15 14 14 14 15 17 19 22 23 23 24 22 20 20 21 20 19 18 19 19 17 15
37 33 29 28 43 49 52 49 50 45 40 43 40 37 34 31 30 34 41 34 23 23 26 29 27 30 33 28 26 23 19 17 17 15 15 15 15 17 20 21 22 22 22 19 19 19 20 20 19 18 17 18 18 18
35 30 44 49 40 39 44 41 43 41 41 36 37 32 33 27 26 40 36 34 25 22 23 26 28 31 32 30 28 25 18 18 16 15 16 15 15 18 19 20 20 21 19 17 17 18 19 19 19 18 17 16 17 17
40 44 42 39 47 53 42 45 45 43 40 34 30 35 31 31 39 35 26 18 12 19 23 28 30 32 28 29 27 22 21 19 17 15 16 14 16 18 19 19 19 19 17 16 16 17 18 18 18 17 16 17 17 17
43 40 45 45 40 43 50 49 45 41 43 41 39 40 44 40 35 29 26 20 15 22 25 31 33 33 33 33 27 25 21 19 14 15 15 15 16 18 18 18 18 16 15 14 15 16 17 17 17 16 16 17 17 18
44 37 31 43 50 48 43 42 42 40 40 40 37 36 36 35 32 26 24 23 25 26 28 30 35 36 33 28 23 21 21 17 15 21 16 14 15 18 18 17 16 14 14 13 14 16 16 16 15 15 15 16 17 18
45 37 38 37 30 33 36 39 42 40 37 37 39 37 35 33 34 36 30 31 33 29 29 31 37 36 35 28 23 24 17 15 20 19 15 13 15 17 17 15 14 13 13 13 14 16 16 15 16 16 16 17 18 18
37 39 37 36 38 38 37 38 35 34 35 32 33 33 30 29 32 34 36 38 30 26 30 30 35 37 32 29 26 18 14 21 20 16 13 13 15 16 15 13 13 13 13 13 14 16 16 15 15 15 16 17 17 18
39 38 39 36 36 38 38 35 33 33 33 36 35 35 35 34 34 38 41 32 29 22 29 29 36 35 31 26 21 19 20 22 18 14 13 14 15 15 13 11 12 12 12 13 14 16 15 14 14 15 16 17 17 18

GFSWCAN_700_spd_087.txt.gz
Wind_Speed
27 23 22 23 23 21 21 20 21 14 14 10 10 6 4 6 6 7 9 9 7 8 16 18 17 17 13 13 9 9 5 5 3 1 1 2 1 3 3 6 4 3 2 3 2 3 3 4 3 3 5 7 10 12
27 23 20 19 20 22 20 19 17 21 14 14 8 6 8 4 2 2 3 5 7 7 12 17 18 18 15 12 12 10 8 5 7 4 5 4 3 5 5 3 6 4 7 3 5 5 6 7 9 10 12 14 13 15
28 24 21 17 17 19 21 19 18 16 19 15 15 10 7 11 9 7 4 1 2 3 7 13 18 19 18 17 16 13 13 11 8 9 8 7 6 7 5 6 9 10 9 10 9 8 8 10 11 13 15 16 16 17
27 23 23 18 16 16 18 19 17 16 16 17 13 13 13 8 10 10 9 5 2 3 3 7 11 16 19 18 18 18 17 14 13 9 11 11 9 10 10 13 15 14 14 12 13 14 14 13 13 15 15 17 19 21
26 23 22 20 16 15 16 18 17 16 16 17 18 15 13 13 8 10 11 7 5 5 5 6 10 13 15 18 18 17 17 17 16 15 15 14 14 15 21 23 23 17 17 19 13 14 14 15 15 15 17 19 21 23
28 24 21 21 18 15 15 17 17 16 16 16 17 16 14 12 8 7 12 10 10 9 8 8 9 12 15 18 19 19 17 17 19 19 19 20 19 17 14 14 10 7 7 8 12 12 13 15 16 17 20 22 23 26
28 25 21 20 19 16 14 15 15 15 15 15 15 15 15 12 9 8 11 11 10 10 11 8 9 11 19 19 21 21 20 20 20 22 24 25 23 22 29 33 22 19 19 18 17 16 16 16 17 19 21 24 27 30
29 26 23 20 19 16 14 14 15 13 13 13 13 13 13 13 13 11 11 13 15 12 12 7 11 12 11 15 22 22 21 20 23 24 26 25 24 24 24 10 9 10 11 11 12 14 15 17 18 20 24 27 30 33
29 26 24 21 19 16 14 14 14 12 12 13 14 11 12 13 14 15 17 16 17 16 10 11 11 11 8 9 15 18 19 19 22 26 25 21 26 21 8 10 11 10 10 12 14 16 18 17 20 24 27 29 32 34
30 27 25 22 20 18 15 13 14 11 12 12 14 11 11 11 13 14 15 17 22 23 26 29 26 21 15 11 10 10 9 13 11 16 15 24 36 27 25 20 16 15 17 19 20 19 17 19 23 26 28 31 34 37
31 27 26 23 20 19 16 14 13 11 11 12 12 11 11 11 11 9 8 7 7 8 12 16 16 22 20 14 10 10 7 6 6 9 10 8 16 9 15 17 19 20 20 21 19 16 19 22 24 26 29 33 36 40
31 29 26 25 21 20 18 15 15 12 11 12 12 12 10 8 6 6 7 8 10 7 8 8 12 12 17 15 10 7 10 7 8 8 7 7 14 13 10 9 9 12 15 15 16 18 20 22 24 27 31 35 39 41
32 31 27 25 22 21 19 17 16 14 12 14 11 9 6 7 11 8 10 9 7 7 7 9 12 9 11 13 9 8 7 9 8 7 7 10 7 9 9 8 9 11 12 14 16 18 19 22 26 30 35 38 39 39
34 32 28 26 24 23 21 18 18 16 15 14 10 9 8 9 9 13 16 11 13 12 12 12 9 4 9 8 10 6 9 8 7 8 10 12 12 10 8 9 10 12 13 15 17 18 19 23 28 34 36 37 38 37
33 32 29 28 25 25 24 21 20 19 18 17 8 8 15 15 15 10 10 11 11 12 15 15 10 9 8 8 6 8 6 7 8 10 13 10 10 8 9 11 12 13 14 15 17 19 22 27 30 32 34 34 35 35
33 34 34 28 28 28 26 24 24 22 24 23 17 14 14 16 16 17 20 19 15 13 9 11 11 6 10 7 8 10 6 6 7 12 7 8 7 10 12 12 13 13 14 16 18 21 25 28 29 31 31 31 33 35
43 39 30 30 29 30 28 27 27 28 21 21 27 26 27 26 18 17 18 19 19 18 13 11 9 11 7 10 14 20 26 23 26 17 11 11 12 14 13 13 13 14 16 18 21 24 26 27 28 29 29 30 31 33
46 38 36 34 32 32 32 30 28 24 31 35 32 27 23 24 25 26 22 20 19 17 16 21 17 18 14 18 18 14 13 18 26 20 18 16 16 15 15 14 14 15 17 20 23 24 25 27 27 27 28 29 29 29
47 42 40 38 35 35 34 35 36 27 35 33 32 30 28 29 26 25 30 35 36 34 30 28 22 29 35 30 25 26 31 29 20 17 18 17 16 15 15 14 15 17 19 22 23 24 25 25 26 26 27 27 26 25
49 45 44 39 32 35 34 29 33 39 33 33 32 30 29 29 28 28 30 31 32 35 40 44 44 40 28 19 19 25 24 20 20 19 18 17 16 16 15 15 16 18 21 22 23 24 24 24 25 26 26 24 24 23
50 49 42 33 36 37 36 26 28 30 36 42 36 32 30 27 26 28 30 30 37 45 50 47 41 31 31 26 28 33 33 22 19 21 20 18 17 17 15 16 18 20 21 22 23 23 23 24 24 26 25 22 22 21
54 51 45 42 40 43 39 35 31 35 32 28 23 24 27 27 27 29 29 35 42 43 41 37 36 35 31 35 31 33 30 25 21 24 22 19 19 16 16 18 19 20 21 22 22 22 22 22 24 23 22 21 21 20
52 50 48 47 40 38 32 43 43 41 32 25 27 31 34 33 33 31 35 42 41 35 30 29 27 25 28 30 33 36 34 27 23 24 23 21 17 17 18 18 20 20 21 21 21 21 20 21 22 21 20 19 19 19
51 48 52 37 30 28 35 39 41 42 45 42 39 34 33 34 35 34 39 38 29 25 25 23 21 25 31 35 33 32 34 26 24 25 23 20 18 18 19 19 19 20 20 20 20 19 19 20 21 20 19 18 18 18
42 38 26 30 35 40 47 44 43 44 44 43 41 36 27 25 28 37 42 39 29 26 26 24 25 25 26 31 27 30 30 25 23 25 24 20 18 19 20 20 19 18 18 19 19 18 18 19 19 19 19 18 18 18
31 28 29 27 45 42 39 39 43 44 42 41 40 36 34 35 35 32 35 32 25 24 20 22 21 19 28 28 27 33 28 28 26 24 21 18 19 20 20 19 18 18 18 18 17 17 17 17 18 18 19 18 17 18
29 28 44 45 35 40 43 39 37 39 41 39 35 31 26 23 23 37 37 26 12 18 17 19 26 24 25 25 28 33 27 24 23 22 22 18 19 20 19 19 17 17 17 17 16 17 16 17 18 18 18 17 16 17
41 43 40 39 43 43 38 39 44 46 46 38 32 31 21 24 36 34 29 27 27 25 20 18 22 22 23 28 28 31 31 29 22 23 21 20 22 18 19 18 17 17 17 16 16 16 16 17 18 18 18 17 16 17
43 43 42 40 38 37 41 49 51 49 47 43 38 38 41 35 30 27 28 27 25 25 21 20 22 22 27 28 30 31 30 27 23 21 19 20 16 17 19 17 17 16 15 15 15 15 16 17 17 17 17 16 16 17
48 43 42 45 48 52 54 50 46 41 40 39 40 38 36 32 31 30 27 27 25 21 20 20 20 24 26 25 30 32 30 29 25 18 20 19 15 19 20 19 16 15 14 14 14 14 16 17 17 16 15 15 16 16
43 50 49 48 49 49 45 41 39 40 42 43 40 40 39 37 33 32 29 29 28 25 24 22 25 25 27 25 30 30 26 22 20 19 22 19 16 20 20 17 15 14 13 13 13 14 16 17 16 15 14 15 15 16
39 36 39 42 40 34 34 30 28 29 32 34 38 38 38 36 37 34 33 32 30 29 28 27 31 29 24 26 30 30 26 21 20 21 18 15 19 20 19 16 14 13 12 12 13 14 15 16 15 13 14 14 15 16
42 39 35 33 34 36 36 36 38 40 42 43 43 41 38 38 39 37 33 28 24 23 25 29 35 28 28 32 34 31 27 25 23 22 17 17 20 19 17 15 13 11 11 12 13 14 15 15 13 12 13 14 15 17

GFSWCAN_700_spd_090.txt.gz
Wind_Speed
35 28 26 24 21 20 20 20 20 18 20 14 9 8 5 6 6 9 5 4 4 7 15 16 13 12 11 12 10 6 6 6 4 2 3 4 3 6 6 7 8 4 3 3 3 4 5 5 5 4 5 8 11 12
34 31 24 22 20 19 18 18 18 19 17 18 13 9 5 5 7 9 10 5 2 6 10 16 16 15 14 13 13 10 10 5 5 5 5 5 5 7 7 5 7 6 7 5 6 6 8 10 12 12 13 14 13 14
33 31 26 21 18 17 17 16 16 17 17 17 17 9 8 6 7 11 11 9 8 6 9 15 17 17 18 16 15 15 15 15 11 11 12 11 10 12 9 9 14 13 12 14 11 8 11 11 12 13 14 15 15 16
34 30 28 21 18 15 15 16 16 16 16 16 15 15 8 8 7 8 12 10 8 10 8 8 14 18 20 21 20 19 18 17 17 16 15 16 15 13 14 18 20 18 20 16 18 15 16 15 14 14 14 16 17 19
33 31 28 24 20 15 13 15 15 15 16 15 16 16 13 9 8 9 8 9 7 7 12 10 10 12 18 21 23 22 20 20 21 21 20 20 20 20 25 28 30 22 21 23 23 16 15 13 14 16 16 17 19 21
31 32 26 24 21 18 13 14 13 14 15 16 15 16 15 11 9 8 7 8 11 11 12 14 11 13 14 16 20 21 23 22 21 22 24 25 24 21 17 24 19 9 10 10 10 10 14 15 16 17 18 19 20 23
31 32 28 25 20 19 15 14 12 12 14 16 16 14 15 12 10 8 7 7 8 11 12 9 11 6 9 17 18 21 23 24 24 26 28 29 27 27 35 40 27 25 23 21 22 21 20 18 18 19 20 20 22 26
32 31 29 27 20 20 16 14 13 13 13 15 16 15 14 14 11 10 12 12 10 10 15 7 10 12 12 13 16 19 23 24 27 28 31 30 30 29 32 25 12 13 14 17 20 19 18 16 17 19 19 21 25 28
33 32 29 27 21 20 17 15 14 13 13 14 17 16 14 14 11 11 14 16 16 15 9 12 17 14 7 11 13 13 17 22 23 28 30 27 31 28 18 8 12 15 13 11 12 13 15 17 18 18 21 25 27 29
34 33 31 26 23 21 19 17 15 13 14 14 15 16 15 12 13 12 14 16 18 20 24 26 24 23 22 19 16 12 9 9 11 15 15 22 36 29 28 31 24 16 14 14 16 17 18 19 17 20 24 26 29 32
35 36 33 27 25 22 20 19 16 14 16 15 15 15 15 15 14 11 8 6 7 6 9 11 7 11 15 18 14 7 6 6 6 7 9 8 26 14 12 16 23 26 25 23 22 21 19 17 19 22 25 27 30 34
39 39 35 29 26 23 21 21 19 16 17 17 15 15 16 13 8 6 5 7 8 6 6 4 5 8 9 10 8 7 8 6 6 8 7 8 13 13 13 6 9 12 15 18 19 17 16 19 20 22 25 29 32 34
44 40 36 31 28 24 23 23 21 19 17 17 15 11 8 6 9 8 7 8 6 7 7 6 8 8 5 8 7 7 6 8 8 6 8 16 16 14 8 8 7 7 9 11 13 16 17 19 20 23 27 31 31 33
47 40 36 31 30 26 25 25 23 21 19 17 12 10 7 8 9 12 12 11 12 13 10 10 10 5 5 5 7 5 8 7 6 9 19 21 20 15 11 9 8 9 10 12 14 16 17 19 21 26 29 30 30 31
48 40 35 32 31 29 28 28 25 24 22 20 11 9 15 14 15 13 12 14 14 14 15 13 13 11 8 7 6 8 6 7 8 4 13 18 16 11 9 9 10 12 13 14 15 16 18 20 24 28 29 29 29 30
47 39 41 36 34 33 32 31 29 27 28 27 21 17 14 15 13 16 16 16 16 15 14 14 11 7 10 9 10 11 7 7 6 13 19 20 15 10 10 11 13 15 15 15 15 16 19 23 26 27 29 28 28 28
49 51 44 40 39 37 35 33 31 34 27 28 35 33 31 29 25 19 19 20 22 24 22 16 10 11 8 11 15 20 31 27 25 28 27 23 20 18 16 15 17 16 16 17 17 18 22 25 26 27 27 26 26 27
55 50 45 45 44 41 39 36 34 32 38 40 34 29 29 27 23 22 22 22 23 24 22 23 22 23 18 23 26 21 14 16 18 20 24 24 24 21 21 19 17 17 17 18 18 20 23 25 26 26 24 24 25 25
56 53 50 48 48 46 42 40 41 31 39 40 36 32 31 31 28 27 24 25 28 29 30 31 23 29 36 37 30 28 29 27 27 32 35 29 19 18 19 20 19 19 18 18 19 22 24 25 25 24 23 23 23 22
55 52 51 49 48 49 44 36 42 45 32 36 35 32 33 32 28 30 30 29 31 36 46 51 51 48 45 39 32 27 21 26 29 31 35 28 21 19 19 19 19 19 19 18 21 23 24 25 24 22 22 22 22 21
52 54 50 52 52 52 50 36 31 34 41 44 40 35 36 34 31 30 30 30 36 47 54 48 42 39 39 36 35 31 30 32 34 32 32 29 25 23 22 20 18 18 18 21 22 23 24 24 23 21 21 21 21 20
59 57 55 53 53 52 52 39 35 37 33 33 28 29 35 34 32 33 31 34 40 43 44 38 36 35 34 31 31 32 34 37 38 39 34 29 29 25 23 22 19 18 20 22 22 23 24 23 21 20 20 20 20 20
56 58 58 54 42 47 36 47 43 41 33 30 33 33 36 36 34 37 37 42 38 33 35 33 33 32 32 29 31 34 37 41 40 40 35 30 26 25 24 22 22 18 21 22 22 23 23 22 20 19 19 19 20 20
54 59 59 47 35 25 39 34 44 49 47 44 35 31 31 29 34 40 47 46 32 32 30 25 26 26 28 31 34 35 35 37 39 38 34 31 27 24 22 22 18 19 22 22 22 23 22 20 19 18 18 19 19 20
56 37 32 31 44 42 37 41 43 45 47 47 42 36 29 35 37 42 49 43 35 30 24 22 24 28 31 29 31 28 28 34 36 37 35 30 25 23 20 19 17 21 21 21 22 22 20 18 18 17 17 18 19 21
34 32 36 35 47 48 48 43 47 44 41 41 30 37 39 37 40 36 37 35 31 23 21 18 21 24 26 28 26 23 28 28 23 27 25 24 22 20 19 17 20 22 21 22 22 21 19 18 16 16 17 17 19 20
33 34 54 56 48 50 48 42 42 41 42 34 33 35 31 26 31 38 35 16 17 11 11 14 16 18 24 26 26 26 20 23 23 22 23 23 21 21 19 20 20 21 20 21 21 19 18 17 16 16 16 17 18 19
41 47 54 60 57 53 49 45 42 41 39 33 34 34 26 31 32 31 27 22 16 16 17 17 16 16 17 22 28 28 33 28 28 27 28 27 24 24 15 15 21 20 19 20 19 18 17 16 16 15 16 17 18 18
49 49 47 44 49 51 46 44 43 38 36 37 39 42 48 44 37 33 30 24 20 17 19 20 20 20 19 19 24 28 29 31 35 30 29 29 23 20 20 20 19 19 19 19 18 17 17 15 15 15 16 17 17 16
56 49 41 42 46 46 43 42 39 37 37 38 40 41 40 37 34 31 26 23 21 22 22 22 21 19 18 20 21 29 27 25 29 30 25 21 18 19 20 21 15 17 18 17 16 16 15 14 15 15 16 16 16 14
41 48 46 38 34 35 36 35 36 36 37 37 37 37 35 34 34 31 28 25 26 27 26 24 22 20 18 19 24 23 24 24 26 26 27 27 23 18 20 18 17 18 17 16 16 15 14 15 14 16 16 15 14 13
54 47 38 37 39 39 38 36 34 35 36 35 35 30 27 28 26 21 20 23 24 25 25 24 23 23 22 22 24 21 24 25 25 25 25 23 22 20 18 19 18 16 15 15 14 13 14 14 14 15 15 14 13 12
32 33 35 35 36 34 33 31 29 32 29 26 27 28 27 30 34 30 28 25 24 23 21 19 22 24 24 22 27 21 29 31 28 24 24 25 22 19 16 17 16 15 14 14 13 13 13 13 14 14 14 13 12 12

GFSWCAN_700_spd_093.txt.gz
Wind_Speed
40 35 30 27 25 20 18 18 18 17 17 16 14 10 8 6 4 6 6 4 6 9 15 16 16 13 14 12 10 7 8 10 8 7 5 5 6 6 7 8 9 6 4 4 4 6 4 1 2 3 4 7 8 10
38 34 28 26 23 19 16 16 16 17 17 15 16 13 10 10 9 6 7 8 6 6 8 12 17 16 15 14 14 12 11 6 5 6 6 6 8 8 10 7 10 7 6 5 6 5 8 11 12 14 13 11 11 12
35 32 27 26 23 20 15 14 15 15 16 15 16 17 14 11 10 10 10 9 9 8 9 11 14 19 19 19 16 16 18 17 15 14 14 14 14 14 14 13 15 16 15 16 15 7 9 12 12 11 12 13 13 14
38 33 25 24 23 19 16 14 14 14 15 16 14 16 16 13 11 11 12 11 11 10 11 10 11 15 18 22 22 22 21 21 21 20 20 22 22 18 21 21 24 22 22 22 25 21 19 18 17 15 14 14 15 16
37 31 28 23 23 21 17 14 14 14 13 15 16 14 16 14 12 11 11 12 13 10 10 12 13 12 14 17 22 24 25 25 24 25 27 26 27 27 32 35 37 27 24 28 30 22 19 17 15 14 16 16 17 18
30 30 29 26 23 22 18 15 14 14 14 14 16 14 15 14 12 10 10 11 11 12 14 14 11 13 16 17 18 20 23 24 25 27 28 29 28 26 22 31 33 19 15 14 15 13 12 14 15 16 18 19 19 20
31 32 30 28 26 22 20 17 15 15 15 14 15 15 15 16 14 9 8 10 9 11 13 11 10 7 6 8 14 18 21 24 25 28 31 31 31 31 40 48 33 31 31 30 26 25 24 22 22 21 20 21 21 20
31 36 34 29 30 24 21 18 17 16 16 15 14 15 14 15 16 13 12 12 13 13 15 9 12 12 10 13 13 12 16 19 26 29 31 31 32 32 39 38 26 20 17 19 25 25 25 24 23 21 19 20 20 22
32 32 35 30 31 27 23 21 18 18 18 17 15 14 14 14 15 14 16 15 16 16 11 15 17 15 8 8 12 16 17 17 18 22 24 21 27 31 35 25 24 20 15 16 12 12 14 15 15 18 20 19 21 24
35 34 37 32 32 28 25 23 20 20 20 18 17 15 16 10 14 16 18 19 16 18 25 27 25 24 22 22 20 14 11 9 10 12 14 17 28 20 19 21 24 26 25 14 14 13 13 14 17 19 18 20 23 25
35 36 35 37 34 30 28 26 23 22 22 20 19 17 16 16 16 14 9 6 6 5 8 9 10 10 11 16 15 8 7 7 6 7 9 8 14 14 18 17 17 21 30 29 22 18 18 20 20 18 19 21 24 27
40 37 36 36 37 33 31 28 25 24 23 22 20 18 16 15 11 8 7 7 8 6 7 6 7 7 10 10 7 7 8 6 6 8 7 8 16 20 22 21 13 10 15 26 29 28 24 20 17 18 20 23 26 30
42 40 39 39 39 39 32 30 26 27 26 23 20 16 9 11 14 10 10 8 7 8 8 8 8 9 8 6 6 7 6 8 8 7 7 14 14 20 22 17 10 5 3 5 8 10 12 14 17 18 21 24 28 29
45 45 42 40 42 37 33 33 30 29 28 24 18 14 11 11 12 16 12 10 12 11 10 10 10 8 9 8 8 6 8 7 6 8 7 9 18 21 19 13 9 6 5 5 7 10 13 15 16 19 22 26 27 28
50 44 42 39 42 36 36 35 34 32 31 27 15 13 19 19 21 14 11 12 11 12 12 12 14 11 10 9 7 8 6 7 8 7 9 14 23 27 21 12 8 8 10 11 12 13 15 16 18 22 24 25 26 26
46 43 44 40 42 39 39 39 39 35 36 34 24 21 20 18 20 17 13 13 13 15 15 14 10 6 10 8 9 11 8 10 13 15 16 22 28 26 27 18 15 13 14 14 14 15 16 17 21 24 25 26 26 25
48 50 46 41 43 43 44 42 43 42 34 32 42 44 34 24 19 17 17 17 17 21 19 16 9 8 9 11 15 19 27 19 22 26 29 32 25 21 24 24 19 17 17 17 16 17 16 19 22 24 26 27 26 26
52 50 45 43 49 48 49 48 47 42 42 46 38 43 42 36 35 33 27 23 22 24 25 28 25 25 19 23 32 27 20 19 20 20 25 29 27 30 25 26 21 17 17 18 17 17 19 21 21 26 27 26 26 26
53 48 47 48 56 56 57 52 52 51 52 50 44 40 38 33 31 31 28 26 25 26 30 34 22 35 38 35 30 28 28 24 26 28 30 33 30 29 28 28 20 19 19 19 19 18 19 21 24 27 26 25 25 25
51 48 48 49 60 59 58 51 54 55 39 42 41 40 42 38 35 37 36 34 30 30 39 49 42 40 39 39 38 36 37 37 35 34 32 29 27 28 29 28 24 22 22 21 19 19 21 22 24 26 25 24 24 24
44 48 48 52 58 59 57 54 51 52 54 51 43 36 38 37 38 40 41 38 38 39 47 46 37 32 35 37 37 35 35 35 35 35 36 35 34 31 28 28 26 25 24 22 18 17 21 25 24 24 24 23 23 23
48 52 51 51 56 60 61 53 50 51 44 43 39 44 46 43 38 38 39 43 47 43 44 44 34 28 30 31 30 30 31 35 37 38 38 39 36 34 33 28 28 25 24 22 20 17 24 25 23 24 23 22 22 22
54 58 58 59 39 47 40 55 55 53 42 40 42 41 42 41 39 37 44 53 48 39 36 39 29 30 32 33 34 35 36 37 38 38 37 38 38 37 37 32 29 27 24 23 20 17 24 25 23 23 23 22 21 21
56 64 60 41 38 30 42 50 56 54 49 42 37 36 44 44 43 41 50 54 39 33 38 35 33 34 34 37 34 32 30 31 35 37 36 37 35 31 32 30 27 24 21 23 17 17 22 24 23 22 22 21 21 21
55 39 32 32 43 50 52 50 59 56 46 48 44 43 32 36 38 46 54 50 36 31 35 36 37 34 35 31 31 34 33 34 33 31 28 29 30 33 31 27 25 21 19 17 18 15 20 24 23 22 21 20 21 21
33 29 34 40 53 57 57 52 56 49 45 42 40 42 40 37 37 39 44 40 29 26 27 35 33 32 33 30 30 31 29 31 35 34 29 29 28 28 27 26 22 18 19 21 16 15 22 22 22 21 20 20 21 21
30 33 53 57 47 54 51 43 46 44 45 38 41 46 38 27 27 39 39 31 26 19 17 18 20 22 24 25 26 26 27 27 28 26 24 25 24 24 23 25 21 18 21 20 13 18 20 22 21 20 19 18 20 21
42 44 56 62 60 53 47 48 49 45 44 35 37 41 29 30 32 29 30 25 21 19 19 20 24 27 27 27 26 25 26 26 29 28 25 22 26 25 25 25 19 20 19 14 15 16 21 21 20 19 17 18 19 19
49 53 48 45 51 54 53 53 51 50 44 41 40 39 43 40 34 32 28 26 29 28 24 23 25 27 27 26 26 25 28 25 25 25 24 24 28 27 24 22 23 16 16 18 16 16 20 19 19 18 17 17 18 18
60 54 49 54 53 52 47 46 47 43 43 42 40 39 38 38 32 27 24 25 27 26 25 25 28 28 28 28 25 24 24 23 24 27 26 22 22 23 22 23 21 19 20 16 11 16 18 18 17 16 16 17 17 17
50 55 55 47 45 46 43 40 37 35 35 37 40 43 41 34 31 28 26 27 29 34 35 35 34 32 29 26 24 24 21 21 21 19 20 25 28 27 25 25 24 17 11 10 13 15 17 17 16 15 15 16 17 16
47 40 41 36 39 37 34 35 37 39 39 39 40 36 32 33 35 33 30 30 33 33 30 27 29 30 28 27 25 26 24 21 18 18 24 27 31 30 26 24 22 14 11 14 14 15 16 16 14 14 15 16 15 13
40 38 37 31 28 34 38 37 35 36 37 37 36 34 32 32 36 34 26 28 28 24 22 20 22 25 26 26 26 24 22 23 20 23 28 30 33 31 27 20 19 15 12 13 14 15 15 14 13 14 15 15 13 12

GFSWCAN_700_spd_096.txt.gz
Wind_Speed
39 39 38 34 30 25 22 17 19 18 18 16 14 12 11 8 9 10 9 8 8 11 11 14 15 16 16 16 14 12 11 13 12 10 6 6 7 7 9 10 11 8 6 6 6 7 6 6 5 6 5 8 10 10
41 41 39 34 34 26 24 20 17 17 16 17 16 13 10 10 9 11 13 13 12 11 12 10 9 14 16 16 16 17 17 14 8 6 7 6 10 13 15 9 12 9 8 5 7 6 8 10 12 16 18 16 13 13
41 40 39 33 33 29 22 21 17 18 15 16 17 15 13 10 11 11 12 14 15 15 13 11 10 13 18 19 19 19 18 18 20 20 20 18 18 18 18 18 20 19 18 22 21 8 8 9 13 14 14 14 15 15
41 38 35 35 31 29 24 19 19 19 17 16 17 15 14 12 10 12 12 13 15 17 17 14 11 11 14 18 20 22 22 22 23 23 23 25 27 22 27 27 31 30 29 30 32 28 27 26 23 21 21 20 17 16
38 36 33 32 26 26 24 23 19 19 20 17 16 15 13 14 12 11 11 12 13 15 17 17 16 16 16 16 18 20 23 25 26 28 29 30 31 31 36 38 43 33 28 30 27 14 20 20 19 20 18 17 18 18
35 34 31 31 27 27 24 26 22 20 22 20 18 16 14 14 14 12 10 9 10 13 17 18 12 16 18 17 17 20 22 24 26 29 30 32 32 29 23 35 41 31 25 23 22 21 22 17 15 16 16 17 19 21
36 33 30 26 26 28 24 27 26 22 22 21 20 19 15 15 14 14 12 13 10 11 14 12 10 9 8 7 11 15 18 21 23 29 33 33 33 32 42 43 37 35 31 27 29 32 31 26 23 21 22 22 22 22
41 35 32 27 27 32 29 29 28 25 25 23 21 20 19 17 16 15 15 14 13 12 14 9 10 12 11 12 16 17 15 15 22 26 34 34 34 32 34 24 17 12 9 12 18 20 27 28 26 24 24 23 21 20
45 44 38 32 30 29 30 29 30 26 28 24 23 23 20 20 18 17 16 16 16 15 10 11 13 12 8 8 13 18 23 24 22 25 26 22 28 26 27 24 24 28 29 28 20 17 13 17 19 18 16 17 19 19
53 46 43 34 31 32 33 33 32 27 28 28 25 24 23 20 18 18 19 21 20 19 24 18 14 17 16 18 20 14 11 8 10 14 14 21 32 19 12 16 21 19 19 23 18 15 11 8 8 9 12 17 17 18
49 44 40 36 32 32 34 35 35 31 27 30 29 27 23 19 20 20 13 10 9 8 9 7 6 6 8 10 12 8 6 7 6 6 8 9 21 14 16 21 25 21 17 18 22 17 11 10 10 15 16 15 17 19
44 43 38 36 34 36 35 36 38 35 31 29 30 27 24 20 13 12 12 12 13 9 9 7 7 6 6 8 7 7 8 6 6 8 7 7 14 20 24 23 20 18 15 9 20 25 23 21 22 17 14 16 18 20
44 38 40 37 36 36 36 36 38 36 33 31 29 25 14 15 20 14 15 13 12 10 9 9 9 8 7 6 6 6 5 8 8 7 6 9 8 16 24 20 15 12 9 6 1 7 11 12 11 12 14 16 19 22
45 43 43 43 38 34 37 38 40 37 35 35 26 20 16 14 14 27 26 15 16 12 10 10 10 7 8 7 8 6 8 7 7 8 10 13 13 17 23 24 20 13 10 6 5 5 6 8 11 13 14 17 20 23
48 46 46 41 41 36 38 38 42 40 39 40 22 16 25 28 24 14 20 23 17 14 12 12 12 12 10 8 7 9 6 8 10 10 10 13 18 21 27 28 24 18 15 13 11 11 11 12 12 14 16 18 20 22
53 46 48 43 43 42 37 43 46 43 43 43 36 27 22 24 30 29 24 22 19 16 15 15 12 7 12 8 10 12 7 11 11 9 15 19 22 27 28 21 21 17 17 15 14 13 13 14 14 16 18 20 23 24
46 47 48 45 49 46 43 52 51 51 43 53 59 50 33 29 23 25 25 24 22 20 20 14 9 10 9 10 15 20 21 14 15 19 19 22 23 20 21 23 23 21 18 18 17 16 15 15 16 17 17 20 24 24
53 53 47 46 50 47 52 54 54 53 59 59 55 53 51 49 34 22 25 28 28 25 24 26 23 24 16 22 29 19 18 20 22 22 24 25 28 30 30 30 28 24 22 18 18 18 18 17 17 15 17 22 25 25
46 47 49 49 52 55 60 60 60 60 62 63 63 57 49 43 44 43 40 34 30 30 31 33 24 36 39 26 19 24 24 24 25 27 26 27 28 30 32 31 27 25 22 20 21 20 20 19 17 16 18 23 27 25
39 48 48 49 52 58 61 44 62 62 52 61 63 59 49 48 42 37 37 39 39 39 42 48 51 47 41 37 36 35 36 34 32 32 32 33 36 36 35 33 29 26 22 21 22 21 21 21 19 20 19 19 28 26
42 49 42 44 53 58 56 46 56 64 67 64 54 45 45 47 48 45 45 44 45 54 55 52 46 42 40 41 37 37 33 33 33 35 37 38 37 38 37 37 33 33 30 25 23 23 22 21 21 19 18 25 26 25
34 41 53 52 58 61 59 47 53 59 58 58 48 49 48 43 44 42 41 44 53 57 49 42 38 39 39 37 35 37 34 38 39 40 41 40 38 36 36 34 34 33 31 29 28 27 23 21 20 17 18 24 24 26
35 44 57 63 43 39 38 56 56 57 55 56 55 47 48 51 52 49 49 54 58 51 39 34 33 34 37 36 37 37 35 39 40 39 40 41 38 36 34 33 32 31 33 31 29 27 23 18 19 18 20 22 26 26
39 50 59 39 34 24 36 44 54 54 54 53 46 42 40 49 52 49 55 57 58 50 41 33 33 38 40 41 42 38 35 38 40 38 39 40 35 30 30 30 30 29 28 27 28 25 21 19 21 20 20 22 24 25
47 43 33 32 36 42 42 46 56 58 60 59 53 50 37 36 38 49 61 60 55 51 42 34 37 41 44 43 45 42 34 35 35 37 37 37 35 33 31 28 26 26 24 26 25 22 20 19 19 22 20 23 24 24
36 30 31 29 49 50 58 59 58 54 48 46 38 43 42 41 39 47 57 50 49 44 31 34 35 37 38 36 35 34 31 30 31 34 32 32 31 31 30 30 28 26 23 23 25 24 21 20 16 16 21 23 23 23
28 27 48 54 49 55 54 49 49 46 52 47 43 43 35 33 37 52 42 41 38 32 29 32 33 30 27 27 26 25 26 30 31 28 27 28 29 27 26 24 24 22 27 29 25 22 20 21 15 17 21 24 22 21
31 48 51 57 61 60 56 53 53 52 54 45 43 43 29 32 41 30 26 34 26 27 30 32 26 22 21 23 25 28 33 33 32 31 30 28 25 25 22 18 21 26 28 29 27 25 21 18 16 18 22 21 20 20
46 56 56 51 54 58 60 60 60 59 55 51 47 46 53 54 49 41 35 33 30 28 28 25 26 25 25 27 31 34 34 33 31 29 29 26 21 20 22 22 22 20 24 29 25 20 19 21 18 20 20 19 19 19
58 55 52 57 58 59 56 53 56 54 52 51 47 46 45 43 36 30 28 30 33 32 26 24 27 28 30 31 33 34 34 32 30 29 27 22 18 22 23 23 23 25 29 25 22 21 18 16 18 19 18 18 18 18
57 57 55 54 54 57 55 48 44 41 39 41 44 44 42 39 36 34 32 33 34 30 28 27 31 34 35 35 35 35 34 30 29 28 26 21 21 24 25 28 30 29 27 27 21 16 15 17 18 17 17 17 17 17
61 52 53 54 52 48 44 46 43 41 39 37 37 35 34 35 37 37 32 30 31 29 29 35 37 37 36 34 33 35 35 31 29 28 25 22 23 21 26 31 31 29 28 22 18 13 15 15 15 16 16 15 15 16
47 45 42 41 42 42 42 39 37 33 36 38 39 38 36 37 39 34 30 26 27 31 35 37 36 31 29 29 28 28 28 27 28 25 22 22 22 20 28 32 31 27 21 21 18 12 14 15 15 15 14 14 14 15

GFSWCAN_700_spd_099.txt.gz
Wind_Speed
33 34 35 36 36 34 33 29 29 25 23 21 18 13 13 14 11 9 10 11 11 11 12 12 14 17 18 19 18 17 14 15 14 14 10 9 9 9 10 12 11 12 8 8 6 9 8 6 7 8 7 10 12 13
37 36 36 35 33 33 31 31 29 26 23 22 22 18 12 12 14 13 11 13 14 15 15 14 13 14 17 20 19 18 18 15 9 7 7 7 13 16 20 14 19 13 11 8 10 9 13 17 18 18 21 22 19 17
36 36 37 36 33 30 30 28 28 27 24 22 21 22 19 13 13 13 14 13 15 17 17 15 11 12 14 15 18 20 20 20 21 20 21 21 22 21 24 22 21 27 26 29 27 21 16 12 15 17 19 21 20 19
36 36 35 35 35 29 26 24 24 25 25 24 22 22 21 19 14 14 14 14 14 16 19 18 15 12 12 13 16 20 21 22 24 24 24 28 31 22 29 31 38 38 38 37 39 38 37 33 31 31 29 24 24 24
38 34 35 34 33 30 24 22 22 23 24 26 24 24 24 21 19 16 14 14 14 14 18 20 21 22 22 21 20 19 20 22 23 25 28 32 33 31 37 40 40 33 30 33 37 20 20 20 17 20 25 22 22 19
43 39 34 33 32 30 25 21 23 24 23 26 26 24 26 25 21 20 18 13 12 16 18 19 12 14 16 20 21 19 19 21 23 26 27 31 31 28 21 37 40 34 34 34 31 24 24 24 24 22 18 20 19 20
47 42 36 37 34 33 23 21 22 26 25 25 27 26 25 26 26 21 20 18 15 15 17 12 11 7 9 12 11 13 15 17 20 25 28 29 30 31 38 44 32 24 20 23 27 32 33 33 32 28 25 23 23 23
45 43 39 39 38 36 26 25 24 25 26 27 27 28 28 27 26 25 23 22 21 17 19 10 10 12 12 13 14 15 16 16 19 25 31 31 30 29 26 18 17 26 27 24 21 20 18 22 27 33 31 26 24 24
46 45 43 42 42 37 34 28 25 26 28 28 31 28 30 29 29 27 26 25 23 21 14 16 17 12 10 9 11 14 20 22 22 23 22 17 23 21 23 20 13 19 25 29 27 31 31 24 22 22 23 22 21 18
49 46 46 44 41 35 35 31 31 28 30 30 32 31 31 31 28 28 28 26 29 31 37 37 29 23 15 13 12 9 9 8 9 12 12 14 21 12 12 15 21 24 27 29 25 20 18 17 12 10 10 9 12 16
52 50 48 48 40 37 32 33 33 32 31 32 32 34 33 29 25 26 19 17 13 16 21 22 19 22 16 15 13 7 6 7 6 6 6 7 8 8 12 17 20 20 21 22 22 20 14 12 8 7 8 14 14 14
50 53 50 50 43 37 36 37 36 36 33 34 34 34 33 28 17 13 14 15 17 14 19 13 16 14 14 11 8 8 8 6 7 8 6 6 6 7 9 13 18 19 18 18 17 10 13 13 13 14 19 14 13 14
50 50 51 49 43 40 37 43 41 42 35 35 34 34 19 19 23 14 18 19 14 21 16 16 17 14 13 10 8 7 6 8 7 7 6 7 10 11 13 13 15 18 18 15 12 10 7 15 20 18 13 12 13 15
52 51 48 49 42 45 42 44 50 41 40 40 39 31 20 17 16 31 36 28 26 19 13 16 16 13 15 10 9 6 8 7 7 9 9 8 10 14 17 21 24 24 23 20 14 10 8 8 9 12 13 13 14 16
48 52 47 45 44 48 47 52 51 51 49 48 32 22 31 35 37 21 18 24 29 25 20 17 18 17 13 10 8 10 7 9 11 11 9 11 12 15 19 23 25 23 17 15 14 12 11 12 12 14 14 15 16 16
40 42 51 45 45 51 45 46 48 53 54 52 39 41 42 30 30 36 39 31 23 24 24 22 17 10 15 9 11 12 8 11 11 11 12 15 18 21 23 22 21 17 17 17 18 16 15 15 16 16 16 16 15 17
33 40 39 40 46 49 42 47 55 56 50 52 64 64 53 36 27 28 33 33 29 32 33 21 14 15 10 11 16 18 23 11 14 15 18 22 23 25 24 23 24 24 24 22 23 22 20 18 18 18 18 18 17 19
36 34 36 36 41 44 49 51 55 56 57 65 66 66 58 54 49 40 28 31 33 34 34 35 30 27 20 28 32 30 23 21 19 20 20 24 25 27 27 28 26 26 27 26 24 23 22 24 23 22 21 19 20 21
41 32 30 39 38 44 50 61 59 55 65 68 69 68 55 47 46 47 42 32 31 35 36 43 37 39 49 47 40 34 31 26 24 27 27 27 27 30 32 34 35 32 29 27 25 22 24 25 25 25 23 22 22 22
38 37 35 36 39 44 52 44 56 62 51 63 68 69 65 61 53 44 42 47 48 42 45 61 65 54 50 44 39 36 38 37 39 38 32 29 31 33 36 38 38 36 33 30 28 28 25 26 26 26 25 24 22 21
36 36 42 39 48 49 55 41 51 61 64 64 60 56 57 62 58 53 50 51 51 56 63 67 61 50 49 45 43 40 39 39 43 43 38 35 36 37 38 40 38 37 36 32 30 28 28 26 27 28 25 24 22 22
33 37 41 43 50 59 63 47 44 50 49 58 54 58 58 55 49 47 49 51 58 62 64 60 50 46 40 36 34 36 39 44 43 44 42 40 38 36 38 40 39 37 37 33 30 27 27 27 30 29 25 22 22 24
33 36 37 50 57 47 38 50 50 52 48 48 54 55 55 59 55 49 49 59 64 62 58 48 41 38 37 35 35 34 35 39 40 39 39 39 37 36 39 41 37 34 33 30 29 28 29 30 31 28 24 23 25 26
34 38 39 31 36 21 22 34 49 52 53 54 46 46 52 51 54 52 68 73 67 58 53 45 42 39 39 41 41 38 35 36 38 39 39 39 39 34 38 39 35 31 30 29 29 29 29 29 28 27 26 25 25 24
36 39 35 28 27 34 35 39 50 53 53 56 58 56 46 43 45 54 70 69 60 54 51 47 44 39 44 43 41 37 33 38 42 43 42 40 36 36 35 31 29 28 28 27 26 27 25 25 25 25 26 26 24 19
44 36 26 33 44 48 54 49 52 48 50 56 52 52 50 45 41 52 64 51 47 42 39 36 35 34 37 37 36 33 34 38 41 39 29 28 29 28 26 27 27 27 26 26 28 28 26 25 25 26 26 24 21 19
35 16 34 46 43 46 52 54 50 47 52 46 45 48 39 30 36 54 46 40 43 36 28 27 29 33 34 35 33 32 32 34 32 24 24 24 23 24 24 24 23 20 24 26 28 26 26 26 25 25 24 23 20 21
19 26 38 41 45 51 51 53 56 55 55 48 44 44 37 33 38 29 22 16 14 22 28 22 21 21 23 27 29 29 24 22 22 25 23 20 21 22 21 20 19 20 20 20 22 25 27 26 24 23 23 21 21 20
37 39 39 40 41 48 52 54 57 53 56 53 51 49 57 56 50 44 38 33 35 37 23 23 24 22 21 21 23 25 25 26 26 25 23 22 23 21 19 19 19 21 24 23 22 23 23 22 24 25 23 22 21 20
44 41 42 43 46 50 54 51 53 50 52 52 48 48 48 46 45 42 37 36 39 31 25 24 24 25 23 24 27 28 28 28 28 26 25 24 22 20 19 19 21 24 23 22 20 20 22 25 25 22 22 18 18 18
49 50 51 52 54 56 55 54 52 47 44 42 42 44 45 45 44 43 40 42 41 32 26 29 30 29 28 29 30 30 31 30 29 29 28 25 21 20 19 21 23 25 23 25 24 26 25 21 21 21 16 16 17 16
47 51 52 55 58 55 52 48 46 45 45 46 45 43 41 39 39 38 35 30 27 27 28 31 32 31 28 28 29 31 32 32 32 32 28 24 22 22 22 22 22 20 23 26 27 29 24 20 16 12 15 16 15 15
42 46 50 52 50 43 40 38 42 40 38 39 40 40 40 41 46 45 39 30 25 26 27 25 26 29 30 31 32 33 35 32 24 19 16 17 19 20 21 21 20 18 26 30 31 22 20 20 14 13 14 13 13 14

GFSWCAN_700_spd_102.txt.gz
Wind_Speed
35 35 32 33 32 30 29 30 31 30 30 26 20 18 16 17 20 17 16 15 17 17 15 17 16 16 19 21 20 18 17 17 15 15 11 10 9 10 11 14 13 12 9 10 8 8 9 5 7 7 13 17 19 22
37 37 33 31 29 29 29 28 31 29 27 27 23 18 17 16 17 22 19 18 17 18 18 19 19 19 19 17 21 24 23 17 9 9 7 7 11 16 20 21 23 15 14 10 11 10 19 28 35 35 31 25 24 19
37 37 35 31 31 31 31 31 29 27 24 26 23 22 19 17 15 17 22 21 22 20 18 19 19 17 16 18 20 22 22 22 23 22 23 22 24 22 24 23 22 25 25 31 33 37 35 28 29 26 28 34 31 30
40 39 38 34 32 31 31 31 30 26 25 22 23 24 23 19 17 16 19 22 22 24 22 13 17 20 19 18 17 18 21 23 24 24 25 27 31 23 26 30 38 35 37 38 41 32 30 25 24 20 24 26 29 30
42 40 41 35 34 33 31 29 29 28 25 24 22 24 24 24 20 19 19 21 23 22 25 25 21 22 26 27 27 25 23 23 25 26 28 30 30 34 37 36 37 30 27 24 35 24 26 30 22 21 23 23 22 24
42 43 43 41 41 35 33 29 28 28 24 24 26 24 24 25 24 22 23 20 17 23 27 28 23 24 21 19 19 20 21 24 26 28 29 31 31 29 21 31 34 31 30 26 23 24 26 26 25 29 28 22 24 22
55 50 45 46 43 38 36 32 29 29 29 26 30 26 25 24 25 24 24 25 23 25 27 20 18 9 9 11 15 17 19 21 23 27 31 31 32 33 40 44 21 19 16 16 20 22 23 20 21 23 29 30 30 25
52 52 47 41 41 36 35 36 32 30 30 30 27 27 28 30 25 25 26 26 26 24 27 14 15 16 16 16 16 17 17 19 24 28 31 31 32 32 29 12 16 17 17 15 19 24 26 25 24 27 25 25 25 26
50 48 50 47 45 43 38 37 36 33 32 31 30 28 29 30 32 28 27 29 28 27 21 26 27 23 12 12 13 16 17 20 25 27 27 20 25 20 19 19 15 15 18 21 22 23 24 22 22 22 18 20 17 16
50 50 50 49 47 44 43 38 35 33 34 32 31 30 33 34 32 30 27 29 32 34 38 41 38 35 29 23 15 12 11 10 11 14 14 17 25 12 13 11 13 15 17 18 18 20 23 20 18 14 12 7 5 8
47 47 51 50 49 45 43 42 33 40 41 36 35 34 34 33 34 33 20 14 14 20 26 32 27 28 27 25 19 10 8 8 7 7 8 8 14 9 11 10 11 13 14 16 19 19 17 14 11 9 8 6 8 13
46 45 45 46 46 45 43 41 40 41 46 40 37 36 37 35 32 19 14 12 16 16 22 25 22 19 21 21 15 9 11 7 7 9 8 8 10 8 11 12 12 14 17 19 19 18 16 12 9 11 12 14 18 12
44 44 45 44 43 42 41 41 39 43 41 46 42 40 26 22 23 18 20 17 15 24 28 23 17 17 17 17 13 9 8 9 8 9 9 14 8 9 11 13 16 20 23 24 22 19 17 12 11 12 14 13 13 14
43 42 41 42 44 41 38 40 41 45 38 43 40 29 22 18 20 39 38 35 31 26 20 17 15 17 21 15 12 8 10 9 8 10 16 12 9 11 12 15 18 21 21 21 16 14 15 14 13 12 13 14 14 15
42 41 41 41 41 42 40 40 42 51 49 49 39 23 36 50 51 32 20 18 23 30 26 21 20 22 19 14 11 12 9 10 12 12 6 10 12 13 15 17 19 19 19 17 17 15 15 16 17 17 17 17 18 18
41 41 42 40 40 40 39 39 46 48 49 57 42 41 59 53 42 35 33 30 30 28 28 28 23 15 18 12 15 17 13 14 18 14 13 13 14 17 19 20 21 20 20 22 20 19 19 19 20 20 20 20 21 21
39 43 37 36 31 35 37 41 49 59 52 47 45 61 68 60 43 24 29 30 32 32 32 25 19 21 14 16 23 24 41 34 21 18 15 16 15 18 21 23 24 24 24 23 23 23 22 21 22 23 23 23 22 22
40 35 27 25 27 29 38 46 53 54 51 56 56 56 62 64 62 51 33 32 37 37 34 40 35 35 33 34 32 31 26 17 20 24 21 22 21 22 24 25 26 27 27 27 26 25 23 22 23 24 26 26 25 24
33 32 33 34 26 38 39 47 61 55 52 58 59 61 63 61 58 55 49 47 41 34 38 43 36 47 55 57 44 36 39 38 34 34 32 27 27 32 28 30 31 31 31 30 30 28 26 25 25 25 26 27 26 26
33 35 40 37 32 37 44 52 57 65 47 55 61 62 59 57 60 57 52 48 49 49 44 54 63 62 56 45 38 36 41 41 41 40 34 33 39 39 36 34 35 36 36 35 33 32 28 27 27 26 28 29 28 26
35 33 32 40 38 48 52 36 42 53 56 59 55 53 53 54 59 61 59 55 52 56 57 64 63 59 57 55 54 54 53 53 53 52 46 42 41 44 41 38 37 40 39 38 36 34 31 28 27 27 30 30 29 28
36 33 33 34 47 47 53 38 39 50 46 47 50 57 58 56 55 53 52 52 58 63 65 65 64 60 57 56 53 52 51 48 49 48 42 41 41 39 39 38 40 41 40 39 38 34 32 30 28 29 30 30 29 28
34 30 32 33 39 49 43 51 49 52 48 49 48 50 53 55 54 52 49 57 56 56 62 61 58 53 52 45 42 45 41 38 40 41 41 41 37 35 36 37 36 39 40 39 37 35 32 31 31 31 30 29 28 27
32 34 35 36 38 23 26 39 43 47 53 52 44 43 50 53 55 47 55 58 56 55 55 57 57 52 49 48 50 45 37 36 36 37 37 39 39 36 38 38 37 38 40 38 35 32 30 29 30 29 28 27 25 25
33 31 30 24 25 32 33 33 41 44 49 50 52 49 44 42 43 47 59 54 55 53 52 52 47 43 41 43 42 35 35 36 34 35 31 33 36 38 38 38 38 37 35 34 30 28 28 28 28 27 26 25 23 24
30 27 23 19 27 31 38 42 45 48 46 45 49 50 52 46 41 47 59 50 52 50 44 38 34 27 33 33 30 29 27 31 33 38 31 35 34 34 35 34 31 27 26 26 28 27 27 27 27 26 25 24 23 24
39 26 33 43 40 34 35 38 40 42 46 47 40 41 38 31 38 53 50 47 46 34 25 13 12 21 24 24 25 25 28 30 31 29 28 28 29 30 28 24 24 23 26 26 25 25 25 25 26 24 23 24 23 21
27 34 42 40 44 42 43 47 47 48 49 47 42 38 30 37 49 43 36 27 23 28 17 20 25 22 19 19 20 20 20 21 23 24 25 24 21 21 22 21 20 20 20 21 22 22 22 21 20 21 23 23 21 23
41 32 45 45 43 46 46 49 51 46 48 51 48 44 49 49 46 46 43 41 32 26 30 29 28 30 27 24 23 23 23 24 22 19 18 18 20 19 21 19 18 17 19 20 21 23 22 21 20 22 22 20 22 22
54 52 42 38 39 42 44 43 40 42 45 44 42 44 45 44 42 41 40 36 34 33 36 33 32 32 27 27 24 23 19 18 20 20 20 19 19 19 18 17 16 16 16 17 18 20 19 19 15 11 12 18 21 23
50 51 50 45 45 45 41 39 41 44 46 44 41 41 41 40 39 40 39 36 35 34 33 30 30 30 29 29 27 25 20 19 22 24 24 23 22 20 19 17 16 16 16 17 17 19 18 17 16 16 17 17 16 14
49 52 51 52 52 47 44 46 48 48 48 46 45 42 41 42 44 41 36 35 34 33 31 29 26 21 24 26 26 25 24 22 23 24 25 24 24 24 20 17 16 16 17 17 17 15 20 21 21 19 18 18 17 14
40 45 48 44 45 46 47 48 50 51 49 46 45 43 41 41 47 44 37 35 32 30 27 26 25 24 22 26 27 27 27 27 26 24 21 22 21 17 15 14 15 16 15 16 15 17 20 19 18 18 16 14 11 12

GFSWCAN_700_spd_105.txt.gz
Wind_Speed
38 37 33 32 30 29 28 27 26 27 29 31 27 22 18 15 16 17 16 13 13 15 16 18 19 19 17 17 18 18 20 19 15 13 9 8 10 9 11 11 12 11 11 12 8 10 9 1 5 12 21 26 28 25
43 41 36 34 31 29 28 27 26 26 27 30 28 24 20 19 15 16 17 17 17 15 15 18 20 23 23 21 20 20 19 21 13 9 7 8 13 21 29 21 21 15 13 12 12 12 22 31 38 37 31 21 19 19
46 46 38 37 36 32 30 29 27 25 25 27 29 24 21 22 22 16 16 18 19 19 17 13 14 15 18 20 19 20 20 20 21 23 24 24 23 23 22 24 27 25 23 30 36 37 34 33 34 33 36 41 38 38
52 47 43 45 42 37 31 29 28 28 25 24 29 24 22 20 24 25 20 18 20 21 21 7 17 19 18 19 22 22 20 19 19 22 24 28 31 25 29 30 39 40 41 40 39 31 26 24 22 22 26 28 27 25
50 43 43 42 37 39 31 30 31 30 28 23 27 25 21 23 23 26 25 23 20 19 20 23 23 20 19 19 22 24 25 27 26 25 28 29 31 33 39 40 34 22 25 26 31 25 24 23 23 23 26 28 26 26
53 48 45 44 37 39 39 36 38 32 32 29 26 26 28 23 22 23 27 23 19 22 26 27 24 23 20 15 16 18 20 23 25 27 28 33 31 28 22 33 30 25 24 28 26 21 20 19 21 23 25 25 26 24
55 52 46 45 45 42 41 38 38 33 32 34 33 26 30 29 24 22 22 27 26 27 29 20 17 6 10 15 16 16 18 22 23 27 30 30 30 31 43 45 20 15 16 19 20 19 20 22 27 27 26 21 21 23
53 50 51 49 46 44 44 39 36 34 32 33 36 34 33 35 31 25 25 26 27 26 28 14 16 18 18 20 18 16 17 18 23 25 31 30 29 31 30 16 15 14 13 14 16 21 22 22 23 25 25 22 21 23
47 47 47 48 45 43 43 41 38 36 37 37 37 34 36 36 35 34 33 31 29 25 18 29 32 26 19 15 15 17 18 19 22 28 27 20 27 22 17 21 17 13 10 11 11 13 19 22 22 21 19 16 15 16
40 42 43 44 43 43 44 43 40 37 38 40 37 36 39 37 36 38 38 40 35 34 37 39 33 34 30 29 21 13 12 12 12 16 14 22 34 13 15 12 11 10 8 9 11 14 17 16 16 17 13 10 8 3
41 45 43 41 41 41 41 41 40 38 37 39 39 40 40 39 37 36 29 22 16 17 27 31 15 22 20 25 24 13 10 9 8 11 11 11 24 16 12 9 8 9 10 11 14 16 15 16 15 13 12 9 8 9
42 42 41 40 40 39 38 38 35 38 37 39 39 39 39 39 35 22 21 18 17 16 25 24 20 18 22 21 17 11 15 9 9 11 9 11 18 18 10 8 8 10 12 16 18 17 15 14 15 13 11 10 14 16
42 42 40 39 38 37 37 35 34 35 34 38 36 38 30 22 24 20 24 25 15 16 24 21 19 20 20 17 12 11 10 11 10 9 12 25 21 13 9 8 9 10 13 15 15 14 12 11 12 12 12 12 13 14
43 42 40 39 37 36 35 34 33 36 35 39 37 33 25 16 24 46 46 36 32 31 30 23 21 18 19 17 13 9 12 10 9 13 28 27 14 10 10 10 10 12 15 15 14 13 13 12 12 13 14 15 16 16
43 42 40 38 37 35 33 31 30 37 36 43 30 21 33 54 49 41 20 19 25 29 27 25 22 22 19 14 11 12 9 10 11 16 9 5 9 12 11 11 13 14 15 16 17 18 16 16 16 16 16 17 18 19
41 42 42 40 37 32 31 26 29 38 39 48 46 39 45 53 53 44 42 41 37 33 28 25 21 15 19 14 16 18 12 12 17 16 14 19 12 10 11 13 15 17 17 17 17 17 17 18 18 19 19 19 21 22
40 45 39 34 32 31 29 28 32 43 42 47 60 61 59 62 55 52 43 41 37 38 37 24 15 18 14 18 31 30 45 43 33 33 29 27 12 16 17 16 17 20 21 22 21 20 19 20 20 19 18 22 23 22
42 39 36 32 27 24 27 34 40 51 52 54 60 59 64 59 55 56 51 48 43 40 41 42 33 26 19 33 39 35 33 24 24 26 28 26 25 30 33 28 23 21 23 26 27 27 25 23 23 21 21 24 25 23
36 35 32 28 26 29 32 40 46 44 55 55 62 63 64 67 67 57 46 45 45 44 44 47 30 39 55 58 53 49 48 42 39 37 33 36 38 40 36 31 26 30 29 28 30 32 31 29 26 25 24 26 25 25
35 33 32 29 31 34 38 43 36 51 61 63 62 65 64 62 61 61 55 54 50 51 54 55 59 60 64 60 53 50 47 38 35 36 38 39 36 36 35 39 40 37 36 36 33 34 35 36 29 28 27 28 28 27
33 34 34 32 36 42 43 40 35 37 48 57 60 57 57 60 62 63 59 56 55 56 58 55 52 51 51 53 55 56 54 53 51 53 52 51 48 49 51 53 51 40 41 41 38 37 38 38 33 31 32 31 29 28
33 29 31 32 38 40 48 53 45 43 38 41 45 51 54 60 61 60 56 51 53 57 50 41 40 42 44 44 44 47 50 52 51 49 47 45 43 42 43 43 45 41 42 41 39 36 38 36 35 34 34 33 31 28
29 30 33 34 34 40 43 43 45 44 40 37 40 46 52 51 52 52 49 56 59 55 47 46 50 53 51 49 47 44 39 43 45 44 41 40 41 40 39 38 37 37 39 38 35 37 38 34 35 36 34 33 29 27
33 37 39 39 39 32 29 37 45 48 47 46 44 38 41 43 45 43 53 56 55 50 46 44 46 48 47 46 39 37 32 36 38 35 36 40 43 37 35 35 32 31 34 37 37 34 35 35 35 34 32 31 28 25
38 38 38 37 37 30 37 36 35 39 47 50 51 47 41 36 37 42 51 51 45 47 47 44 45 45 44 33 25 31 29 32 34 35 34 35 38 41 40 37 37 35 35 37 33 32 34 34 33 32 30 28 26 23
29 40 26 33 43 41 35 36 37 39 39 39 40 39 41 40 37 37 42 31 36 40 41 42 39 39 39 31 21 23 24 25 27 33 28 29 32 35 36 36 33 31 32 33 30 28 28 28 28 28 28 26 24 23
43 35 36 44 32 36 46 45 38 35 37 42 35 33 31 21 27 42 39 32 24 22 16 15 19 13 14 10 13 16 18 22 25 25 21 23 25 28 30 30 28 26 27 24 22 24 25 26 25 24 23 23 21 21
30 35 43 43 40 44 40 39 35 36 35 34 32 31 24 28 39 43 39 34 32 27 23 25 23 17 18 18 16 15 19 21 20 18 17 18 21 22 22 21 20 19 20 21 22 22 23 23 22 21 19 18 18 20
40 41 30 29 51 40 39 45 47 47 44 38 39 39 44 43 41 40 38 36 33 31 28 26 25 28 28 27 26 27 26 24 22 22 23 20 18 16 15 15 15 16 19 20 21 22 21 20 19 18 17 18 19 20
42 47 51 48 44 38 37 42 46 43 40 38 38 39 41 41 39 35 33 32 28 26 26 28 30 32 32 35 36 29 29 26 22 21 15 15 15 16 14 14 15 16 17 18 19 20 18 15 13 12 14 14 14 12
41 44 48 49 52 55 53 50 43 36 34 35 37 40 41 38 37 36 35 34 32 27 29 31 29 29 31 31 30 27 33 27 21 20 18 17 18 20 14 12 15 16 18 18 18 15 14 13 13 14 12 11 10 12
45 45 45 47 47 47 47 49 51 50 49 43 41 44 46 47 49 49 44 43 39 35 32 30 30 28 26 25 29 26 25 25 21 21 19 19 20 17 12 14 17 18 18 17 15 14 13 14 15 15 14 12 10 11
32 29 30 38 41 41 41 41 42 44 48 51 54 53 52 53 58 60 56 48 40 34 26 26 28 26 28 30 29 28 23 24 24 25 20 18 15 12 13 17 17 16 15 14 12 12 13 13 13 15 14 12 11 11

GFSWCAN_700_spd_108.txt.gz
Wind_Speed
40 39 39 38 32 29 27 24 23 26 24 23 25 24 23 22 19 17 15 16 18 15 15 11 13 12 14 15 14 16 17 15 13 12 8 9 10 10 11 13 12 13 10 12 10 10 12 2 5 13 19 32 31 26
42 42 40 43 41 28 30 28 24 23 24 24 25 25 22 19 19 17 17 16 17 19 18 17 15 14 14 18 22 23 20 19 12 10 10 9 12 16 21 13 19 15 16 13 14 14 21 29 30 29 32 34 31 33
46 47 47 46 45 39 30 30 24 23 24 24 26 26 25 18 17 19 20 18 19 19 21 15 15 9 14 14 15 20 19 20 22 22 24 24 24 24 19 23 26 29 27 31 33 31 27 29 27 26 30 33 32 31
49 48 47 44 44 38 30 24 24 22 23 24 26 26 25 21 20 22 22 22 20 20 24 6 17 21 22 21 19 20 20 23 24 23 24 27 29 23 29 31 39 36 33 31 35 27 21 22 21 18 23 27 29 30
52 48 45 47 41 39 30 27 25 26 26 27 27 27 25 25 23 23 23 22 25 18 19 22 23 22 19 23 23 20 20 22 23 25 29 32 34 33 39 41 29 16 17 27 31 23 24 20 19 19 20 20 23 27
51 53 50 46 45 43 38 32 29 30 33 32 31 29 28 26 24 24 27 26 23 26 31 30 24 22 24 13 11 15 17 21 25 28 30 34 33 29 23 36 25 19 21 23 20 18 17 15 17 20 22 25 25 23
47 48 50 46 48 50 42 39 36 35 34 34 33 34 31 29 25 25 27 30 27 29 28 25 23 5 5 18 18 19 21 21 22 26 32 32 35 33 42 46 23 25 22 17 15 15 11 12 16 19 23 24 24 22
36 40 45 49 47 46 44 43 42 38 37 38 37 37 36 33 31 29 29 31 31 30 29 13 20 21 22 25 24 22 20 21 26 28 34 34 31 33 34 23 16 14 14 13 13 13 11 11 14 17 20 20 20 18
37 33 34 41 43 44 44 41 42 37 36 38 40 39 40 38 33 34 34 34 37 32 28 27 37 31 20 19 19 20 21 25 28 34 36 25 33 30 20 23 21 19 15 13 12 12 12 14 13 15 15 14 11 9
34 34 33 33 35 37 39 38 38 39 37 38 38 35 40 40 34 32 37 41 43 43 47 43 32 42 32 31 27 20 14 15 14 19 20 26 41 21 18 18 25 23 19 14 11 13 14 13 13 14 14 12 10 7
36 34 34 34 35 35 36 34 33 37 37 35 34 37 39 36 31 32 29 24 18 19 22 19 21 30 26 29 27 15 11 9 8 11 15 12 38 21 12 16 17 16 14 14 13 15 16 16 16 14 13 13 12 11
37 36 35 35 35 34 34 32 32 33 32 32 34 33 34 35 35 20 24 21 20 16 18 19 24 21 22 24 20 13 15 10 10 12 9 14 22 15 19 14 14 12 12 13 15 17 17 17 15 14 13 12 13 14
40 38 37 36 35 34 34 33 29 30 29 26 27 33 25 19 22 23 26 25 14 16 17 16 17 18 21 20 15 12 11 12 11 9 11 32 28 18 16 13 12 11 13 14 15 17 16 14 14 14 14 14 14 15
42 41 39 37 36 35 34 32 28 29 27 26 29 31 25 16 21 41 43 39 33 31 29 29 24 18 20 16 16 8 12 9 9 10 28 28 27 19 10 12 13 13 13 13 14 15 16 15 15 15 15 16 16 17
41 40 39 39 36 34 34 32 25 25 28 31 29 21 36 50 51 44 33 25 20 21 28 24 18 19 18 13 9 12 8 11 10 11 10 8 6 11 16 18 16 15 14 15 15 15 16 17 16 17 18 18 19 20
37 40 42 39 36 33 31 26 26 29 34 38 37 36 45 47 48 41 42 43 38 34 35 32 24 10 16 11 15 18 16 21 24 21 17 16 16 17 19 20 18 15 16 17 17 16 16 16 18 19 19 20 22 23
33 41 38 34 32 29 25 28 32 37 31 42 52 52 53 58 55 54 53 46 36 35 34 28 28 20 14 14 24 27 42 44 38 31 31 32 28 27 24 23 19 22 24 27 25 21 20 18 15 18 21 21 22 23
37 33 31 29 27 28 29 32 35 40 49 50 51 53 50 53 53 58 59 59 54 45 42 47 43 36 35 33 43 45 38 35 30 28 26 28 27 24 24 25 24 26 28 27 32 32 27 25 21 23 23 25 24 23
35 32 29 27 26 27 30 36 42 45 49 48 50 51 53 54 53 53 57 55 49 43 42 46 39 35 40 47 48 42 43 42 46 48 51 44 40 37 34 37 39 38 37 33 34 37 35 34 35 37 28 25 28 26
35 34 31 28 28 31 35 38 39 40 47 50 47 53 54 56 54 53 58 58 56 46 49 51 53 54 58 57 48 54 53 46 45 45 44 38 42 38 38 38 38 34 37 41 42 44 46 48 47 43 34 26 29 29
34 35 31 30 33 36 40 35 40 42 46 44 45 42 45 45 51 57 60 58 56 56 61 63 64 63 59 48 48 49 42 35 39 42 45 47 48 51 49 50 53 52 47 45 51 54 52 45 42 47 37 31 28 31
37 32 32 32 35 39 45 49 44 48 48 43 36 33 38 40 42 45 48 54 58 58 54 54 52 46 43 48 47 44 41 43 45 48 47 45 48 48 48 47 46 46 48 49 49 46 42 39 44 43 36 36 33 34
31 31 32 33 36 41 46 44 49 54 54 55 52 45 44 43 42 41 45 51 45 41 35 39 31 31 40 42 48 51 50 51 45 39 40 42 44 45 47 48 45 44 45 44 39 38 35 34 37 36 37 39 34 33
31 34 37 35 35 35 39 45 48 49 52 52 53 52 48 47 44 39 43 45 40 44 48 43 43 45 42 40 42 41 41 42 45 43 41 42 43 46 50 49 45 43 43 41 42 39 36 34 33 36 35 35 32 29
34 33 39 37 40 36 40 38 37 24 33 43 46 42 35 35 34 36 47 54 58 48 48 38 35 35 34 30 31 31 25 29 31 32 35 37 39 40 44 46 42 37 38 44 42 41 38 35 35 33 29 26 22 25
35 41 37 39 44 41 46 46 47 49 49 46 41 38 38 38 38 36 43 32 29 23 18 16 21 27 29 29 27 23 20 24 29 39 41 31 30 32 35 37 35 33 33 35 34 32 31 30 27 22 20 22 26 27
42 36 30 38 42 34 36 39 38 38 36 33 30 33 37 33 28 38 34 28 17 18 22 22 23 24 28 27 19 16 20 24 24 26 27 25 21 25 29 28 26 26 29 29 26 24 22 19 18 19 23 25 24 22
43 33 39 45 32 38 45 38 37 40 39 39 34 36 24 26 38 37 34 26 30 27 29 28 28 24 19 20 18 17 18 22 25 25 26 25 20 22 23 24 22 24 23 20 19 16 16 18 19 21 22 20 19 19
48 45 20 39 48 49 44 41 46 46 48 44 39 38 42 41 39 36 38 39 36 33 32 24 25 29 28 30 32 33 30 30 32 34 35 31 27 22 23 18 16 15 14 14 16 17 16 17 20 19 17 15 15 17
45 46 41 38 36 39 44 47 46 38 41 40 38 40 41 42 41 38 36 36 35 32 28 27 27 28 30 30 29 30 31 30 33 35 31 27 24 21 14 13 14 14 14 14 15 14 16 17 16 15 15 14 15 15
39 39 44 44 45 39 42 49 47 42 42 44 42 42 43 44 38 37 38 37 36 34 32 32 30 29 32 34 30 30 29 30 32 33 31 30 21 17 17 18 18 19 14 14 16 16 14 15 15 14 14 13 12 12
37 38 42 45 43 42 44 47 48 48 46 45 45 44 47 49 53 52 40 36 38 41 41 37 38 34 34 35 34 34 29 29 31 32 28 25 26 26 28 30 26 20 16 18 14 14 15 14 14 13 13 12 11 11
32 36 40 40 42 44 41 43 44 45 46 47 48 45 43 44 48 49 44 45 46 44 41 42 42 41 40 40 36 36 35 35 35 32 28 25 27 25 18 17 21 17 13 10 15 15 13 12 12 12 12 13 13 12

GFSWCAN_700_spd_111.txt.gz
Wind_Speed
31 30 29 29 30 32 30 28 26 28 25 20 19 20 21 21 21 16 16 17 18 18 16 8 14 14 15 14 17 19 14 14 13 12 8 8 9 8 13 16 14 12 8 11 11 12 14 7 11 14 14 21 28 34
35 36 34 35 36 36 35 30 29 26 25 21 20 20 21 19 18 17 15 18 20 19 19 20 20 12 13 11 14 18 21 21 12 9 10 9 12 14 20 12 14 15 17 11 16 13 17 20 20 29 35 33 34 35
37 37 38 40 39 39 41 34 28 23 22 21 20 21 22 21 19 18 17 18 20 21 20 10 19 12 9 15 18 19 20 19 22 23 26 23 25 21 16 20 22 25 25 33 32 30 25 29 32 31 30 30 29 27
39 39 39 43 43 41 41 37 34 24 22 19 20 20 21 24 22 20 19 19 21 23 20 12 17 22 23 25 25 22 22 22 23 24 27 31 29 22 29 29 36 36 33 37 40 31 27 21 23 20 21 22 23 23
44 46 47 49 45 40 39 37 39 34 22 21 23 25 22 24 25 25 24 22 21 20 26 26 23 21 20 23 25 25 25 23 24 27 29 33 33 32 37 43 38 27 18 28 34 28 27 25 27 18 18 21 23 25
51 51 52 49 44 44 46 43 34 35 34 25 25 29 29 25 26 27 28 26 23 29 30 34 28 31 26 23 21 17 21 23 25 30 33 34 35 30 23 36 38 31 22 22 29 24 28 23 22 20 20 21 24 24
51 49 47 45 44 43 45 40 38 35 37 31 28 34 34 31 31 29 28 28 27 28 31 26 27 14 7 15 20 23 24 25 26 31 35 38 38 34 43 48 29 31 32 30 28 27 23 19 20 20 21 22 23 24
34 36 37 37 34 35 37 36 36 37 37 36 35 36 38 37 33 31 32 33 32 32 32 19 20 33 26 31 33 30 27 27 31 32 37 39 34 36 43 25 20 17 20 20 20 23 19 21 18 19 21 21 21 21
30 30 30 30 32 30 27 29 33 34 35 36 38 36 35 36 35 32 32 37 39 36 36 32 26 33 22 27 24 25 27 27 31 34 38 30 35 38 32 30 27 30 27 25 22 22 21 19 18 20 19 19 19 19
34 32 31 29 28 27 28 28 26 28 30 31 31 31 34 36 30 31 34 40 45 49 50 55 45 43 40 36 28 23 19 13 18 20 20 27 37 28 25 24 27 29 34 34 27 22 22 19 20 20 21 21 19 18
32 31 30 30 29 29 28 26 28 27 27 25 27 31 32 29 25 27 26 26 18 21 25 21 15 27 31 34 29 16 11 9 9 13 15 14 31 28 21 10 20 23 27 27 27 22 22 21 23 22 22 21 20 18
35 34 33 33 31 31 31 28 28 26 26 25 25 25 22 21 17 16 18 16 17 13 14 19 19 22 22 21 20 12 16 10 10 12 10 15 23 28 25 26 21 18 18 16 16 19 21 22 22 21 20 20 20 19
38 37 36 35 34 33 32 30 28 27 25 24 17 22 14 14 21 17 22 16 7 11 13 15 18 19 15 13 11 12 10 12 12 10 13 27 27 30 21 18 18 13 14 15 15 18 20 22 21 20 19 20 20 20
41 40 38 36 34 34 32 30 28 27 23 22 22 19 15 15 15 28 37 34 31 30 27 29 28 21 22 17 15 8 11 9 8 15 29 24 15 18 10 10 10 13 18 19 19 19 20 21 21 21 21 21 21 22
40 39 39 38 37 34 32 29 23 19 22 27 17 19 32 42 41 37 30 23 20 23 27 29 26 23 25 14 9 11 7 9 11 14 15 24 23 18 15 10 14 19 21 21 20 19 20 21 23 23 20 21 21 22
35 35 40 38 35 33 29 23 23 26 31 35 30 38 51 50 46 43 42 40 42 46 43 41 39 29 28 16 17 15 10 18 24 29 29 35 31 24 15 18 18 24 27 24 20 21 23 23 26 27 25 22 20 20
34 36 35 29 26 25 25 27 30 36 37 40 49 53 53 52 50 49 48 43 40 38 34 31 25 20 21 16 23 32 42 42 37 40 41 37 35 38 33 33 32 22 26 28 26 27 29 29 28 29 29 28 25 24
40 35 31 25 23 25 28 32 37 40 50 51 52 56 53 52 53 53 51 54 53 51 50 49 41 38 35 31 30 38 46 40 46 46 43 37 35 32 30 36 35 38 28 32 33 31 34 35 35 34 33 33 38 39
39 37 32 27 26 28 31 36 41 46 47 50 53 54 54 54 55 51 49 52 52 45 43 43 34 40 50 53 57 54 52 50 53 54 51 46 46 50 50 46 43 38 34 37 42 42 38 38 38 40 41 43 45 47
38 36 33 30 30 32 34 38 41 44 51 52 52 54 53 50 49 54 57 56 55 49 47 53 60 61 60 57 53 54 51 53 58 63 60 53 44 44 40 36 38 38 38 41 45 42 42 40 40 43 50 51 48 50
36 36 34 32 35 40 43 36 37 40 42 48 47 47 46 50 53 52 50 48 49 51 52 48 50 50 46 46 48 53 55 53 53 55 57 52 43 46 44 43 42 43 48 50 51 54 53 52 55 50 53 54 54 48
38 33 33 34 36 42 46 45 40 41 41 43 40 35 36 42 47 48 44 47 50 51 51 42 37 37 37 36 32 39 43 39 40 43 46 47 47 45 47 48 52 52 50 50 50 52 53 55 55 51 48 48 42 40
30 31 34 36 39 45 45 44 45 49 50 50 41 37 44 48 51 49 47 50 55 53 52 54 43 38 39 32 47 46 43 44 45 45 46 47 44 41 43 47 51 55 56 53 51 49 50 48 47 48 46 40 37 38
31 34 35 35 37 38 39 39 41 41 48 50 48 47 59 59 51 47 46 57 56 49 53 54 51 50 51 48 38 34 37 34 39 44 43 40 42 44 45 48 51 54 53 48 46 45 43 44 43 44 43 42 39 37
33 34 39 37 39 39 37 34 36 41 48 49 45 49 47 38 37 42 51 47 32 39 40 38 39 33 28 27 25 25 23 25 31 39 38 35 40 42 44 44 44 42 38 42 43 38 36 36 35 38 42 40 36 35
33 38 28 26 34 37 36 40 45 48 48 41 41 41 41 49 44 43 52 42 40 37 33 27 22 19 20 20 26 28 29 30 29 31 28 27 30 36 40 40 41 36 32 37 39 34 32 31 31 31 30 28 28 28
38 32 30 37 39 37 31 39 42 42 38 37 36 37 37 31 36 54 52 48 38 20 9 9 17 20 22 26 30 28 28 25 26 27 24 24 23 25 27 29 30 29 30 35 35 30 27 26 25 25 25 22 17 11
42 42 42 44 46 44 42 42 44 42 45 49 47 38 37 38 43 42 36 35 23 25 30 27 31 34 32 34 34 32 32 33 34 34 33 31 33 35 35 36 34 30 28 28 29 27 23 17 11 9 11 15 14 14
47 46 43 43 37 40 44 46 47 48 48 45 44 47 48 47 47 47 41 37 39 37 33 36 39 37 34 36 34 30 28 28 33 37 40 41 36 32 33 32 29 26 26 22 18 13 7 10 13 15 19 11 14 17
48 39 39 51 50 50 51 49 42 36 38 40 44 48 51 52 49 44 40 39 39 39 39 40 40 37 34 32 30 29 24 27 32 36 40 40 31 30 30 29 26 21 15 13 15 14 14 14 17 19 9 13 12 13
44 45 48 51 49 43 46 47 45 45 45 46 46 48 48 46 46 46 43 40 41 44 42 40 39 38 37 35 34 35 34 35 36 35 36 37 34 31 30 24 19 19 21 22 20 23 21 22 16 7 11 13 13 13
37 38 39 43 47 46 48 47 43 40 45 50 50 47 45 46 50 49 41 40 39 41 41 43 44 44 42 40 37 39 41 44 42 40 37 38 38 38 34 26 27 28 26 25 23 22 24 14 7 11 13 13 13 12
38 35 31 34 39 42 41 41 41 42 48 52 48 42 39 39 44 48 41 39 40 41 42 41 41 40 40 42 44 41 37 41 41 41 39 34 37 38 35 28 28 28 26 25 27 23 13 9 12 13 13 12 11 10

GFSWCAN_700_spd_114.txt.gz
Wind_Speed
31 30 27 26 25 24 23 22 24 28 28 25 24 20 17 19 18 17 16 15 15 16 13 10 14 18 16 16 15 14 14 11 12 13 9 11 12 12 14 16 15 14 10 13 15 12 15 4 9 15 19 23 23 27
35 34 33 33 30 29 26 25 28 28 27 26 24 23 18 18 20 19 16 17 18 15 15 19 17 15 12 17 17 17 15 15 9 8 9 10 14 17 22 16 15 16 18 12 17 14 21 34 37 33 31 32 36 36
36 36 34 35 34 30 29 29 29 33 31 25 24 26 23 19 20 20 19 19 20 21 16 12 6 7 11 15 17 21 21 22 25 25 27 27 29 26 24 25 24 28 28 33 35 36 31 32 38 36 32 35 34 30
36 36 34 32 33 32 32 32 34 33 36 31 26 24 27 23 21 23 21 20 21 24 26 10 16 18 20 23 21 24 27 28 26 26 27 32 36 23 30 33 38 32 34 40 45 41 33 31 25 24 24 25 27 24
39 39 37 33 34 35 35 37 40 38 36 37 32 27 26 29 25 23 23 24 23 21 28 29 28 22 18 24 29 31 29 27 28 29 31 35 37 36 39 41 47 38 28 33 38 28 29 30 28 29 22 22 26 26
43 40 38 37 37 38 40 42 43 41 38 39 34 31 31 28 30 27 25 24 19 26 33 37 29 31 22 11 9 13 14 20 24 29 31 35 38 34 27 44 44 37 31 28 30 27 29 31 32 29 26 24 25 26
43 42 43 42 41 41 42 42 41 39 37 38 37 33 30 31 28 26 28 29 30 32 33 26 25 17 7 13 25 27 26 27 28 31 35 37 38 37 48 55 34 34 32 32 29 27 27 27 28 24 24 25 25 25
34 32 34 34 34 35 35 35 33 31 32 33 30 28 30 37 38 34 28 32 32 31 33 18 17 21 25 29 34 28 26 27 31 31 35 37 37 37 48 27 27 26 23 27 26 27 26 27 24 22 23 23 24 25
27 27 25 25 26 27 27 27 28 27 26 24 25 29 31 32 33 31 30 32 34 32 29 25 24 23 18 25 34 34 32 29 33 35 35 30 35 30 30 34 28 30 36 36 36 33 29 27 23 23 22 23 24 25
30 30 31 31 30 28 28 27 26 25 27 26 24 25 25 27 27 27 29 34 39 41 43 49 44 40 35 34 31 28 23 14 20 24 18 26 45 20 24 29 32 28 22 25 28 31 30 31 25 22 22 23 26 26
33 32 31 31 30 28 27 26 25 25 25 23 24 26 25 23 24 21 16 13 11 12 13 5 10 16 23 27 27 14 11 9 9 12 12 14 32 21 26 32 32 34 34 31 27 24 26 27 25 23 24 25 25 24
34 32 32 30 29 27 26 26 25 23 23 22 22 23 23 21 15 12 11 11 11 8 11 8 8 10 10 10 12 10 14 9 10 12 10 16 23 34 32 32 35 26 24 21 16 16 16 18 22 23 25 25 23 23
36 34 34 33 32 31 28 27 26 25 23 21 20 20 12 12 19 13 11 13 8 8 8 12 18 20 18 15 12 12 12 14 13 11 17 28 25 22 27 29 21 19 14 13 14 15 15 15 20 23 24 24 24 24
37 37 36 34 34 33 32 29 27 24 21 19 18 16 14 14 13 21 26 28 24 23 20 23 23 19 21 19 15 11 13 10 8 18 36 30 15 22 28 29 26 15 15 17 18 21 21 21 21 20 20 22 24 26
35 34 35 35 33 32 30 27 24 18 18 25 16 17 31 37 37 35 28 22 20 18 18 17 24 28 26 14 16 12 9 11 12 16 18 18 23 25 30 32 24 23 20 19 27 28 29 27 23 24 26 28 28 30
34 33 34 32 32 29 26 23 25 27 31 34 29 37 46 45 45 43 40 38 37 37 38 38 34 22 27 19 21 21 18 25 32 30 25 34 41 34 32 35 35 29 29 28 31 34 24 35 30 29 30 29 32 32
36 38 33 30 25 23 24 28 29 35 35 44 48 49 50 49 50 47 43 41 39 38 32 30 28 24 26 22 29 25 35 35 32 38 55 47 41 44 49 38 41 35 25 29 36 40 33 32 40 38 32 30 36 37
41 37 36 30 24 27 29 31 34 39 45 49 48 50 52 52 52 51 49 48 46 48 46 42 40 40 42 46 55 56 53 56 57 55 50 51 59 54 52 44 45 46 49 47 46 44 42 40 39 37 36 35 39 41
40 38 37 32 30 32 34 36 41 45 48 45 47 49 54 54 53 50 51 46 43 43 41 43 40 46 50 49 52 52 50 51 54 54 55 51 49 52 50 47 48 51 45 42 44 41 38 38 37 40 43 44 47 42
38 39 37 35 36 36 37 39 41 43 45 44 43 44 47 50 49 50 51 52 51 50 55 55 58 63 63 62 60 61 57 52 49 51 46 39 41 45 48 47 49 47 43 42 44 39 42 43 44 46 48 47 46 43
36 39 37 36 40 44 45 32 27 34 39 43 41 40 44 43 43 45 47 47 49 54 57 59 60 57 55 54 49 49 45 40 44 41 39 45 49 49 48 45 42 41 41 42 44 46 48 47 46 49 51 54 56 55
39 36 37 39 46 46 49 46 40 44 42 42 43 42 39 42 43 43 41 43 50 54 54 52 53 54 52 50 48 47 48 51 48 48 46 50 53 51 51 49 47 46 45 46 45 46 48 50 52 54 51 53 54 53
37 37 41 44 48 46 36 39 33 37 43 43 42 39 43 48 49 48 52 52 51 50 51 52 51 48 51 51 50 50 48 45 45 46 50 45 46 49 50 48 45 46 46 46 47 48 47 47 48 50 48 45 46 46
39 43 48 36 44 33 34 35 41 45 49 52 51 50 52 50 48 50 54 54 56 54 56 58 57 55 52 51 47 39 33 31 33 41 37 35 38 40 39 41 40 40 40 42 44 44 44 43 42 44 43 40 40 41
50 27 33 29 32 28 30 34 37 38 44 44 45 48 49 44 41 43 46 58 53 49 48 45 46 40 38 43 31 26 16 14 22 30 32 32 35 32 28 26 27 29 27 31 35 36 36 38 39 40 39 37 37 35
31 28 13 26 36 33 39 42 42 45 46 45 46 49 49 46 45 46 55 48 45 35 35 34 34 37 45 31 15 10 6 12 22 32 32 28 29 31 32 31 31 28 28 31 31 32 33 33 34 34 33 34 32 28
31 20 33 41 39 32 29 37 37 36 39 42 44 42 40 40 43 53 49 40 35 35 29 29 31 26 18 12 14 20 24 27 33 36 35 34 34 35 40 42 42 38 33 34 33 33 31 30 31 28 26 23 19 18
35 41 42 41 42 41 40 39 41 42 43 42 41 41 42 46 54 53 50 51 45 38 32 36 40 41 36 36 39 39 34 32 36 37 35 32 30 31 34 39 40 36 35 33 33 30 28 28 21 14 12 13 13 8
44 44 43 44 43 43 42 45 49 50 47 48 49 51 47 45 48 50 41 36 36 38 40 41 38 35 35 34 34 34 35 34 35 35 33 32 32 31 31 34 36 34 35 31 28 26 19 14 11 11 13 12 13 7
48 45 46 47 49 50 52 51 51 48 47 47 46 46 48 47 39 35 36 34 35 35 33 32 32 35 39 38 39 35 30 29 32 34 34 37 38 35 35 36 36 34 33 30 22 18 14 14 15 16 16 20 12 10
45 46 47 48 49 50 52 49 46 44 43 46 48 49 50 48 47 42 42 39 39 38 38 40 40 39 39 39 39 38 35 31 35 35 35 37 40 40 40 37 36 35 31 30 21 21 22 20 20 20 21 11 9 10
43 45 45 46 41 34 37 41 43 45 44 47 51 49 50 50 56 48 43 45 43 42 39 37 37 36 31 35 36 36 41 43 39 38 38 39 40 41 39 35 33 32 29 32 28 26 24 20 20 18 9 8 9 10
43 41 39 38 41 43 37 32 33 37 40 43 44 44 48 50 56 52 44 36 32 31 28 24 23 25 26 27 30 34 37 37 35 33 34 37 38 38 36 32 29 24 25 27 25 21 21 23 20 11 10 9 9 9

GFSWCAN_700_spd_117.txt.gz
Wind_Speed
28 28 26 24 24 24 23 21 22 21 20 21 23 22 22 20 19 20 18 17 16 14 12 12 16 17 17 14 15 15 16 8 9 8 7 7 8 9 11 14 16 12 10 12 15 11 14 7 8 17 29 36 32 29
28 27 29 29 28 28 28 25 23 23 21 21 23 26 24 24 21 19 21 20 19 17 16 17 12 9 9 10 12 14 14 15 9 9 9 8 12 17 22 17 19 15 12 15 17 18 30 40 37 39 39 38 38 35
30 30 31 30 30 31 30 26 23 24 24 23 22 26 28 27 25 22 20 23 25 22 19 12 15 13 10 15 17 20 19 21 23 23 23 23 25 23 26 28 28 28 26 35 37 44 41 40 39 38 39 38 35 33
34 34 33 32 32 29 30 29 26 25 25 27 26 28 30 28 29 26 24 22 24 28 30 12 7 15 23 26 17 18 18 23 25 24 26 28 33 23 32 36 41 43 43 44 46 42 40 34 24 23 27 28 29 30
36 32 35 31 32 32 30 30 29 28 28 28 30 30 34 32 30 32 28 26 24 23 30 31 27 29 18 21 30 27 20 21 25 27 30 33 34 34 36 39 43 37 35 34 37 26 30 30 29 32 32 27 26 28
36 35 37 32 39 33 30 30 30 32 33 32 33 33 32 34 34 31 31 28 23 21 32 36 27 32 29 23 16 10 19 21 21 24 28 32 32 32 22 37 38 27 28 28 35 30 30 28 28 29 29 30 29 27
41 41 42 38 36 33 31 32 31 31 34 32 32 33 32 32 31 29 31 32 28 29 33 27 26 15 7 6 14 27 26 31 29 29 34 34 36 34 41 42 28 33 28 26 32 35 37 27 28 26 27 26 26 26
38 36 34 35 32 29 30 29 27 26 26 25 25 25 27 26 26 26 29 29 29 31 30 16 17 17 22 27 30 31 30 27 30 32 37 34 34 34 44 40 34 29 33 30 31 32 38 40 34 29 26 25 24 23
30 27 25 26 24 24 23 22 21 21 20 21 23 25 27 26 25 25 26 29 30 28 27 24 25 21 19 18 23 30 36 37 34 34 33 26 30 27 27 24 24 22 30 34 31 28 30 32 30 28 27 25 22 20
25 24 23 23 23 23 23 22 22 22 21 22 24 25 26 24 24 26 28 28 32 34 36 40 36 38 31 32 30 24 19 14 17 20 15 19 29 11 18 26 31 31 35 36 39 35 30 30 28 25 23 21 20 21
28 28 27 27 26 25 26 25 24 24 23 23 23 23 24 24 23 23 16 10 9 7 10 3 7 10 11 18 21 12 10 9 9 11 11 9 17 12 19 16 23 30 31 27 27 27 24 23 22 19 16 18 21 23
32 31 30 28 27 27 25 24 23 22 21 21 21 21 21 20 16 11 9 8 8 6 5 7 6 3 7 8 9 10 12 8 8 11 8 6 11 17 15 15 19 21 26 20 16 17 19 19 16 12 16 20 21 19
32 32 31 30 29 28 26 26 25 23 23 22 21 22 13 11 17 11 12 12 8 7 7 9 12 16 15 12 8 12 9 11 15 11 16 27 22 20 19 18 19 20 17 22 24 19 18 16 16 18 20 23 21 18
32 32 32 32 31 30 29 28 27 25 24 23 22 18 13 12 10 15 16 17 15 18 19 17 17 15 17 9 7 7 10 9 8 10 22 24 13 12 10 21 35 38 34 28 25 27 26 27 23 20 23 24 25 23
28 28 30 30 29 29 28 26 24 20 21 23 18 18 25 29 31 28 23 22 21 18 18 18 17 15 20 16 17 13 9 12 13 21 17 15 27 35 29 27 43 38 34 30 30 31 38 41 40 27 22 27 27 29
32 32 32 27 28 26 22 23 24 23 28 30 31 33 44 43 39 36 33 31 30 27 26 26 24 19 22 18 19 20 20 31 39 35 39 40 41 44 44 51 55 48 45 41 37 36 43 40 40 39 37 35 32 32
33 39 33 31 28 24 25 28 29 33 30 38 49 49 48 48 46 43 37 33 30 25 22 20 22 20 21 21 33 38 45 47 41 43 38 38 44 57 56 57 52 47 47 47 48 47 45 45 47 49 47 42 40 41
38 34 34 32 28 27 29 33 37 39 46 46 44 46 47 46 45 47 45 46 44 44 40 36 38 43 46 50 55 53 53 55 51 50 54 52 49 48 47 49 48 46 43 44 47 50 48 44 45 45 44 43 45 42
33 33 33 31 33 32 36 41 45 48 49 44 40 39 41 41 37 37 40 43 45 44 36 36 31 35 42 44 46 47 47 49 48 49 55 58 50 43 43 43 36 37 41 45 47 48 46 45 44 41 43 41 44 43
33 33 33 32 34 36 44 46 42 47 53 47 42 40 41 39 34 36 37 38 41 43 47 51 55 56 58 61 61 61 60 60 61 62 58 53 48 44 48 41 41 48 50 50 49 48 48 46 42 40 41 42 40 39
34 35 34 35 38 41 47 34 27 33 40 49 43 42 42 41 40 37 37 36 40 45 49 49 51 49 47 49 49 48 48 47 50 49 50 49 45 47 50 43 49 51 53 52 49 46 43 42 40 40 42 39 40 38
34 33 35 36 40 44 50 53 40 39 37 40 44 44 41 42 43 42 41 43 47 47 46 48 50 50 51 49 46 45 45 44 44 48 50 50 48 48 46 45 48 48 46 45 44 41 38 36 35 36 38 38 38 39
33 33 36 40 43 47 51 42 37 52 54 53 50 45 48 49 47 44 47 46 50 51 51 50 50 48 49 47 44 43 43 43 44 40 41 42 41 39 42 41 36 37 38 35 35 36 36 35 35 35 36 37 38 38
33 36 40 42 44 41 38 34 50 50 46 39 42 48 51 49 43 42 50 55 50 43 41 42 44 43 41 39 35 35 35 30 34 36 34 36 37 34 25 28 27 28 30 26 24 26 28 30 30 30 31 34 34 34
40 40 49 39 39 36 44 38 39 40 43 44 44 48 43 38 37 44 52 51 45 42 41 38 34 30 33 32 28 28 25 31 39 32 23 17 17 19 23 26 30 31 32 35 34 35 35 34 32 31 33 34 33 32
32 46 25 25 35 37 35 43 47 50 48 47 47 42 44 44 44 50 50 45 42 43 27 28 26 30 36 43 32 35 34 31 25 19 11 13 17 23 28 32 34 26 26 31 34 38 36 35 34 34 33 34 32 30
33 18 20 36 27 26 30 30 32 38 39 41 42 38 38 35 41 49 50 42 40 37 32 32 33 36 39 38 38 37 39 39 37 25 21 21 24 24 27 31 31 28 28 30 34 36 38 37 38 36 30 27 22 20
43 38 39 35 31 31 38 37 36 35 36 38 39 39 39 48 56 50 46 41 39 33 36 36 33 34 35 36 38 38 38 33 34 34 27 27 26 27 28 29 30 27 28 28 34 36 38 36 33 23 16 15 16 13
40 37 36 38 38 36 39 42 45 46 45 47 47 48 52 51 48 47 44 41 38 40 37 32 29 28 31 32 34 32 29 27 31 35 35 34 32 27 27 31 31 30 32 31 35 37 33 34 24 17 16 15 12 10
42 39 42 46 47 47 47 47 49 47 46 47 48 50 52 53 50 47 46 43 40 38 40 40 37 35 32 33 35 36 34 31 31 32 35 36 33 30 30 31 32 30 31 32 35 32 31 31 24 19 20 18 18 17
44 45 46 48 50 48 45 45 49 48 46 43 43 48 54 55 53 49 47 44 44 44 41 38 31 29 33 30 31 34 34 28 28 29 32 33 31 32 33 33 34 31 32 31 32 28 27 29 27 21 16 17 11 6
43 43 43 45 42 39 39 38 38 40 40 44 46 46 50 49 52 49 40 39 38 41 39 34 34 28 21 22 23 26 29 30 27 27 28 27 30 33 32 31 32 32 30 30 29 23 24 26 19 14 13 13 8 6
47 48 48 47 46 47 44 44 45 46 47 48 49 46 44 43 47 41 35 32 32 32 30 31 29 24 24 26 27 29 30 30 28 27 26 25 26 27 28 27 26 26 27 28 25 19 21 18 13 13 16 10 7 7